     2              OBSERVATION DATA    GPS                 RINEX VERSION / TYPE
ASHTORIN MIT 08                                             PGM / RUN BY / DATE
                                                            COMMENT
Original Marker Name: ANZA                                  COMMENT
Campaign Name: STRC/NBC 1997                                COMMENT
4-Character Station Name: ANZA                              COMMENT
6-Character Antenna Code: DMRCHT                            COMMENT
Vertical Measurement Point: BCR                             COMMENT
Vertical Offset to Rinex Ref. Point: 0.0349                 COMMENT
Radial Measurement Point: ECF                               COMMENT
Radial Offset to Rinex Ref. Point: 0.1896                   COMMENT
Antenna Height from Field Measurement: 1.6170 m             COMMENT
New site.                                                   COMMENT
Original XYZ: 0.0000 0.0000 0.0000                          COMMENT
New XYZ position is based on association with SCEC monument COMMENT
E1D0K4B7+0011. Position of that monument is believed to be  COMMENT
valid to within 1 m horizontally; vertical accuracy         COMMENT
should be no worse than 3-times this value.                 COMMENT
                                                            COMMENT
Revised Rinex header created by UCSD GPS archive for        COMMENT
GSAC on 26-May-1999 (1999:146) 20:47:22 GMT                 COMMENT
For assistance contact dagnew@ucsd.edu or hjohnson@ucsd.edu COMMENT
                                                            COMMENT
NONE RCFC 3-D MARK                                          MARKER NAME
                                                            MARKER NUMBER
RER MASS INST. OF TECHNOLOGY                                OBSERVER / AGENCY
391 ASHTECH Z12-XII3 1E951D0                                REC # / TYPE / VERS
733 DORNE-MARGOL. TYPE T                                    ANT # / TYPE
 -2387933.0000 -4755765.0000  3506156.0000                  APPROX POSITION XYZ
        1.5709        0.0000        0.0000                  ANTENNA: DELTA H/E/N
     1     1     0                                          WAVELENGTH FACT L1/2
     7    L1    L2    C1    P1    P2    D1    D2            # / TYPES OF OBSERV
    30                                                      INTERVAL
  1997     3    14    18    36   30.000000                  TIME OF FIRST OBS
  1997     3    14    23    59   30.000000                  TIME OF LAST OBS
     0                                                      # OF SATELLITES
                                                            END OF HEADER
 97  3 14 18 36 30.0000000  0  6 27  2 19 31 18  7                   0.000000000
   -143593.63019   -101320.55352         0.000           0.0005          0.0005
        -0.000          -0.000
   -163139.50819   -114337.35259  21657659.447    21657658.1055   21657665.1785
        -0.000          -0.000
     25968.70719     17165.59552         0.000           0.0005          0.0005
        -0.000          -0.000
    133030.94519     95579.24252         0.000           0.0005          0.0005
        -0.000          -0.000
    197757.03019    139882.63457  23102793.509    23102792.4695   23102799.3115
        -0.000          -0.000
   -320936.22519   -232106.91656  23254649.023    23254648.3625   23254657.6855
        -0.000          -0.000
 97  3 14 18 37  0.0000000  0  7 27  2 19 31 18  7 10                0.000209553
   -200355.68819     -9174.79652         0.000           0.0005          0.0005
        -0.000          -0.000
   -221814.581 9   -160058.17349  21646494.520    21646492.7954   21646499.7104
        -0.000          -0.000
     36941.30019      1786.12752         0.000           0.0005          0.0005
        -0.000          -0.000
    187419.15019      8900.75152         0.000           0.0005          0.0005
        -0.000          -0.000
    276981.867 9    201616.24147  23117869.119    23117868.3834   23117875.2874
        -0.000          -0.000
   -451457.608 9   -333811.86246  23229812.180    23229811.4564   23229820.1694
        -0.000          -0.000
     63346.10119     45333.49755         0.000           0.0005   24499536.6155
        -0.000          -0.000
 97  3 14 18 37 30.0000000  0  7 27  2 19 31 18  7 10                0.000191690
   -256791.196 9    -52657.72952         0.000           0.0004          0.0005
        -0.000          -0.000
   -280176.243 9   -205534.78249  21635388.076    21635386.9434   21635393.8274
        -0.000          -0.000
     48273.213 9     10410.29052         0.000           0.0004          0.0005
        -0.000          -0.000
    242255.090 9     51633.67154         0.000           0.0004   22960094.6435
        -0.000          -0.000
    356458.362 9    263545.91547  23132992.627    23132992.1234   23132999.2584
        -0.000          -0.000
   -581785.373 9   -435365.91646  23205011.130    23205010.8754   23205019.6164
        -0.000          -0.000
     85655.18319     62717.15645  24503774.886    24503774.4405   24503782.4154
        -0.000          -0.000
 97  3 14 18 38  0.0000000  3  2
ANZA                                                        MARKER NAME
--> THIS IS THE START OF A NEW SITE <---                    COMMENT
 97  3 14 18 38  0.0000000  0  7 27  2 19 31 18  7 10                0.000173854
   -312898.150 9    -95870.88052         0.000           0.0004          0.0005
        -0.000          -0.000
   -338210.895 9   -250756.57449  21624344.338    21624343.2594   21624350.1734
        -0.000          -0.000
     59948.937 9     19302.34452         0.000           0.0004          0.0005
        -0.000          -0.000
    297559.76719     94728.16646  22970611.345    22970609.7385   22970616.8784
        -0.000          -0.000
    436178.055 9    325665.08947  23148162.827    23148162.1814   23148169.4734
        -0.000          -0.000
   -711905.637 9   -536758.30946  23180250.398    23180249.8674   23180258.3804
        -0.000          -0.000
    108276.546 8     80344.13945  24508080.252    24508079.0704   24508087.3104
        -0.000          -0.000
 97  3 14 18 38 30.0000000  0  7 27  2 19 31 18  7 10                0.000156054
   -368664.56619     -6183.31555         0.000           0.0005   20423716.6505
        -0.000          -0.000
   -395930.575 9   -295732.93749  21613360.570    21613359.4934   21613366.4444
        -0.000          -0.000
     71972.85619      1352.25155         0.000           0.0005   21182419.4095
        -0.000          -0.000
    353343.432 9    138195.93146  22981226.366    22981224.9994   22981232.0494
        -0.000          -0.000
    516146.029 9    387977.75147  23163380.112    23163379.5664   23163386.9704
        -0.000          -0.000
   -841811.883 9   -637983.89846  23155530.550    23155529.5614   23155537.9964
        -0.000          -0.000
    131217.293 9     98220.01145  24512445.828    24512444.5984   24512453.0124
        -0.000          -0.000
 97  3 14 18 39  0.0000000  0  7 27  2 19 31 18  7 10                0.000138307
   -424073.04519    -49358.79348  20413165.833    20413165.2205   20413171.1384
        -0.000          -0.000
   -453356.140 9   -340480.12049  21602432.949    21602431.8484   21602438.7464
        -0.000          -0.000
     84333.65919     10984.08948  21184766.014    21184764.9525   21184771.9134
        -0.000          -0.000
    409613.007 9    182042.34146  22991933.874    22991932.7864   22991939.4774
        -0.000          -0.000
    596353.463 9    450476.98147  23178643.034    23178642.5104   23178650.0434
        -0.000          -0.000
   -971487.864 9   -739030.07446  23130854.145    23130853.0744   23130861.4464
        -0.000          -0.000
    154488.601 9    116353.44945  24516874.421    24516873.1614   24516881.5304
        -0.000          -0.000
 97  3 14 18 39 30.0000000  0  7 27  2 19 31 18  7 10                0.000120610
   -479121.814 9    -92253.93349  20402690.413    20402689.6824   20402695.6164
        -0.000          -0.000
   -510502.577 9   -385009.80849  21591558.336    21591557.3164   21591564.1334
        -0.000          -0.000
     97026.728 9     20874.78448  21187181.353    21187180.5804   21187187.3244
        -0.000          -0.000
    466349.773 9    226252.78346  23002730.706    23002729.4324   23002735.9854
        -0.000          -0.000
    676783.417 9    513149.61047  23193948.364    23193947.8144   23193955.3284
        -0.000          -0.000
  -1100924.430 9   -839889.69446  23106223.078    23106222.1154   23106230.4714
        -0.000          -0.000
    178092.869 9    134746.34345  24521366.140    24521364.8034   24521373.1274
        -0.000          -0.000
 97  3 14 18 40  0.0000000  0  7 27  2 19 31 18  7 10                0.000102952
   -533816.463 9   -134873.14349  20392282.387    20392281.6474   20392287.5974
        -0.000          -0.000
   -567399.736 9   -429345.23749  21580731.330    21580730.2314   21580737.0004
        -0.000          -0.000
    110046.351 9     31019.92548  21189658.921    21189658.2054   21189664.9524
        -0.000          -0.000
    523524.487 9    270804.49346  23013610.815    23013609.4904   23013616.1434
        -0.000          -0.000
    757418.113 9    575981.79747  23209292.825    23209292.2214   23209299.6724
        -0.000          -0.000
  -1230140.783 9   -940577.69846  23081633.979    23081633.0284   23081641.4124
        -0.000          -0.000
    202025.266 9    153394.92945  24525920.371    24525918.9604   24525927.5354
        -0.000          -0.000
 97  3 14 18 40 30.0000000  0  7 27  2 19 31 18  7 10                0.000085337
   -588150.311 9   -177211.20949  20381943.003    20381942.2454   20381948.2274
        -0.000          -0.000
   -624047.430 9   -473486.28649  21569951.516    21569950.4444   21569957.3254
        -0.000          -0.000
    123404.402 9     41428.78348  21192200.914    21192200.2454   21192206.9344
        -0.000          -0.000
    581129.027 9    315691.09046  23024572.428    23024571.2614   23024578.0494
        -0.000          -0.000
    838270.475 9    638983.56347  23224678.663    23224678.0204   23224685.4904
        -0.000          -0.000
  -1359131.950 9  -1041090.26046  23057087.905    23057086.9314   23057095.1694
        -0.000          -0.000
    226301.177 9    172311.17145  24530539.953    24530538.8714   24530547.3434
        -0.000          -0.000
 97  3 14 18 41  0.0000000  0  7 27  2 19 31 18  7 10                0.000067776
   -642122.187 9   -219267.21049  20371672.500    20371671.7354   20371677.7584
        -0.000          -0.000
   -680432.885 9   -517422.99149  21559221.629    21559220.6224   21559227.5794
        -0.000          -0.000
    137107.546 9     52106.54348  21194808.516    21194807.8804   21194814.6004
        -0.000          -0.000
    639181.615 9    360926.84346  23035619.325    23035618.2834   23035625.0834
        -0.000          -0.000
    919354.703 9    702166.03247  23240108.710    23240107.9684   23240115.4374
        -0.000          -0.000
  -1487895.340 9  -1141425.31146  23032585.028    23032583.9844   23032592.3494
        -0.000          -0.000
    250923.264 8    191497.15045  24535225.352    24535224.0884   24535232.7514
        -0.000          -0.000
 97  3 14 18 41 30.0000000  0  7 27  2 19 31 18  7 10                0.000050286
   -695717.409 9   -261029.71549  20361473.768    20361472.9854   20361478.9694
        -0.000          -0.000
   -736528.927 9   -561134.17449  21548546.953    21548545.9124   21548552.8364
        -0.000          -0.000
    151195.252 9     63083.95748  21197489.280    21197488.6544   21197495.4484
        -0.000          -0.000
    697708.311 9    406532.05246  23046756.499    23046755.6434   23046762.2944
        -0.000          -0.000
   1000701.661 9    765553.22146  23255588.609    23255587.9314   23255595.3054
        -0.000          -0.000
  -1616413.388 9  -1241569.20146  23008128.786    23008127.7754   23008136.1314
        -0.000          -0.000
    275906.355 8    210964.46345  24539979.155    24539978.0774   24539986.8224
        -0.000          -0.000
 97  3 14 18 42  0.0000000  0  7 27  2 19 31 18  7 10                0.000032869
   -748930.710 9   -302494.62249  20351347.624    20351346.8564   20351352.8244
        -0.000          -0.000
   -792343.995 9   -604626.41249  21537925.743    21537924.7154   21537931.5924
        -0.000          -0.000
    165671.003 9     74363.74648  21200244.057    21200243.4074   21200250.1104
        -0.000          -0.000
    756711.588 9    452508.59646  23057984.866    23057983.7304   23057990.1434
        -0.000          -0.000
   1082307.067 9    829141.80946  23271117.584    23271116.9014   23271124.3494
        -0.000          -0.000
  -1744684.261 9  -1341520.47046  22983719.524    22983718.5734   22983726.9294
        -0.000          -0.000
    301241.382 9    230705.98945  24544800.435    24544799.4084   24544808.0524
        -0.000          -0.000
 97  3 14 18 42 30.0000000  0  7 27  2 19 31 18  7 10                0.000015525
   -801751.668 9   -343653.80749  20341296.056    20341295.3244   20341301.3354
        -0.000          -0.000
   -847872.188 9   -647895.11349  21527359.129    21527358.1104   21527364.9534
        -0.000          -0.000
    180539.979 9     85949.94548  21203073.735    21203073.0084   21203079.5814
        -0.000          -0.000
    816200.610 9    498863.65946  23069305.209    23069304.1134   23069310.5974
        -0.000          -0.000
   1164168.403 9    892929.78946  23286695.113    23286694.4974   23286702.1134
        -0.000          -0.000
  -1872678.717 9  -1441256.37146  22959362.779    22959362.0054   22959370.4274
        -0.000          -0.000
    326921.215 9    250716.21345  24549687.403    24549686.2354   24549695.0284
        -0.000          -0.000
 97  3 14 18 43  0.0000000  0  7 27  2 19 31 18  7 10               -0.000001742
   -854169.655 9   -384498.99749  20331321.197    20331320.5504   20331326.5404
        -0.000          -0.000
   -903099.917 9   -690929.68949  21516849.742    21516848.6164   21516855.5064
        -0.000          -0.000
    195824.671 9     97860.08148  21205982.201    21205981.5644   21205988.1584
        -0.000          -0.000
    876182.662 9    545602.86746  23080719.317    23080718.3914   23080724.9624
        -0.000          -0.000
   1246285.474 9    956917.08646  23302321.493    23302320.8694   23302328.3654
        -0.000          -0.000
  -2000378.360 9  -1540762.54546  22935062.340    22935061.5774   22935069.9634
        -0.000          -0.000
    352954.410 9    271001.77045  24554641.291    24554640.1764   24554648.8914
        -0.000          -0.000
 97  3 14 18 43 29.9990000  0  7 27  2 19 31 18  7 10               -0.000018940
   -906177.640 9   -425024.70249  20321424.402    20321423.7414   20321429.8054
        -0.000          -0.000
   -958024.175 9   -733727.80949  21506397.907    21506396.8524   21506403.8114
        -0.000          -0.000
    211523.277 9    110092.73548  21208969.546    21208968.9264   21208975.5174
        -0.000          -0.000
    936631.260 9    592705.63246  23092222.269    23092221.3484   23092228.0724
        -0.000          -0.000
   1328625.338 9   1021077.97046  23317990.564    23317989.7114   23317997.0714
        -0.000          -0.000
  -2127766.965 9  -1640026.34046  22910821.374    22910820.3884   22910828.5414
        -0.000          -0.000
    379342.158 8    291563.61945  24559663.041    24559661.5504   24559670.2834
        -0.000          -0.000
 97  3 14 18 43 59.9990000  0  7 27  2 19 31 18  7 10               -0.000036065
   -957750.272 9   -465211.16649  20311610.459    20311609.8154   20311615.9234
        -0.000          -0.000
  -1012620.442 9   -776270.34849  21496008.524    21496007.5044   21496014.4914
        -0.000          -0.000
    227654.825 9    122662.75648  21212039.285    21212038.6314   21212045.2764
        -0.000          -0.000
    997553.848 9    640177.74046  23103815.597    23103814.5524   23103821.1664
        -0.000          -0.000
   1411207.225 9   1085427.43046  23333705.314    23333704.5724   23333712.1264
        -0.000          -0.000
  -2254825.745 9  -1739033.13147  22886643.228    22886642.0284   22886649.9724
        -0.000          -0.000
    406114.710 8    312425.28045  24564757.563    24564756.3424   24564765.1004
        -0.000          -0.000
 97  3 14 18 44 29.9990000  0  8 27  2 19 31 18  7 26 10            -0.000053102
  -1008886.284 9   -505057.41049  20301879.700    20301879.0224   20301885.0344
        -0.000          -0.000
  -1066856.587 9   -818532.26749  21485687.748    21485686.7294   21485693.6144
        -0.000          -0.000
    244235.828 9    135582.99848  21215194.560    21215193.9274   21215200.6024
        -0.000          -0.000
   1058951.796 9    688020.25746  23115499.350    23115498.2434   23115504.8394
        -0.000          -0.000
   1494035.208 9   1149968.66246  23349466.901    23349466.2514   23349473.9834
        -0.000          -0.000
  -2381549.834 9  -1837779.12647  22862528.303    22862527.2124   22862535.2114
        -0.000          -0.000
  -1903983.34318  -1459426.54355  24804838.728    24804838.8675   24804845.5455
        -0.000          -0.000
    433280.823 9    333593.63945  24569926.875    24569925.8544   24569934.6624
        -0.000          -0.000
 97  3 14 18 44 59.9990000  0  8 27  2 19 31 18  7 26 10            -0.000070074
  -1059581.966 9   -544560.53749  20292232.565    20292231.8904   20292237.9304
        -0.000          -0.000
  -1120710.419 9   -860496.27649  21475439.826    21475438.7434   21475445.5284
        -0.000          -0.000
    261285.356 9    148868.32448  21218439.085    21218438.4314   21218445.0854
        -0.000          -0.000
   1120831.157 9    736237.91846  23127274.321    23127273.6114   23127280.1454
        -0.000          -0.000
   1577119.964 9   1214709.98146  23365277.435    23365276.8854   23365284.5434
        -0.000          -0.000
  -2507948.828 9  -1936271.78547  22838475.144    22838474.2334   22838482.3804
        -0.000          -0.000
  -2022559.954 8  -1551823.89045  24782274.467    24782274.3984   24782280.7494
        -0.000          -0.000
    460850.117 8    355076.15945  24575173.244    24575172.3214   24575180.9554
        -0.000          -0.000
 97  3 14 18 45 29.9990000  0  8 27  2 19 31 18  7 26 10            -0.000086972
  -1109842.228 9   -583724.38049  20282668.311    20282667.6814   20282673.7714
        -0.000          -0.000
  -1174192.709 9   -902170.77849  21465262.510    21465261.4594   21465268.2054
        -0.000          -0.000
    278785.629 9    162504.88148  21221769.151    21221768.5854   21221775.2754
        -0.000          -0.000
   1183181.474 9    784822.52746  23139139.194    23139138.5284   23139145.2564
        -0.000          -0.000
   1660458.077 9   1279648.69446  23381136.027    23381135.6064   23381143.3614
        -0.000          -0.000
  -2634031.160 9  -2034517.71647  22814482.280    22814481.4834   22814489.6684
        -0.000          -0.000
  -2140795.422 8  -1643955.37845  24759775.379    24759774.6354   24759781.4034
        -0.000          -0.000
    488801.220 8    376856.16645  24580492.045    24580491.4004   24580499.7694
        -0.000          -0.000
 97  3 14 18 45 59.9990000  0  8 27  2 19 31 18  7 26 10            -0.000103795
  -1159674.445 9   -622554.67649  20273185.554    20273184.9264   20273191.0304
        -0.000          -0.000
  -1227308.310 9   -943559.54149  21455154.873    21455153.8864   21455160.6354
        -0.000          -0.000
    296728.356 9    176486.20948  21225183.514    21225182.9924   21225189.6134
        -0.000          -0.000
   1245999.548 9    833771.63246  23151093.341    23151092.4524   23151099.2434
        -0.000          -0.000
   1744058.789 9   1344792.03946  23397044.994    23397044.4634   23397052.1754
        -0.000          -0.000
  -2759814.104 9  -2132530.37047  22790546.588    22790545.8034   22790553.9094
        -0.000          -0.000
  -2258687.478 8  -1735819.29545  24737340.524    24737340.3474   24737347.5374
        -0.000          -0.000
    517118.867 8    398921.83645  24585880.694    24585880.1294   24585888.7104
        -0.000          -0.000
 97  3 14 18 46 29.9990000  0  8 27  2 19 31 18  7 26 10            -0.000120541
  -1209080.322 9   -661052.76149  20263784.036    20263783.3644   20263789.4354
        -0.000          -0.000
  -1280058.979 9   -984663.94649  21445116.808    21445115.7654   21445122.5724
        -0.000          -0.000
    315108.952 9    190808.73048  21228681.359    21228680.7104   21228687.3904
        -0.000          -0.000
   1309295.898 9    883093.44146  23163138.396    23163137.4144   23163143.9514
        -0.000          -0.000
   1827915.437 9   1410134.82546  23413002.476    23413002.0154   23413009.5504
        -0.000          -0.000
  -2885300.888 9  -2230312.23747  22766667.613    22766666.5444   22766674.4454
        -0.000          -0.000
  -2376236.993 8  -1827416.32145  24714971.513    24714971.3324   24714978.7324
        -0.000          -0.000
    545792.370 8    421264.77445  24591336.975    24591336.5324   24591345.1044
        -0.000          -0.000
 97  3 14 18 46 59.9990000  0  8 27  2 19 31 18  7 26 10            -0.000137207
  -1258034.132 9   -699198.58849  20254468.526    20254467.8444   20254473.8564
        -0.000          -0.000
  -1332452.714 9  -1025490.22249  21435146.555    21435145.5384   21435152.3944
        -0.000          -0.000
    333917.752 9    205464.92248  21232260.537    21232259.9124   21232266.5944
        -0.000          -0.000
   1373073.748 9    932790.43846  23175274.897    23175274.0214   23175280.3884
        -0.000          -0.000
   1912035.137 9   1475682.59346  23429009.954    23429009.4354   23429017.0644
        -0.000          -0.000
  -3010466.994 9  -2327844.19847  22742849.532    22742848.2144   22742856.1334
        -0.000          -0.000
  -2493443.032 8  -1918745.68145  24692668.844    24692668.0814   24692675.3374
        -0.000          -0.000
    574825.752 8    443888.12845  24596862.023    24596861.4074   24596869.8874
        -0.000          -0.000
 97  3 14 18 47 29.9990000  0  8 27  2 19 31 18  7 26 10            -0.000153819
  -1306564.030 9   -737014.08149  20245233.592    20245232.8774   20245238.9274
        -0.000          -0.000
  -1384534.001 9  -1066073.03849  21425235.748    21425234.8084   21425241.6404
        -0.000          -0.000
    353101.449 9    220413.23648  21235911.153    21235910.5554   21235917.1304
        -0.000          -0.000
   1437293.248 9    982831.58646  23187495.422    23187494.6614   23187501.0654
        -0.000          -0.000
   1996372.678 9   1541400.09046  23445058.781    23445058.2854   23445066.0654
        -0.000          -0.000
  -3135342.262 9  -2425149.55647  22719086.544    22719085.2644   22719093.0734
        -0.000          -0.000
  -2610333.033 8  -2009828.74845  24670425.538    24670424.6904   24670431.9544
        -0.000          -0.000
    604170.047 8    466753.76045  24602446.472    24602445.4614   24602454.0034
        -0.000          -0.000
 97  3 14 18 47 59.9990000  0  8 27  2 19 31 18  7 26 10            -0.000170362
  -1354662.217 9   -774493.18849  20236080.765    20236080.0434   20236086.1164
        -0.000          -0.000
  -1436287.907 9  -1106400.74449  21415387.391    21415386.3964   21415393.1864
        -0.000          -0.000
    372663.778 9    235656.58448  21239633.806    21239633.1884   21239639.7794
        -0.000          -0.000
   1501972.398 9   1033230.88746  23199803.466    23199802.7614   23199809.2674
        -0.000          -0.000
   2080938.819 9   1607295.70546  23461151.020    23461150.6934   23461158.4854
        -0.000          -0.000
  -3259902.571 9  -2522209.50747  22695383.266    22695382.2144   22695389.9514
        -0.000          -0.000
  -2726885.209 8  -2100648.59745  24648246.017    24648245.5264   24648252.6854
        -0.000          -0.000
    633843.584 8    489875.96445  24608093.149    24608092.2424   24608101.0864
        -0.000          -0.000
 97  3 14 18 48 29.9990000  0  8 27  2 19 31 18  7 26 10            -0.000186827
  -1402333.146 9   -811639.36549  20227009.245    20227008.5334   20227014.6684
        -0.000          -0.000
  -1487718.971 9  -1146476.88349  21405600.405    21405599.4424   21405606.1904
        -0.000          -0.000
    392606.228 9    251196.13648  21243428.713    21243428.1414   21243434.8444
        -0.000          -0.000
   1567113.737 9   1083990.35046  23212199.767    23212198.7794   23212205.2904
        -0.000          -0.000
   2165731.825 9   1673368.14346  23477286.610    23477286.4034   23477294.1284
        -0.000          -0.000
  -3384125.448 9  -2619006.51947  22671744.172    22671743.2694   22671750.9704
        -0.000          -0.000
  -2843090.071 8  -2191197.78845  24626133.156    24626132.1344   24626139.2564
        -0.000          -0.000
    663844.468 9    513253.21945  24613802.380    24613801.1994   24613809.9864
        -0.000          -0.000
 97  3 14 18 48 59.9990000  0  8 27  2 19 31 18  7 26 10            -0.000203212
  -1449575.615 9   -848451.68149  20218019.316    20218018.6274   20218024.7334
        -0.000          -0.000
  -1538836.363 9  -1186308.59849  21395873.156    21395872.1764   21395878.9164
        -0.000          -0.000
    412932.448 9    267034.73348  21247296.814    21247296.2034   21247302.8914
        -0.000          -0.000
   1632705.391 9   1135100.70146  23224681.358    23224680.5194   23224686.9444
        -0.000          -0.000
   2250762.894 9   1739626.04246  23493467.759    23493467.3414   23493475.1194
        -0.000          -0.000
  -3507995.876 9  -2715528.88847  22648172.270    22648171.4274   22648179.2214
        -0.000          -0.000
  -2958945.536 9  -2281474.73245  24604086.342    24604085.3964   24604092.6024
        -0.000          -0.000
    694175.676 9    536887.87345  24619574.561    24619573.2734   24619581.6164
        -0.000          -0.000
 97  3 14 18 49 29.9990000  0  8 27  2 19 31 18  7 26 10            -0.000219519
  -1496421.805 9   -884955.20649  20209104.913    20209104.1684   20209110.1644
        -0.000          -0.000
  -1589648.440 9  -1225902.41549  21386203.947    21386202.9404   21386209.6834
        -0.000          -0.000
    433638.860 9    283169.56848  21251237.114    21251236.5254   21251243.2404
        -0.000          -0.000
   1698734.512 9   1186551.95746  23237246.175    23237245.4604   23237251.7424
        -0.000          -0.000
   2336019.234 9   1806059.48146  23509692.039    23509691.2394   23509698.9684
        -0.000          -0.000
  -3631526.697 9  -2811786.61847  22624665.252    22624664.4314   22624672.2274
        -0.000          -0.000
  -3074459.711 9  -2371485.77845  24582105.146    24582104.1624   24582111.0794
        -0.000          -0.000
    724833.066 8    560776.70145  24625408.565    24625407.2754   24625415.7194
        -0.000          -0.000
 97  3 14 18 49 59.9990000  0  8 27  2 19 31 18  7 26 10            -0.000235748
  -1542871.377 9   -921149.68149  20200265.865    20200265.1174   20200271.1224
        -0.000          -0.000
  -1640160.528 9  -1265262.46949  21376591.718    21376590.7644   21376597.5054
        -0.000          -0.000
    454735.172 9    299608.23148  21255251.617    21255251.0164   21255257.7874
        -0.000          -0.000
   1765200.350 9   1238343.49446  23249894.232    23249893.5044   23249899.7074
        -0.000          -0.000
   2421501.125 9   1872668.69546  23525959.004    23525958.1484   23525965.5784
        -0.000          -0.000
  -3754712.471 9  -2907775.47947  22601223.904    22601222.9694   22601230.7394
        -0.000          -0.000
  -3189643.308 9  -2461239.23345  24560186.531    24560185.8374   24560192.4594
        -0.000          -0.000
    755819.375 8    584921.86545  24631304.564    24631303.7234   24631312.3334
        -0.000          -0.000
 97  3 14 18 50 29.9990000  0  8 27  2 19 31 18  7 26 10            -0.000251918
  -1588921.739 9   -957033.09049  20191502.844    20191502.1044   20191508.0934
        -0.000          -0.000
  -1690401.083 9  -1304410.94049  21367031.270    21367030.2734   21367037.0854
        -0.000          -0.000
    476228.244 9    316356.06048  21259341.625    21259341.0244   21259347.7444
        -0.000          -0.000
   1832072.898 9   1290451.92546  23262619.962    23262618.9954   23262625.3304
        -0.000          -0.000
   2507187.811 9   1939437.48546  23542264.883    23542264.0494   23542271.1624
        -0.000          -0.000
  -3877584.297 9  -3003519.70947  22577842.004    22577841.1764   22577848.9244
        -0.000          -0.000
  -3304525.859 9  -2550758.06845  24538325.001    24538324.2724   24538331.0064
        -0.000          -0.000
    787112.694 9    609306.18245  24637259.776    24637258.7804   24637267.2744
        -0.000          -0.000
 97  3 14 18 50 59.9990000  0  8 27  2 19 31 18  7 26 10            -0.000268014
  -1634536.550 9   -992577.10149  20182822.606    20182821.8534   20182827.8714
        -0.000          -0.000
  -1740336.986 9  -1343322.02449  21357528.776    21357527.8214   21357534.6234
        -0.000          -0.000
    498156.807 9    333443.22948  21263514.436    21263513.8564   21263520.5394
        -0.000          -0.000
   1899375.890 9   1342895.78446  23275427.287    23275426.3884   23275432.7454
        -0.000          -0.000
   2593106.857 9   2006387.33446  23558614.737    23558613.9614   23558621.0264
        -0.000          -0.000
  -4000129.713 9  -3099009.60447  22554522.226    22554521.5004   22554529.1314
        -0.000          -0.000
  -3419085.601 9  -2640025.37445  24516524.580    24516524.0644   24516531.0294
        -0.000          -0.000
    818746.451 8    633955.81445  24643279.423    24643278.4944   24643287.0434
        -0.000          -0.000
 97  3 14 18 51 29.9990000  0  8 27  2 19 31 18  7 26 10            -0.000284061
  -1679730.511 9  -1027793.17449  20174222.483    20174221.7674   20174227.8074
        -0.000          -0.000
  -1789980.431 9  -1382005.21749  21348082.029    21348081.0614   21348087.8104
        -0.000          -0.000
    520498.651 9    350852.43748  21267765.918    21267765.3524   21267772.1004
        -0.000          -0.000
   1967085.802 9   1395656.72846  23288312.122    23288311.2474   23288317.5604
        -0.000          -0.000
   2679216.056 9   2073485.34646  23575000.622    23575000.0284   23575007.1954
        -0.000          -0.000
  -4122387.964 9  -3194275.72847  22531256.992    22531256.4464   22531264.2134
        -0.000          -0.000
  -3533346.587 9  -2729059.89145  24494780.860    24494780.8764   24494787.8164
        -0.000          -0.000
    850686.360 9    658843.99045  24649357.166    24649356.2864   24649365.0014
        -0.000          -0.000
 97  3 14 18 51 59.9990000  0  8 27  2 19 31 18  7 26 10            -0.000300062
  -1724477.278 9  -1062660.77949  20165707.440    20165706.7524   20165712.8304
        -0.000          -0.000
  -1839336.167 9  -1420464.22149  21338690.014    21338689.0134   21338695.6714
        -0.000          -0.000
    543264.365 9    368591.93148  21272098.245    21272097.6034   21272104.3814
        -0.000          -0.000
   2035190.638 9   1448725.39746  23301271.877    23301271.0464   23301277.4704
        -0.000          -0.000
   2765522.597 9   2140737.13146  23591424.366    23591423.6874   23591430.8134
        -0.000          -0.000
  -4244374.095 9  -3289329.80347  22508043.877    22508043.2864   22508051.0644
        -0.000          -0.000
  -3647296.498 9  -2817852.01845  24473097.184    24473096.9574   24473103.7804
        -0.000          -0.000
    882907.889 9    683951.63545  24655488.722    24655487.9614   24655496.8784
        -0.000          -0.000
 97  3 14 18 52 29.9990000  0  7 27  2 19 31 18  7 26               -0.000316027
  -1768792.391 9  -1097192.03949  20157274.479    20157273.8604   20157279.8984
        -0.000          -0.000
  -1888412.106 9  -1458705.20149  21329351.184    21329350.1684   21329356.7914
        -0.000          -0.000
    566446.849 9    386656.17748  21276509.715    21276509.0994   21276515.9124
        -0.000          -0.000
   2103669.121 9   1502085.23146  23314302.709    23314302.0454   23314308.4834
        -0.000          -0.000
   2852006.828 9   2208127.38846  23607881.743    23607881.1444   23607888.3484
        -0.000          -0.000
  -4366097.136 9  -3384178.89147  22484880.927    22484880.1914   22484887.8254
        -0.000          -0.000
  -3760936.265 9  -2906402.46645  24451472.806    24451472.0784   24451478.7684
        -0.000          -0.000
 97  3 14 18 52 59.9990000  0  7 27  2 19 31 18  7 26               -0.000331962
  -1812673.739 9  -1131385.29149  20148924.219    20148923.5704   20148929.5574
        -0.000          -0.000
  -1937179.362 9  -1496705.65349  21320071.041    21320070.0134   21320076.6474
        -0.000          -0.000
    590039.630 9    405040.14648  21280999.298    21280998.6814   21281005.4724
        -0.000          -0.000
   2172540.800 9   1555751.42746  23327408.566    23327408.0214   23327414.4384
        -0.000          -0.000
   2938670.732 9   2275657.64746  23624373.178    23624372.6574   23624380.0084
        -0.000          -0.000
  -4487526.993 9  -3478799.49447  22461773.729    22461772.8584   22461780.4914
        -0.000          -0.000
  -3874224.504 9  -2994679.00445  24429914.587    24429914.0034   24429920.6404
        -0.000          -0.000
 97  3 14 18 53 29.9990000  0  8 27  2 19 31 18  7 26 15            -0.000347878
  -1856120.717 9  -1165240.07349  20140656.564    20140655.8844   20140661.8914
        -0.000          -0.000
  -1985649.548 9  -1534474.62749  21310847.322    21310846.3484   21310852.9894
        -0.000          -0.000
    614026.584 9    423731.25648  21285563.840    21285563.2814   21285569.9874
        -0.000          -0.000
   2241795.437 9   1609716.04846  23340587.784    23340586.8974   23340593.1934
        -0.000          -0.000
   3025497.669 9   2343314.93046  23640895.557    23640895.1894   23640902.8454
        -0.000          -0.000
  -4608652.190 9  -3573182.72247  22438724.590    22438723.5554   22438731.1804
        -0.000          -0.000
  -3987154.388 9  -3082676.32845  24408424.435    24408424.1794   24408430.6884
        -0.000          -0.000
  -3409474.74418  -2640998.34355  24453681.278    24453680.0505   24453688.5565
        -0.000          -0.000
 97  3 14 18 53 59.9990000  0  8 27  2 19 31 18  7 26 15            -0.000363722
  -1899166.316 9  -1198782.10149  20132465.269    20132464.6254   20132470.5744
        -0.000          -0.000
  -2033855.258 9  -1572037.50949  21301674.021    21301673.0894   21301679.7774
        -0.000          -0.000
    638379.174 9    442707.27448  21290198.133    21290197.5234   21290204.2134
        -0.000          -0.000
   2311410.531 9   1663961.56246  23353835.415    23353834.3174   23353840.6614
        -0.000          -0.000
   3112460.355 9   2411078.00046  23657444.101    23657443.6624   23657451.4004
        -0.000          -0.000
  -4729478.940 9  -3667333.39347  22415731.671    22415730.8524   22415738.5374
        -0.000          -0.000
  -4099748.830 9  -3170412.22945  24386998.717    24386998.2634   24387004.9214
        -0.000          -0.000
  -3497678.272 8  -2709728.32445  24436896.002    24436895.2194   24436903.9954
        -0.000          -0.000
 97  3 14 18 54 29.9990000  0  8 27  2 19 31 18  7 26 15            -0.000379513
  -1941817.959 9  -1232017.14449  20124348.915    20124348.3234   20124354.2634
        -0.000          -0.000
  -2081774.400 9  -1609377.08949  21292555.403    21292554.4314   21292561.1074
        -0.000          -0.000
    663092.605 9    461964.46848  21294901.079    21294900.4474   21294907.0424
        -0.000          -0.000
   2381402.723 9   1718500.91246  23367154.100    23367153.2774   23367159.7234
        -0.000          -0.000
   3199551.516 9   2478941.15546  23674017.118    23674016.5894   23674024.4744
        -0.000          -0.000
  -4849968.719 9  -3761221.49747  22392803.081    22392802.3754   22392809.9074
        -0.000          -0.000
  -4212003.992 9  -3257883.75345  24365637.507    24365636.8114   24365643.5094
        -0.000          -0.000
  -3585588.368 8  -2778229.65745  24420167.769    24420166.6714   24420175.5494
        -0.000          -0.000
 97  3 14 18 54 59.9990000  0  8 27  2 19 31 18  7 26 15            -0.000395247
  -1984057.543 9  -1264931.10249  20116310.986    20116310.3784   20116316.3714
        -0.000          -0.000
  -2129396.214 9  -1646484.97849  21283493.357    21283492.3554   21283499.0384
        -0.000          -0.000
    688166.617 9    481502.63648  21299672.379    21299671.8344   21299678.4364
        -0.000          -0.000
   2451783.498 9   1773343.02246  23380546.820    23380546.1954   23380552.6684
        -0.000          -0.000
   3286786.374 9   2546916.28346  23690617.487    23690616.8394   23690624.6924
        -0.000          -0.000
  -4970108.713 9  -3854837.02447  22369941.295    22369940.5134   22369948.0654
        -0.000          -0.000
  -4323912.529 9  -3345085.21245  24344341.959    24344341.4134   24344348.0394
        -0.000          -0.000
  -3673190.174 8  -2846490.72645  24403497.072    24403496.5324   24403505.4564
        -0.000          -0.000
 97  3 14 18 55 29.9990000  0  8 27  2 19 31 18  7 26 15            -0.000410939
  -2025887.508 9  -1297525.87949  20108350.949    20108350.3894   20108356.3364
        -0.000          -0.000
  -2176739.319 9  -1683375.70449  21274484.263    21274483.2824   21274489.9674
        -0.000          -0.000
    713599.490 9    501320.44748  21304512.117    21304511.5844   21304518.2464
        -0.000          -0.000
   2522529.984 9   1828470.10346  23394009.787    23394008.9244   23394015.3724
        -0.000          -0.000
   3374172.118 9   2615008.99946  23707246.738    23707245.9754   23707253.5204
        -0.000          -0.000
  -5089918.822 9  -3948195.50147  22347142.390    22347141.4564   22347148.9784
        -0.000          -0.000
  -4435512.798 9  -3432046.47345  24323104.989    24323104.6264   24323111.1544
        -0.000          -0.000
  -3760493.158 8  -2914518.97845  24386883.922    24386883.1824   24386892.3414
        -0.000          -0.000
 97  3 14 18 55 59.9990000  0  8 27  2 19 31 18  7 26 15            -0.000426609
  -2067339.780 9  -1329826.36049  20100462.901    20100462.3494   20100468.2544
        -0.000          -0.000
  -2223824.762 9  -1720065.64849  21265524.197    21265523.2154   21265529.9044
        -0.000          -0.000
    739359.678 9    521393.30248  21309414.130    21309413.5604   21309420.2834
        -0.000          -0.000
   2593608.297 9   1883855.75946  23407535.298    23407534.7414   23407541.2434
        -0.000          -0.000
   3461692.549 9   2683206.66646  23723901.658    23723900.7554   23723908.0884
        -0.000          -0.000
  -5209432.916 9  -4041323.32247  22324399.657    22324398.6514   22324406.1054
        -0.000          -0.000
  -4546840.554 9  -3518795.36545  24301920.184    24301919.6714   24301926.1914
        -0.000          -0.000
  -3847522.724 8  -2982334.11545  24370322.996    24370321.5774   24370330.8734
        -0.000          -0.000
 97  3 14 18 56 29.9990000  0  8 27  2 19 31 18  7 26 15            -0.000442229
  -2108365.368 9  -1361794.34749  20092655.981    20092655.4244   20092661.3544
        -0.000          -0.000
  -2270604.540 9  -1756517.42049  21256622.261    21256621.3074   21256628.0304
        -0.000          -0.000
    765493.387 9    541757.20848  21314387.298    21314386.6774   21314393.3324
        -0.000          -0.000
   2665059.760 9   1939532.21246  23421131.728    23421131.5284   23421138.1694
        -0.000          -0.000
   3549392.387 9   2751544.11046  23740590.469    23740589.6214   23740596.9644
        -0.000          -0.000
  -5328600.601 9  -4134181.22647  22301722.452    22301721.6694   22301729.2164
        -0.000          -0.000
  -4657845.151 9  -3605292.43845  24280796.788    24280796.3144   24280802.6724
        -0.000          -0.000
  -3934228.375 8  -3049896.89845  24353822.984    24353822.2104   24353831.3154
        -0.000          -0.000
 97  3 14 18 56 59.9990000  0  8 27  2 19 31 18  7 26 15            -0.000457814
  -2148990.033 9  -1393449.93749  20084925.386    20084924.8264   20084930.7384
        -0.000          -0.000
  -2317125.231 9  -1792767.29949  21247769.705    21247768.6764   21247775.3774
        -0.000          -0.000
    791980.044 9    562396.14148  21319427.548    21319426.9584   21319433.5934
        -0.000          -0.000
   2736856.246 9   1995477.48146  23434794.654    23434794.0004   23434800.7384
        -0.000          -0.000
   3637248.454 9   2820003.31946  23757309.017    23757308.1784   23757315.6784
        -0.000          -0.000
  -5447457.765 9  -4226797.14747  22279104.572    22279103.8774   22279111.4444
        -0.000          -0.000
  -4768554.734 9  -3691559.63145  24259729.487    24259728.9394   24259735.2624
        -0.000          -0.000
  -4020635.914 8  -3117227.37745  24337380.449    24337379.4634   24337388.5914
        -0.000          -0.000
 97  3 14 18 57 29.9990000  0  8 27  2 19 31 18  7 26 15            -0.000473360
  -2189213.762 9  -1424793.10449  20077271.077    20077270.5054   20077276.3834
        -0.000          -0.000
  -2363388.907 9  -1828816.91149  21238965.996    21238965.0004   21238971.6994
        -0.000          -0.000
    818831.256 9    583319.14448  21324537.180    21324536.5914   21324543.3184
        -0.000          -0.000
   2808998.240 9   2051691.97146  23448523.045    23448522.1164   23448528.9714
        -0.000          -0.000
   3725263.928 9   2888586.71146  23774057.768    23774057.0034   23774064.7834
        -0.000          -0.000
  -5565997.354 9  -4319165.61347  22256547.295    22256546.5234   22256554.0524
        -0.000          -0.000
  -4878953.782 9  -3777584.81645  24238721.004    24238720.5024   24238727.1794
        -0.000          -0.000
  -4106738.763 8  -3184320.38545  24320995.873    24320994.4364   24321003.8594
        -0.000          -0.000
 97  3 14 18 57 59.9990000  0  8 27  2 19 31 18  7 26 15            -0.000488846
  -2229023.285 9  -1455813.51549  20069695.588    20069695.0094   20069700.9114
        -0.000          -0.000
  -2409385.286 9  -1864658.24949  21230213.186    21230212.1704   21230218.8614
        -0.000          -0.000
    846062.659 9    604538.38548  21329719.182    21329718.5834   21329725.2254
        -0.000          -0.000
   2881518.105 9   2108200.92546  23462322.858    23462322.1834   23462328.9954
        -0.000          -0.000
   3813432.979 9   2957289.79046  23790835.818    23790835.0184   23790842.9314
        -0.000          -0.000
  -5684190.030 9  -4411263.75547  22234055.923    22234055.1844   22234062.8004
        -0.000          -0.000
  -4988997.492 9  -3863333.13345  24217780.122    24217779.9194   24217786.6384
        -0.000          -0.000
  -4192515.297 8  -3251159.16745  24304672.887    24304671.8164   24304681.0454
        -0.000          -0.000
 97  3 14 18 58 29.9990000  0  8 27  2 19 31 18  7 26 15            -0.000504284
  -2268425.248 9  -1486516.34649  20062197.739    20062197.1204   20062202.9584
        -0.000          -0.000
  -2455144.974 9  -1900315.15049  21221505.445    21221504.4184   21221511.0644
        -0.000          -0.000
    873668.798 9    626049.64948  21334972.541    21334971.9264   21334978.4564
        -0.000          -0.000
   2954396.324 9   2164989.12046  23476191.108    23476190.4724   23476197.1704
        -0.000          -0.000
   3901726.444 9   3026089.83846  23807637.376    23807636.7664   23807644.6534
        -0.000          -0.000
  -5802056.700 9  -4503107.88047  22211626.589    22211625.8524   22211633.4874
        -0.000          -0.000
  -5098692.999 9  -3948810.13345  24196905.701    24196905.4614   24196912.1884
        -0.000          -0.000
  -4277984.890 8  -3317758.79545  24288408.364    24288407.4554   24288416.7454
        -0.000          -0.000
 97  3 14 18 58 59.9990000  0  8 27  2 19 31 18  7 26 15            -0.000519680
  -2307410.005 9  -1516894.08749  20054779.195    20054778.5864   20054784.4224
        -0.000          -0.000
  -2500676.374 9  -1935794.16449  21212841.015    21212840.0464   21212846.6634
        -0.000          -0.000
    901643.478 9    647848.07148  21340295.879    21340295.3114   21340301.9254
        -0.000          -0.000
   3027617.266 9   2222044.34646  23490124.833    23490123.9364   23490130.6114
        -0.000          -0.000
   3990139.660 9   3094983.17746  23824461.647    23824461.1994   23824469.2844
        -0.000          -0.000
  -5919628.600 9  -4594722.31647  22189253.342    22189252.6104   22189260.1414
        -0.000          -0.000
  -5208031.066 8  -4034008.57845  24176099.005    24176098.8954   24176105.8154
        -0.000          -0.000
  -4363152.154 9  -3384122.82845  24272201.597    24272200.8154   24272209.8244
        -0.000          -0.000
 97  3 14 18 59 29.9990000  0  8 27  2 19 31 18  7 26 15            -0.000535027
  -2345931.018 9  -1546910.45749  20047448.938    20047448.3304   20047454.1734
        -0.000          -0.000
  -2545942.341 9  -1971066.33649  21204227.268    21204226.2894   21204232.8714
        -0.000          -0.000
    930003.856 9    669947.04748  21345692.738    21345692.1554   21345698.7714
        -0.000          -0.000
   3101195.913 9   2279378.32246  23504126.215    23504125.5734   23504132.2854
        -0.000          -0.000
   4078687.003 9   3163981.05046  23841311.405    23841311.2134   23841319.4124
        -0.000          -0.000
  -6036893.372 9  -4686097.41847  22166938.700    22166937.8784   22166945.3494
        -0.000          -0.000
  -5316983.298 9  -4118906.41345  24155365.653    24155365.8494   24155372.5944
        -0.000          -0.000
  -4447991.520 9  -3450231.36846  24256057.174    24256056.3824   24256065.4624
        -0.000          -0.000
 97  3 14 18 59 59.9990000  0  8 27  2 19 31 18  7 26 15            -0.000550345
  -2384008.268 9  -1576581.03949  20040203.080    20040202.4674   20040208.3164
        -0.000          -0.000
  -2590954.427 9  -2006140.68749  21195661.871    21195660.8494   21195667.4394
        -0.000          -0.000
    958724.340 9    692326.62648  21351158.192    21351157.5514   21351164.1294
        -0.000          -0.000
   3175104.107 9   2336969.09546  23518190.223    23518189.8364   23518196.6244
        -0.000          -0.000
   4167331.244 9   3233054.41046  23858179.894    23858179.6954   23858188.0074
        -0.000          -0.000
  -6153883.169 9  -4777258.26247  22144676.299    22144675.4114   22144682.8794
        -0.000          -0.000
  -5425577.420 9  -4203525.16045  24134701.068    24134701.0054   24134707.8164
        -0.000          -0.000
  -4532527.118 9  -3516103.20946  24239970.819    24239969.8584   24239978.9214
        -0.000          -0.000
 97  3 14 19  0 29.9990000  0  8 27  2 19 31 18  7 26 15            -0.000565631
  -2421631.913 9  -1605898.16649  20033043.547    20033042.9534   20033048.8404
        -0.000          -0.000
  -2635685.451 9  -2040996.02549  21187149.768    21187148.8124   21187155.4454
        -0.000          -0.000
    987824.865 9    715002.32548  21356695.734    21356695.2274   21356701.7834
        -0.000          -0.000
   3249343.958 9   2394818.30346  23532317.599    23532317.1664   23532324.1534
        -0.000          -0.000
   4256085.100 9   3302213.18346  23875069.233    23875069.0744   23875077.3584
        -0.000          -0.000
  -6270579.725 9  -4868190.61247  22122469.520    22122468.7544   22122476.3024
        -0.000          -0.000
  -5533803.921 9  -4287857.46446  24114106.373    24114106.2714   24114113.2744
        -0.000          -0.000
  -4616741.910 9  -3581725.07846  24223945.238    24223944.3124   24223953.2834
        -0.000          -0.000
 97  3 14 19  0 59.9990000  0  8 27  2 19 31 18  7 26 15            -0.000580876
  -2458824.050 9  -1634879.04949  20025966.120    20025965.5034   20025971.4144
        -0.000          -0.000
  -2680127.976 9  -2075626.55549  21178692.689    21178691.6674   21178698.3364
        -0.000          -0.000
   1017305.061 9    737973.87548  21362305.749    21362305.1644   21362311.6704
        -0.000          -0.000
   3323925.095 9   2452933.41745  23546510.247    23546509.3814   23546516.6014
        -0.000          -0.000
   4344947.258 9   3371456.35946  23891979.445    23891979.0674   23891987.3174
        -0.000          -0.000
  -6386969.638 9  -4958884.02047  22100321.145    22100320.4264   22100328.0254
        -0.000          -0.000
  -5641665.327 9  -4371905.28046  24093581.283    24093581.0604   24093588.0944
        -0.000          -0.000
  -4700627.247 9  -3647090.22446  24207982.394    24207981.4734   24207990.3044
        -0.000          -0.000
 97  3 14 19  1 29.9990000  0  8 27  2 19 31 18  7 26 15            -0.000596083
  -2495620.243 9  -1663551.40049  20018964.024    20018963.3704   20018969.3184
        -0.000          -0.000
  -2724280.129 9  -2110030.82149  21170290.727    21170289.7234   21170296.4884
        -0.000          -0.000
   1047166.162 9    761242.25148  21367988.123    21367987.5204   21367994.0604
        -0.000          -0.000
   3398842.116 9   2511310.26545  23560766.494    23560765.5514   23560772.8714
        -0.000          -0.000
   4433912.910 9   3440780.16945  23908909.484    23908908.6674   23908916.7034
        -0.000          -0.000
  -6503032.886 9  -5049322.87447  22078235.229    22078234.3574   22078241.9574
        -0.000          -0.000
  -5749183.291 9  -4455685.44846  24073121.554    24073121.1954   24073128.1174
        -0.000          -0.000
  -4784182.783 9  -3712198.37046  24192082.292    24192081.4004   24192090.0384
        -0.000          -0.000
 97  3 14 19  1 59.9990000  0  8 27  2 19 31 18  7 26 15            -0.000611259
  -2532067.703 9  -1691952.02849  20012028.272    20012027.6414   20012033.5934
        -0.000          -0.000
  -2768180.911 9  -2144239.20949  21161936.585    21161935.6074   21161942.4194
        -0.000          -0.000
   1077390.171 9    784793.39648  21373739.483    21373738.9484   21373745.5244
        -0.000          -0.000
   3474064.519 9   2569925.10245  23575081.048    23575080.0714   23575087.2704
        -0.000          -0.000
   4522961.803 9   3510168.85345  23925855.076    23925854.2054   23925862.0674
        -0.000          -0.000
  -6618773.855 9  -5139510.60547  22056210.528    22056209.5744   22056217.2014
        -0.000          -0.000
  -5856375.869 8  -4539212.07745  24052723.509    24052722.9374   24052729.8744
        -0.000          -0.000
  -4867426.062 9  -3777063.22146  24176241.570    24176240.6374   24176249.4244
        -0.000          -0.000
 97  3 14 19  2 29.9990000  0  8 27  2 19 31 18  7 26 15            -0.000626399
  -2568166.930 9  -1720081.29449  20005158.868    20005158.1674   20005164.1454
        -0.000          -0.000
  -2811845.228 9  -2178263.33949  21153627.508    21153626.5694   21153633.3324
        -0.000          -0.000
   1107969.540 9    808621.44348  21379558.660    21379558.0704   21379564.6934
        -0.000          -0.000
   3549588.222 9   2628774.70345  23589452.904    23589451.9624   23589458.7244
        -0.000          -0.000
   4612097.785 9   3579625.39845  23942817.263    23942816.2934   23942824.1254
        -0.000          -0.000
  -6734182.342 9  -5229439.26847  22034249.016    22034248.0474   22034255.6344
        -0.000          -0.000
  -5963239.088 8  -4622482.09046  24032387.504    24032387.4044   24032394.4354
        -0.000          -0.000
  -4950350.446 9  -3841679.58046  24160461.575    24160460.5914   24160469.3994
        -0.000          -0.000
 97  3 14 19  2 59.9990000  0  8 27  2 19 31 18  7 26 15            -0.000641499
  -2603887.072 9  -1747915.17149  19998361.511    19998360.8734   19998366.8204
        -0.000          -0.000
  -2855276.536 9  -2212105.90749  21145362.806    21145361.9004   21145368.5884
        -0.000          -0.000
   1138896.705 9    832720.51048  21385444.030    21385443.3664   21385449.9844
        -0.000          -0.000
   3625406.400 9   2687853.76845  23603880.865    23603879.7844   23603886.3744
        -0.000          -0.000
   4701334.429 9   3649160.36745  23959798.624    23959797.5374   23959805.5104
        -0.000          -0.000
  -6849255.948 9  -5319106.97847  22012351.002    22012350.2474   22012357.8274
        -0.000          -0.000
  -6069764.920 9  -4705489.19846  24012116.144    24012116.2474   24012123.1764
        -0.000          -0.000
  -5032948.030 9  -3906041.29445  24144743.946    24144742.8714   24144751.4904
        -0.000          -0.000
 97  3 14 19  3 29.9990000  0  8 27  2 19 31 18  7 26 15            -0.000656572
  -2639199.957 9  -1775431.70149  19991641.783    19991641.1054   19991647.0194
        -0.000          -0.000
  -2898482.144 9  -2245772.60749  21137141.283    21137140.2924   21137146.8584
        -0.000          -0.000
   1170157.434 9    857079.49548  21391392.695    21391392.0584   21391398.6944
        -0.000          -0.000
   3701495.829 9   2747144.17746  23618360.053    23618359.2504   23618365.8154
        -0.000          -0.000
   4790654.544 9   3718760.37445  23976795.509    23976794.5504   23976802.7294
        -0.000          -0.000
  -6963988.825 9  -5408509.18947  21990518.122    21990517.3024   21990524.8654
        -0.000          -0.000
  -6175953.895 9  -4788233.82546  23991909.029    23991909.1574   23991916.1554
        -0.000          -0.000
  -5115222.538 9  -3970151.23045  24129087.370    24129086.5224   24129094.8844
        -0.000          -0.000
 97  3 14 19  3 59.9990000  0  8 27  2 19 31 18  7 26 15            -0.000671614
  -2674078.064 9  -1802609.44549  19985004.636    19985004.0294   19985009.9024
        -0.000          -0.000
  -2941466.750 9  -2279267.09149  21128961.568    21128960.6254   21128967.1154
        -0.000          -0.000
   1201749.949 9    881697.01548  21397404.576    21397403.9754   21397410.6094
        -0.000          -0.000
   3777873.311 9   2806659.06146  23632893.879    23632893.3694   23632900.1174
        -0.000          -0.000
   4880053.095 9   3788421.50045  23993807.209    23993806.5344   23993814.8154
        -0.000          -0.000
  -7078362.203 9  -5497631.26447  21968753.645    21968752.7394   21968760.3044
        -0.000          -0.000
  -6281792.326 9  -4870705.27446  23971768.878    23971768.7104   23971775.8634
        -0.000          -0.000
  -5197165.238 9  -4034002.65345  24113493.861    24113493.1364   24113501.7824
        -0.000          -0.000
 97  3 14 19  4 29.9990000  0  8 27  2 19 31 18  7 26 15            -0.000686631
  -2708505.843 9  -1829436.29649  19978453.342    19978452.6554   19978458.5094
        -0.000          -0.000
  -2984214.133 9  -2312576.72949  21120827.125    21120826.1064   21120832.5714
        -0.000          -0.000
   1233670.315 9    906569.99348  21403478.951    21403478.2304   21403484.8744
        -0.000          -0.000
   3854542.710 9   2866401.40446  23647483.310    23647483.0984   23647489.8794
        -0.000          -0.000
   4969532.392 9   3858145.55745  24010834.368    24010833.7964   24010842.0884
        -0.000          -0.000
  -7192371.606 9  -5586469.73447  21947058.450    21947057.4984   21947064.9664
        -0.000          -0.000
  -6387291.810 9  -4952912.63946  23951693.394    23951692.9584   23951700.0264
        -0.000          -0.000
  -5278776.596 9  -4097595.86945  24097963.941    24097962.9584   24097971.7044
        -0.000          -0.000
 97  3 14 19  4 59.9990000  0  8 27  2 19 31 18  7 26 15            -0.000701620
  -2742472.123 9  -1855903.52549  19971989.707    19971989.0604   19971994.9394
        -0.000          -0.000
  -3026717.487 9  -2345696.20849  21112738.904    21112737.9264   21112744.5024
        -0.000          -0.000
   1265940.130 9    931715.27848  21409619.595    21409618.9794   21409625.6324
        -0.000          -0.000
   3931513.721 9   2926378.77446  23662130.674    23662130.1684   23662137.0464
        -0.000          -0.000
   5059103.037 9   3927940.79446  24027878.980    24027878.6464   24027886.8904
        -0.000          -0.000
  -7306001.080 9  -5675012.15147  21925435.334    21925434.4584   21925441.9984
        -0.000          -0.000
  -6492451.963 9  -5034855.58246  23931682.130    23931681.6324   23931688.7274
        -0.000          -0.000
  -5360047.532 8  -4160923.82945  24082498.702    24082497.6954   24082506.2544
        -0.000          -0.000
 97  3 14 19  5 29.9990000  0  8 27  2 19 31 18  7 26 15            -0.000716583
  -2776005.993 9  -1882033.81649  19965608.438    19965607.8374   19965613.7164
        -0.000          -0.000
  -3068973.018 9  -2378622.57949  21104697.880    21104696.8634   21104703.5284
        -0.000          -0.000
   1298571.147 9    957142.02148  21415829.135    21415828.5004   21415835.1044
        -0.000          -0.000
   4008793.521 9   2986596.75146  23676836.918    23676836.1974   23676843.1564
        -0.000          -0.000
   5148755.199 9   3997799.54246  24044939.558    24044939.0454   24044947.2494
        -0.000          -0.000
  -7419250.480 9  -5763258.41347  21903884.505    21903883.7474   21903891.2834
        -0.000          -0.000
  -6597283.064 9  -5116542.11146  23911733.477    23911732.9024   23911739.9744
        -0.000          -0.000
  -5440975.360 8  -4223984.41445  24067098.519    24067097.3054   24067105.9314
        -0.000          -0.000
 97  3 14 19  5 59.9990000  0  8 27  2 19 31 18  7 26 15            -0.000731510
  -2809110.527 9  -1907829.56149  19959308.913    19959308.2784   19959314.1534
        -0.000          -0.000
  -3110982.115 9  -2411356.92449  21096703.720    21096702.7274   21096709.4064
        -0.000          -0.000
   1331575.928 9    982860.00748  21422109.821    21422109.1324   21422115.7744
        -0.000          -0.000
   4086386.314 9   3047058.63746  23691602.154    23691601.5764   23691608.6514
        -0.000          -0.000
   5238523.035 9   4067748.41746  24062021.870    24062021.3794   24062029.6354
        -0.000          -0.000
  -7532141.577 9  -5851225.47647  21882402.148    21882401.2694   21882408.7564
        -0.000          -0.000
  -6701779.177 9  -5197967.63746  23891848.134    23891847.9784   23891855.0014
        -0.000          -0.000
  -5521550.796 8  -4286770.40345  24051765.227    24051764.0404   24051772.7184
        -0.000          -0.000
 97  3 14 19  6 29.9990000  0  8 27  2 19 31 18  7 26 15            -0.000746412
  -2841793.753 9  -1933297.02149  19953089.565    19953088.8644   19953094.7584
        -0.000          -0.000
  -3152759.945 9  -2443911.06749  21088753.590    21088752.6304   21088759.3384
        -0.000          -0.000
   1364947.606 9   1008863.88248  21428460.210    21428459.5764   21428466.2614
        -0.000          -0.000
   4164255.352 9   3107735.79246  23706419.911    23706419.6174   23706426.4884
        -0.000          -0.000
   5328394.061 9   4137777.70346  24079124.034    24079123.3904   24079131.6594
        -0.000          -0.000
  -7644710.360 9  -5938941.38847  21860980.970    21860980.1784   21860987.6294
        -0.000          -0.000
  -6805940.133 9  -5279131.97146  23872026.674    23872026.6904   23872033.8254
        -0.000          -0.000
  -5601785.453 8  -4349290.86445  24036497.181    24036495.9314   24036504.6794
        -0.000          -0.000
 97  3 14 19  6 59.9990000  0  8 27  2 19 31 18  7 26 15            -0.000761290
  -2874082.924 9  -1958457.41749  19946945.045    19946944.3984   19946950.3564
        -0.000          -0.000
  -3194326.084 9  -2476300.25949  21080843.904    21080842.9064   21080849.5464
        -0.000          -0.000
   1398671.670 9   1035142.35348  21434877.696    21434877.0434   21434883.7294
        -0.000          -0.000
   4242383.202 9   3168614.60146  23721287.235    23721286.8654   23721293.5944
        -0.000          -0.000
   5418335.391 9   4207861.77046  24096239.560    24096238.7314   24096247.0294
        -0.000          -0.000
  -7756988.980 9  -6026431.21347  21839615.011    21839614.2504   21839621.6794
        -0.000          -0.000
  -6909754.625 9  -5360026.33046  23852271.502    23852271.4964   23852278.4234
        -0.000          -0.000
  -5681687.701 8  -4411552.34545  24021292.077    24021290.8474   24021299.9344
        -0.000          -0.000
 97  3 14 19  7 29.9990000  0  8 27  2 19 31 18  7 26 15            -0.000776134
  -2905970.533 9  -1983304.90649  19940877.053    19940876.4084   19940882.3604
        -0.000          -0.000
  -3235661.594 9  -2508509.73549  21072978.016    21072977.0714   21072983.6384
        -0.000          -0.000
   1432755.379 9   1061701.07048  21441363.509    21441362.9534   21441369.6214
        -0.000          -0.000
   4320774.747 9   3229698.88346  23736204.926    23736204.1984   23736210.9204
        -0.000          -0.000
   5508354.318 9   4278006.31046  24113369.792    24113368.9324   24113377.1584
        -0.000          -0.000
  -7868978.218 9  -6113695.51447  21818304.156    21818303.3634   21818310.8854
        -0.000          -0.000
  -7013190.219 9  -5440625.47146  23832588.721    23832588.4324   23832595.0794
        -0.000          -0.000
  -5761244.518 8  -4473544.64145  24006152.947    24006151.8464   24006160.4794
        -0.000          -0.000
 97  3 14 19  7 59.9990000  0  8 27  2 19 31 18  7 26 15            -0.000790934
  -2937444.533 9  -2007830.10649  19934887.823    19934887.1254   19934893.0994
        -0.000          -0.000
  -3276771.977 9  -2540543.78449  21065155.061    21065154.0974   21065160.6764
        -0.000          -0.000
   1467198.728 9   1088540.01248  21447917.934    21447917.3864   21447924.0354
        -0.000          -0.000
   4399429.183 9   3290988.02146  23751172.226    23751171.5964   23751178.4324
        -0.000          -0.000
   5598450.766 9   4348211.24646  24130514.903    24130513.8534   24130522.0804
        -0.000          -0.000
  -7980665.740 9  -6200724.72947  21797050.791    21797049.9374   21797057.4234
        -0.000          -0.000
  -7116217.812 9  -5520906.69046  23812983.410    23812983.0144   23812989.4554
        -0.000          -0.000
  -5840450.906 8  -4535263.83645  23991080.709    23991079.5124   23991087.9884
        -0.000          -0.000
 97  3 14 19  8 29.9990000  0  8 27  2 19 31 18  7 26 15            -0.000805693
  -2968517.284 9  -2032042.63949  19928974.872    19928974.1684   19928980.0754
        -0.000          -0.000
  -3317649.121 9  -2572396.09049  21057376.377    21057375.4034   21057381.9984
        -0.000          -0.000
   1502000.278 9   1115658.08248  21454540.553    21454539.9514   21454546.6484
        -0.000          -0.000
   4478355.958 9   3352489.37446  23766191.562    23766191.0284   23766197.7624
        -0.000          -0.000
   5688582.198 9   4418443.42946  24147666.218    24147665.2994   24147673.6154
        -0.000          -0.000
  -8092022.527 9  -6287496.23047  21775860.259    21775859.4064   21775866.8464
        -0.000          -0.000
  -7218827.940 9  -5600862.61146  23793457.567    23793456.9534   23793463.5134
        -0.000          -0.000
  -5919305.228 8  -4596708.72345  23976075.095    23976073.8404   23976082.5454
        -0.000          -0.000
 97  3 14 19  8 59.9990000  0  8 27  2 19 31 18  7 26 15            -0.000820404
  -2999189.011 9  -2055942.69049  19923138.296    19923137.5594   19923143.4644
        -0.000          -0.000
  -3358280.118 9  -2604056.60349  21049644.536    21049643.5354   21049650.1444
        -0.000          -0.000
   1537166.426 9   1143060.25148  21461232.460    21461231.8484   21461238.5494
        -0.000          -0.000
   4557577.344 9   3414220.30845  23781267.532    23781266.5614   23781273.1924
        -0.000          -0.000
   5778753.319 9   4488706.58446  24164825.360    24164824.4994   24164832.7044
        -0.000          -0.000
  -8203025.920 9  -6373992.36147  21754737.012    21754736.2094   21754743.5844
        -0.000          -0.000
  -7321024.698 9  -5680496.41346  23774010.022    23774009.5754   23774016.2864
        -0.000          -0.000
  -5997796.032 8  -4657870.35945  23961138.281    23961137.3404   23961146.2434
        -0.000          -0.000
 97  3 14 19  9 29.9990000  0  8 27  2 19 31 18  7 26 15            -0.000835085
  -3029456.365 9  -2079527.64649  19917378.518    19917377.8264   19917383.7544
        -0.000          -0.000
  -3398684.387 9  -2635540.44149  21041955.770    21041954.8084   21041961.4644
        -0.000          -0.000
   1572685.039 9   1170737.06748  21467991.398    21467990.7494   21467997.5524
        -0.000          -0.000
   4637074.190 9   3476165.84345  23796395.682    23796394.3994   23796400.9674
        -0.000          -0.000
   5868955.590 8   4558993.96245  24181990.004    24181989.5074   24181997.8414
        -0.000          -0.000
  -8313670.077 9  -6460208.56647  21733682.122    21733681.2864   21733688.7324
        -0.000          -0.000
  -7422844.082 9  -5759836.16846  23754634.314    23754634.0304   23754640.8584
        -0.000          -0.000
  -6075933.837 8  -4718756.91545  23946269.289    23946268.0134   23946276.8784
        -0.000          -0.000
 97  3 14 19  9 59.9990000  0  8 27  2 19 31 18  7 26 15            -0.000849745
  -3059303.469 9  -2102785.14049  19911698.829    19911698.1684   19911704.0644
        -0.000          -0.000
  -3438860.368 9  -2666846.38849  21034310.513    21034309.5514   21034316.2164
        -0.000          -0.000
   1608546.337 9   1198680.91448  21474815.713    21474814.9954   21474821.8324
        -0.000          -0.000
   4716847.620 9   3538326.91545  23811576.000    23811574.8494   23811581.4774
        -0.000          -0.000
   5959184.262 8   4629301.93045  24199159.678    24199159.3304   24199167.8254
        -0.000          -0.000
  -8423947.260 9  -6546138.82648  21712697.123    21712696.2834   21712703.7144
        -0.000          -0.000
  -7524314.005 9  -5838903.61246  23735324.857    23735324.8274   23735331.6874
        -0.000          -0.000
  -6153710.652 8  -4779362.14145  23931469.067    23931467.9594   23931476.4174
        -0.000          -0.000
 97  3 14 19 10 29.9990000  0  8 27  2 19 31 18  7 26 15            -0.000864409
  -3088731.845 9  -2125716.34549  19906098.836    19906098.1654   19906104.0314
        -0.000          -0.000
  -3478811.457 9  -2697977.09249  21026708.131    21026707.1734   21026713.7274
        -0.000          -0.000
   1644728.151 9   1226874.50448  21481700.919    21481700.2194   21481707.0424
        -0.000          -0.000
   4796876.797 8   3600687.27845  23826804.577    23826803.7084   23826810.5184
        -0.000          -0.000
   6049427.831 8   4699621.49845  24216332.078    24216331.8434   24216340.2614
        -0.000          -0.000
  -8533881.649 9  -6631801.96448  21691777.340    21691776.4454   21691783.8034
        -0.000          -0.000
  -7625484.349 9  -5917737.62746  23716073.008    23716072.7644   23716079.3194
        -0.000          -0.000
  -6231137.720 8  -4839694.84845  23916734.800    23916733.8004   23916742.4124
        -0.000          -0.000
 97  3 14 19 10 59.9990000  0  8 27  2 19 31 18  7 26 15            -0.000879079
  -3117724.808 9  -2148308.27749  19900581.664    19900581.0144   19900586.8244
        -0.000          -0.000
  -3518530.451 9  -2728926.94249  21019149.886    21019148.9264   21019155.4514
        -0.000          -0.000
   1681228.683 9   1255316.45448  21488646.661    21488646.0104   21488652.7254
        -0.000          -0.000
   4877145.079 8   3663233.95345  23842078.461    23842078.0834   23842085.1754
        -0.000          -0.000
   6139709.741 8   4769970.94745  24233511.911    24233511.9894   24233520.0464
        -0.000          -0.000
  -8643477.721 9  -6717201.48048  21670921.896    21670921.0244   21670928.3574
        -0.000          -0.000
  -7726368.016 9  -5996348.27046  23696875.543    23696875.3354   23696881.7044
        -0.000          -0.000
  -6308207.349 8  -4899749.08745  23902068.793    23902068.0634   23902076.4354
        -0.000          -0.000
 97  3 14 19 11 29.9990000  0  8 27  2 19 31 18  7 26 15            -0.000893754
  -3146279.232 9  -2170558.47949  19895147.915    19895147.2864   19895153.0834
        -0.000          -0.000
  -3558018.155 9  -2759696.57049  21011635.661    21011634.6984   21011641.2094
        -0.000          -0.000
   1718040.729 9   1284001.13148  21495651.768    21495651.1304   21495657.8764
        -0.000          -0.000
   4957630.890 8   3725950.10045  23857394.375    23857393.9504   23857401.2234
        -0.000          -0.000
   6230032.553 8   4840352.22045  24250700.018    24250700.0094   24250707.9094
        -0.000          -0.000
  -8752737.112 9  -6802338.63448  21650130.453    21650129.6474   21650136.9904
        -0.000          -0.000
  -7826956.810 9  -6074729.12246  23677734.420    23677733.9064   23677740.3304
        -0.000          -0.000
  -6384921.777 8  -4959526.50145  23887470.797    23887470.0484   23887478.0484
        -0.000          -0.000
 97  3 14 19 11 59.9990000  0  8 27  2 19 31 18  7 26 15            -0.000908426
  -3174395.107 9  -2192466.96449  19889797.736    19889797.0804   19889802.8704
        -0.000          -0.000
  -3597276.581 9  -2790287.54449  21004165.049    21004164.0904   21004170.5894
        -0.000          -0.000
   1755170.485 9   1312933.38748  21502717.271    21502716.7394   21502723.5844
        -0.000          -0.000
   5038335.326 9   3788836.62045  23872752.344    23872751.4584   23872758.7224
        -0.000          -0.000
   6320398.870 8   4910767.47845  24267896.049    24267896.2634   24267904.1694
        -0.000          -0.000
  -8861658.066 9  -6887212.09348  21629403.458    21629402.6564   21629409.9594
        -0.000          -0.000
  -7927220.576 9  -6152856.70046  23658654.900    23658654.2244   23658660.7854
        -0.000          -0.000
  -6461274.830 8  -5019022.35345  23872941.556    23872940.5374   23872948.6054
        -0.000          -0.000
 97  3 14 19 12 29.9990000  0  8 27  2 19 31 18  7 26 15            -0.000923068
  -3202071.166 9  -2214032.73249  19884531.194    19884530.5064   19884536.2914
        -0.000          -0.000
  -3636303.257 9  -2820697.92849  20996738.512    20996737.5314   20996744.0614
        -0.000          -0.000
   1792638.415 9   1342129.15248  21509847.217    21509846.6834   21509853.6854
        -0.000          -0.000
   5119261.083 9   3851895.63045  23888152.481    23888151.2774   23888158.2504
        -0.000          -0.000
   6410818.651 9   4981224.38345  24285102.717    24285102.8134   24285110.5284
        -0.000          -0.000
  -8970219.889 9  -6971805.69548  21608744.772    21608743.9784   21608751.2964
        -0.000          -0.000
  -8027096.180 9  -6230681.83846  23639648.950    23639648.5824   23639654.9294
        -0.000          -0.000
  -6537252.401 9  -5078225.64445  23858483.170    23858482.2674   23858490.7894
        -0.000          -0.000
 97  3 14 19 12 59.9990000  0  8 27  2 19 31 18  7 26 15            -0.000937664
  -3229303.928 9  -2235253.07049  19879348.933    19879348.2044   19879354.0704
        -0.000          -0.000
  -3675093.581 9  -2850924.15049  20989356.914    20989355.9114   20989362.4744
        -0.000          -0.000
   1830466.212 9   1371605.32748  21517045.733    21517045.1104   21517052.0714
        -0.000          -0.000
   5200413.901 8   3915131.57045  23903595.111    23903594.2454   23903600.9954
        -0.000          -0.000
   6501296.578 9   5051726.60545  24302320.591    24302320.3744   24302328.1754
        -0.000          -0.000
  -9078401.628 9  -7056103.13248  21588158.513    21588157.7294   21588165.0124
        -0.000          -0.000
  -8126533.435 9  -6308165.39046  23620726.633    23620726.3814   23620732.4784
        -0.000          -0.000
  -6612844.396 9  -5137128.47345  23844098.759    23844097.6654   23844106.0314
        -0.000          -0.000
 97  3 14 19 13 29.9990000  0  8 27  2 19 31 18  7 26 15            -0.000952216
  -3256101.508 9  -2256134.31249  19874249.508    19874248.7944   19874254.6964
        -0.000          -0.000
  -3713680.570 9  -2880991.91849  20982014.004    20982013.0254   20982019.6224
        -0.000          -0.000
   1868650.944 9   1401359.63948  21524312.039    21524311.4594   21524318.2944
        -0.000          -0.000
   5281791.343 9   3978542.52745  23919080.517    23919079.9354   23919086.7504
        -0.000          -0.000
   6591805.630 9   5122253.04645  24319544.158    24319543.8004   24319551.6904
        -0.000          -0.000
  -9186209.203 9  -7140109.00548  21567643.363    21567642.5924   21567649.8754
        -0.000          -0.000
  -8225523.251 9  -6385300.28846  23601889.669    23601889.1734   23601895.2704
        -0.000          -0.000
  -6688062.008 9  -5195739.54845  23829785.458    23829784.1234   23829792.5154
        -0.000          -0.000
 97  3 14 19 13 59.9990000  0  8 27  2 19 31 18  7 26 15            -0.000966729
  -3282463.868 9  -2276676.42349  19869232.960    19869232.2174   19869238.0974
        -0.000          -0.000
  -3752069.618 9  -2910905.45449  20974708.812    20974707.8424   20974714.4174
        -0.000          -0.000
   1907198.846 9   1431396.93647  21531647.498    21531646.8814   21531653.7164
        -0.000          -0.000
   5363399.703 9   4042133.43045  23934610.250    23934609.7144   23934616.4464
        -0.000          -0.000
   6682331.666 9   5192792.73945  24336770.769    24336770.5844   24336778.2964
        -0.000          -0.000
  -9293653.119 9  -7223831.51948  21547197.634    21547196.7364   21547203.9854
        -0.000          -0.000
  -8324071.513 9  -6462091.09646  23583136.390    23583135.8254   23583142.3464
        -0.000          -0.000
  -6762901.476 9  -5254055.99545  23815543.676    23815542.5934   23815551.1204
        -0.000          -0.000
 97  3 14 19 14 29.9990000  0  8 27  2 19 31 18  7 26 15            -0.000981207
  -3308388.109 9  -2296877.14149  19864299.612    19864298.9624   19864304.8594
        -0.000          -0.000
  -3790240.621 9  -2940649.08649  20967445.185    20967444.1804   20967450.7394
        -0.000          -0.000
   1946115.671 9   1461721.70847  21539053.129    21539052.5244   21539059.3424
        -0.000          -0.000
   5445244.394 9   4105908.47645  23950185.146    23950184.2934   23950191.0254
        -0.000          -0.000
   6772878.279 9   5263348.45845  24354001.248    24354001.0864   24354008.9464
        -0.000          -0.000
  -9400729.810 9  -7307267.86348  21526821.439    21526820.5924   21526828.0024
        -0.000          -0.000
  -8422189.242 9  -6538546.45646  23564465.036    23564464.7504   23564471.1354
        -0.000          -0.000
  -6837355.684 9  -5312072.22345  23801375.587    23801374.5614   23801382.8944
        -0.000          -0.000
 97  3 14 19 14 59.9990000  0  8 27  2 19 31 18  7 26 15            -0.000995666
  -3333869.126 9  -2316732.47849  19859450.739    19859450.1194   19859455.9974
        -0.000          -0.000
  -3828198.095 9  -2970226.32249  20960222.111    20960221.1414   20960227.6354
        -0.000          -0.000
   1985389.550 9   1492324.69848  21546526.786    21546526.1704   21546533.0064
        -0.000          -0.000
   5527321.698 9   4169864.76645  23965804.108    23965803.1804   23965809.9054
        -0.000          -0.000
   6863437.013 9   5333913.60945  24371233.967    24371233.8164   24371241.9374
        -0.000          -0.000
  -9507450.840 9  -7390427.08848  21506513.061    21506512.2714   21506519.5894
        -0.000          -0.000
  -8519923.564 9  -6614703.04246  23545867.045    23545866.4464   23545872.6454
        -0.000          -0.000
  -6911431.905 9  -5369793.88445  23787279.397    23787278.3904   23787286.6664
        -0.000          -0.000
 97  3 14 19 15 29.9990000  0  8 27  2 19 31 18  7 26 15            -0.001010107
  -3358892.998 9  -2336231.60949  19854688.897    19854688.2454   19854694.1464
        -0.000          -0.000
  -3865948.010 9  -2999641.83349  20953038.535    20953037.5544   20953044.1034
        -0.000          -0.000
   2025011.671 9   1523199.06048  21554066.712    21554066.0114   21554072.8894
        -0.000          -0.000
   5609641.074 9   4234009.70345  23981469.205    23981468.1254   23981474.7854
        -0.000          -0.000
   6954015.146 9   5404493.87045  24388470.728    24388470.3934   24388478.6284
        -0.000          -0.000
  -9613816.456 9  -7473309.34948  21486272.488    21486271.6134   21486278.8404
        -0.000          -0.000
  -8617281.103 9  -6690566.02646  23527340.251    23527339.7624   23527346.1044
        -0.000          -0.000
  -6985116.188 9  -5427210.17345  23773257.751    23773256.6274   23773264.9964
        -0.000          -0.000
 97  3 14 19 15 59.9980000  0  8 27  2 19 31 18  7 26 15            -0.001024523
  -3383465.905 9  -2355379.33249  19850012.879    19850012.2024   19850018.1274
        -0.000          -0.000
  -3903483.547 9  -3028890.29049  20945895.759    20945894.8194   20945901.3914
        -0.000          -0.000
   2064975.971 9   1554340.03548  21561671.740    21561671.0664   21561677.9514
        -0.000          -0.000
   5692193.174 9   4298335.99145  23997178.655    23997177.2204   23997184.0194
        -0.000          -0.000
   7044620.389 9   5475095.25045  24405712.736    24405712.0864   24405720.2894
        -0.000          -0.000
  -9719824.519 9  -7555913.00548  21466099.841    21466098.8904   21466106.1494
        -0.000          -0.000
  -8714259.313 9  -6766133.47446  23508885.841    23508885.5274   23508891.8384
        -0.000          -0.000
  -7058401.667 9  -5484315.68245  23759311.738    23759310.8114   23759319.1604
        -0.000          -0.000
 97  3 14 19 16 29.9980000  0  8 27  2 19 31 18  7 26 15            -0.001038916
  -3407588.242 9  -2374175.96449  19845422.522    19845421.8504   19845427.8234
        -0.000          -0.000
  -3940821.672 9  -3057984.92249  20938790.570    20938789.5784   20938796.1614
        -0.000          -0.000
   2105274.004 9   1585741.07047  21569340.283    21569339.5174   21569346.4654
        -0.000          -0.000
   5774977.934 9   4362843.55545  24012932.084    24012930.5644   24012937.5074
        -0.000          -0.000
   7135255.186 9   5545719.67946  24422960.282    24422959.5074   24422967.6604
        -0.000          -0.000
  -9825455.016 9  -7638222.45448  21445998.729    21445997.9454   21446005.3194
        -0.000          -0.000
  -8810862.182 9  -6841408.41646  23490502.675    23490502.5424   23490508.9674
        -0.000          -0.000
  -7131295.665 9  -5541116.13746  23745440.597    23745439.5544   23745447.9444
        -0.000          -0.000
 97  3 14 19 16 59.9980000  0  8 27  2 19 31 18  7 26 15            -0.001053284
  -3431259.416 9  -2392621.04149  19840918.080    19840917.3894   19840923.3504
        -0.000          -0.000
  -3977981.910 9  -3086940.94149  20931719.221    20931718.1934   20931724.7364
        -0.000          -0.000
   2145896.638 9   1617395.04947  21577070.391    21577069.7164   21577076.7024
        -0.000          -0.000
   5857984.793 9   4427524.18545  24028727.799    24028726.3994   24028733.1314
        -0.000          -0.000
   7225905.015 8   5616355.81045  24440210.623    24440209.6244   24440217.9844
        -0.000          -0.000
  -9930706.626 9  -7720236.67248  21425970.003    21425969.2804   21425976.6504
        -0.000          -0.000
  -8907081.618 9  -6916384.57146  23472192.714    23472192.4604   23472198.9474
        -0.000          -0.000
  -7203800.245 9  -5597613.15346  23731643.580    23731642.4764   23731650.8454
        -0.000          -0.000
 97  3 14 19 17 29.9980000  0  8 27  2 19 31 18  7 26 15            -0.001067614
  -3454483.226 9  -2410717.51849  19836498.736    19836498.0684   19836504.0294
        -0.000          -0.000
  -4014943.613 9  -3115742.26749  20924685.607    20924684.6024   20924691.1424
        -0.000          -0.000
   2186872.564 9   1649324.29847  21584867.942    21584867.2384   21584874.0914
        -0.000          -0.000
   5941229.311 9   4492390.00445  24044568.788    24044567.4034   24044573.9654
        -0.000          -0.000
   7316577.003 8   5687009.18545  24457465.093    24457463.9214   24457472.3834
        -0.000          -0.000
 -10035560.318 9  -7801940.81448  21406017.046    21406016.3134   21406023.6054
        -0.000          -0.000
  -9002883.525 9  -6991035.38346  23453961.915    23453961.8604   23453968.4134
        -0.000          -0.000
  -7275894.417 9  -5653790.39146  23717924.195    23717923.2834   23717931.7864
        -0.000          -0.000
 97  3 14 19 17 59.9980000  0  8 27  2 19 31 18  7 26 15            -0.001081912
  -3477280.447 9  -2428481.59249  19832160.587    19832159.9514   19832165.8854
        -0.000          -0.000
  -4051690.142 9  -3144375.91149  20917693.018    20917691.9834   20917698.4344
        -0.000          -0.000
   2228200.820 9   1681528.09647  21592732.519    21592731.7934   21592738.5744
        -0.000          -0.000
   6024696.073 9   4557429.01645  24060451.918    24060450.6964   24060457.0964
        -0.000          -0.000
   7407255.315 8   5757667.52445  24474720.361    24474719.4454   24474727.8404
        -0.000          -0.000
 -10140012.924 9  -7883332.43648  21386140.362    21386139.6244   21386146.8854
        -0.000          -0.000
  -9098281.001 9  -7065371.03346  23435808.625    23435808.3674   23435814.9744
        -0.000          -0.000
  -7347584.979 9  -5709653.10646  23704282.058    23704281.0774   23704289.3544
        -0.000          -0.000
 97  3 14 19 18 29.9980000  0  7 27  2 19 31  7 26 15               -0.001096102
  -3499653.693 9  -2445915.28549  19827903.094    19827902.4594   19827908.4284
        -0.000          -0.000
  -4088199.345 9  -3172824.63549  20910745.569    20910744.5534   20910750.9614
        -0.000          -0.000
   2269871.751 9   1713998.92647  21600662.164    21600661.4834   21600668.2634
        -0.000          -0.000
   6108382.582 8   4622639.23845  24076376.790    24076375.7924   24076382.0334
        -0.000          -0.000
 -10244062.947 9  -7964410.34048  21366340.125    21366339.4514   21366346.8074
        -0.000          -0.000
  -9193284.318 9  -7139399.57546  23417730.322    23417729.9524   23417736.5184
        -0.000          -0.000
  -7418867.541 9  -5765197.89246  23690717.487    23690716.5184   23690724.7404
        -0.000          -0.000
 97  3 14 19 18 59.9980000  0  7 27  2 19 31  7 26 15               -0.001110327
  -3521600.670 9  -2463016.82749  19823726.752    19823726.1104   19823732.0334
        -0.000          -0.000
  -4124438.161 9  -3201062.66949  20903849.546    20903848.5074   20903854.9344
        -0.000          -0.000
   2311885.722 9   1746737.05647  21608657.232    21608656.5194   21608663.3524
        -0.000          -0.000
   6192279.213 8   4688013.19045  24092341.830    24092340.7604   24092347.0704
        -0.000          -0.000
 -10347733.667 9  -8045192.69948  21346612.300    21346611.5584   21346618.8294
        -0.000          -0.000
  -9287885.524 9  -7213114.77546  23399728.054    23399727.8364   23399734.4444
        -0.000          -0.000
  -7489730.732 9  -5820415.92746  23677232.488    23677231.6044   23677239.9184
        -0.000          -0.000
 97  3 14 19 19 29.9980000  0  7 27  2 19 31  7 26 15               -0.001124546
  -3543148.774 9  -2479807.56049  19819626.291    19819625.6394   19819631.5494
        -0.000          -0.000
  -4160423.257 9  -3229102.98949  20897001.731    20897000.7774   20897007.1704
        -0.000          -0.000
   2354203.963 9   1779712.27147  21616710.220    21616709.4844   21616716.3294
        -0.000          -0.000
   6276347.380 8   4753520.81945  24108339.877    24108338.4034   24108344.8334
        -0.000          -0.000
 -10451045.532 9  -8125695.41248  21326952.806    21326951.9394   21326959.2294
        -0.000          -0.000
  -9382110.384 9  -7286536.72046  23381797.366    23381797.3484   23381803.8844
        -0.000          -0.000
  -7560194.349 9  -5875322.60146  23663823.610    23663822.7964   23663831.1044
        -0.000          -0.000
 97  3 14 19 19 59.9980000  0  7 27  2 19 31  7 26 15               -0.001138753
  -3564244.337 9  -2496245.66749  19815611.922    19815611.3184   19815617.2394
        -0.000          -0.000
  -4196130.717 9  -3256926.97049  20890206.844    20890205.8424   20890212.2584
        -0.000          -0.000
   2396848.710 9   1812941.90747  21624825.145    21624824.4954   21624831.3194
        -0.000          -0.000
   6360597.923 8   4819170.56445  24124372.201    24124370.9564   24124377.0414
        -0.000          -0.000
 -10553972.029 9  -8205897.84648  21307366.482    21307365.6184   21307372.9464
        -0.000          -0.000
  -9475928.081 9  -7359641.42546  23363944.729    23363944.4584   23363950.7314
        -0.000          -0.000
  -7630232.100 9  -5929897.40946  23650495.914    23650495.0234   23650503.2174
        -0.000          -0.000
 97  3 14 19 20 29.9980000  0  7 27  2 19 31  7 26 15               -0.001152949
  -3584862.204 9  -2512311.53349  19811688.474    19811687.8544   19811693.7794
        -0.000          -0.000
  -4231585.915 9  -3284554.38749  20883459.906    20883458.9124   20883465.4094
        -0.000          -0.000
   2439832.230 9   1846435.53847  21633004.683    21633004.0234   21633010.8124
        -0.000          -0.000
   6445033.378 8   4884964.35645  24140439.856    24140438.6334   24140444.6104
        -0.000          -0.000
 -10656514.710 9  -8285801.20748  21287853.068    21287852.3564   21287859.6024
        -0.000          -0.000
  -9569316.911 9  -7432411.91846  23346173.371    23346173.0614   23346179.4754
        -0.000          -0.000
  -7699838.720 9  -5984136.29446  23637250.160    23637249.2434   23637257.4524
        -0.000          -0.000
 97  3 14 19 20 59.9980000  0  7 27  2 19 31  7 26 15               -0.001167129
  -3604997.925 9  -2528001.70349  19807856.764    19807856.1374   19807862.1144
        -0.000          -0.000
  -4266824.916 9  -3312013.33749  20876754.188    20876753.1944   20876759.6734
        -0.000          -0.000
   2483158.666 9   1880196.35747  21641249.441    21641248.8154   21641255.6414
        -0.000          -0.000
   6529654.527 8   4950902.89345  24156542.746    24156541.2254   24156547.5974
        -0.000          -0.000
 -10758680.001 9  -8365410.49648  21268411.720    21268411.0064   21268418.2074
        -0.000          -0.000
  -9662266.654 9  -7504840.22546  23328485.293    23328485.1264   23328491.8214
        -0.000          -0.000
  -7769022.254 9  -6038045.50046  23624084.869    23624083.9774   23624092.3064
        -0.000          -0.000
 97  3 14 19 21 29.9980000  0  6 27  2 19  7 26 15                  -0.001181276
  -3624645.291 9  -2543311.34549  19804118.068    19804117.3954   19804123.3544
        -0.000          -0.000
  -4301870.668 9  -3339321.70649  20870085.206    20870084.2014   20870090.6434
        -0.000          -0.000
   2526845.834 9   1914238.27247  21649562.771    21649562.1604   21649569.0664
        -0.000          -0.000
 -10860436.975 9  -8444701.60448  21249048.118    21249047.3114   21249054.5534
        -0.000          -0.000
  -9754767.559 9  -7576918.83246  23310882.995    23310882.8814   23310889.5664
        -0.000          -0.000
  -7837778.131 9  -6091621.48046  23611001.086    23611000.1844   23611008.4804
        -0.000          -0.000
 97  3 14 19 21 59.9980000  0  6 27  2 19  7 26 15                  -0.001195355
  -3643792.674 9  -2558231.38249  19800474.472    19800473.7774   19800479.7484
        -0.000          -0.000
  -4336734.034 9  -3366487.96849  20863450.962    20863449.9444   20863456.4104
        -0.000          -0.000
   2570913.078 9   1948576.35747  21657948.552    21657947.8654   21657954.8604
        -0.000          -0.000
 -10961769.956 9  -8523662.34848  21229764.982    21229764.1904   21229771.4774
        -0.000          -0.000
  -9846799.886 9  -7648632.32246  23293370.056    23293369.8764   23293376.4504
        -0.000          -0.000
  -7906096.528 9  -6144856.53646  23598000.753    23597999.6844   23598007.8474
        -0.000          -0.000
 97  3 14 19 22 29.9980000  0  6 27  2 19  7 26 15                  -0.001209377
  -3662454.342 9  -2572772.94749  19796923.325    19796922.6164   19796928.5384
        -0.000          -0.000
  -4371413.867 9  -3393511.21549  20856851.609    20856850.6034   20856857.0794
        -0.000          -0.000
   2615341.860 9   1983196.16347  21666403.029    21666402.4324   21666409.3804
        -0.000          -0.000
 -11062671.807 9  -8602287.13048  21210563.809    21210563.1634   21210570.5054
        -0.000          -0.000
  -9938364.415 9  -7719981.27546  23275945.698    23275945.6594   23275952.2264
        -0.000          -0.000
  -7973972.247 9  -6197746.67846  23585084.264    23585083.3874   23585091.5524
        -0.000          -0.000
 97  3 14 19 22 59.9980000  0  6 27  2 19  7 26 15                  -0.001223347
  -3680646.277 9  -2586948.49049  19793461.535    19793460.8024   19793466.7034
        -0.000          -0.000
  -4405889.018 9  -3420374.96449  20850291.142    20850290.1454   20850296.6344
        -0.000          -0.000
   2660113.382 9   2018083.02647  21674922.911    21674922.2534   21674929.1174
        -0.000          -0.000
 -11163141.715 9  -8680575.34648  21191445.180    21191444.3984   21191451.6314
        -0.000          -0.000
 -10029475.182 9  -7790976.64746  23258607.800    23258607.6514   23258614.3844
        -0.000          -0.000
  -8041406.299 9  -6250292.65646  23572251.952    23572251.0604   23572259.2514
        -0.000          -0.000
 97  3 14 19 23 29.9980000  0  6 27  2 19  7 26 15                  -0.001237277
  -3698378.245 9  -2600765.62049  19790087.265    19790086.5184   19790092.4214
        -0.000          -0.000
  -4440151.562 9  -3447073.04149  20843771.159    20843770.1684   20843776.7364
        -0.000          -0.000
   2705222.733 9   2053233.14047  21683507.065    21683506.3114   21683513.1714
        -0.000          -0.000
 -11263186.470 9  -8758532.26148  21172407.296    21172406.4984   21172413.7344
        -0.000          -0.000
 -10120146.109 9  -7861629.29646  23241353.663    23241353.6854   23241360.3374
        -0.000          -0.000
  -8108401.549 9  -6302496.69046  23559503.192    23559502.2964   23559510.3934
        -0.000          -0.000
 97  3 14 19 23 59.9980000  0  6 27  2 19  7 26 15                  -0.001251176
  -3715649.216 9  -2614223.52849  19786800.667    19786799.9534   19786805.8624
        -0.000          -0.000
  -4474185.446 9  -3473592.95149  20837294.667    20837293.6824   20837300.2954
        -0.000          -0.000
   2750669.525 9   2088646.19447  21692155.145    21692154.5444   21692161.5004
        -0.000          -0.000
 -11362818.810 9  -8836167.82648  21153447.835    21153447.0534   21153454.3404
        -0.000          -0.000
 -10210380.930 9  -7931942.11646  23224182.783    23224182.6334   23224189.1454
        -0.000          -0.000
  -8174953.928 9  -6354355.65146  23546838.719    23546837.7244   23546845.8324
        -0.000          -0.000
 97  3 14 19 24 29.9980000  0  6 27  2 19  7 26 15                  -0.001265062
  -3732461.770 9  -2627324.23249  19783601.334    19783600.6484   19783606.5534
        -0.000          -0.000
  -4507973.493 9  -3499921.28849  20830864.923    20830863.9834   20830870.6114
        -0.000          -0.000
   2796453.464 9   2124321.96447  21700867.632    21700867.0424   21700873.9874
        -0.000          -0.000
 -11462051.945 9  -8913492.31548  21134564.408    21134563.6864   21134570.9234
        -0.000          -0.000
 -10300196.945 9  -8001928.59946  23207091.523    23207091.2354   23207097.5804
        -0.000          -0.000
  -8241065.563 9  -6405871.17246  23534257.890    23534256.9034   23534264.9504
        -0.000          -0.000
 97  3 14 19 24 59.9980000  0  6 27  2 19  7 26 15                  -0.001278935
  -3748814.854 9  -2640066.90349  19780489.454    19780488.7724   19780494.6784
        -0.000          -0.000
  -4541520.709 9  -3526061.96449  20824481.098    20824480.1324   20824486.8004
        -0.000          -0.000
   2842592.212 9   2160274.19547  21709647.680    21709647.0044   21709653.8014
        -0.000          -0.000
 -11560881.893 9  -8990502.62848  21115757.891    21115757.0064   21115764.1644
        -0.000          -0.000
 -10389596.450 9  -8071590.52646  23190079.157    23190078.9634   23190085.5304
        -0.000          -0.000
  -8306730.235 9  -6457038.39345  23521762.357    23521761.3534   23521769.4524
        -0.000          -0.000
 97  3 14 19 25 29.9980000  0  6 27  2 19  7 26 15                  -0.001292778
  -3764709.204 9  -2652452.11549  19777464.854    19777464.2064   19777470.1014
        -0.000          -0.000
  -4574840.253 9  -3552025.23749  20818140.595    20818139.6424   20818146.2574
        -0.000          -0.000
   2889103.212 9   2196516.50747  21718498.408    21718497.7364   21718504.4874
        -0.000          -0.000
 -11659301.383 9  -9067193.11148  21097029.227    21097028.3614   21097035.4754
        -0.000          -0.000
 -10478565.535 9  -8140917.06146  23173149.073    23173148.8134   23173155.5194
        -0.000          -0.000
  -8371941.173 9  -6507852.05946  23509353.203    23509352.0444   23509360.1554
        -0.000          -0.000
 97  3 14 19 25 59.9980000  0  6 27  2 19  7 26 15                  -0.001306579
  -3780124.434 9  -2664463.99149  19774531.436    19774530.7874   19774536.6814
        -0.000          -0.000
  -4607920.509 9  -3577802.05049  20811845.705    20811844.7404   20811851.2424
        -0.000          -0.000
   2935997.002 9   2233057.08147  21727422.063    21727421.3994   21727428.2314
        -0.000          -0.000
 -11757293.088 9  -9143550.25548  21078381.839    21078381.0914   21078388.2794
        -0.000          -0.000
 -10567080.673 9  -8209889.86846  23156305.235    23156304.8144   23156311.5504
        -0.000          -0.000
  -8436674.518 9  -6558293.57546  23497034.750    23497033.6624   23497041.7444
        -0.000          -0.000
 97  3 14 19 26 29.9980000  0  6 27  2 19  7 26 15                  -0.001320346
  -3795080.339 9  -2676117.95449  19771685.442    19771684.7674   19771690.6484
        -0.000          -0.000
  -4640788.819 9  -3603413.70949  20805591.108    20805590.1004   20805596.5364
        -0.000          -0.000
   2983251.648 9   2269878.86147  21736414.428    21736413.6844   21736420.6354
        -0.000          -0.000
 -11854867.728 9  -9219582.41948  21059813.988    21059813.2944   21059820.4304
        -0.000          -0.000
 -10655160.989 9  -8278523.86046  23139543.929    23139543.7074   23139550.2434
        -0.000          -0.000
  -8500945.727 9  -6608374.99146  23484804.265    23484803.2394   23484811.2024
        -0.000          -0.000
 97  3 14 19 26 59.9980000  0  6 27  2 19  7 26 15                  -0.001334082
  -3809591.404 9  -2687425.28349  19768924.127    19768923.4094   19768929.3064
        -0.000          -0.000
  -4673469.666 9  -3628879.29749  20799372.163    20799371.1854   20799377.5654
        -0.000          -0.000
   3030844.109 9   2306963.85747  21745470.833    21745470.2044   21745477.2584
        -0.000          -0.000
 -11952034.500 9  -9295296.75048  21041323.859    21041323.0354   21041330.1764
        -0.000          -0.000
 -10742817.007 9  -8346827.23446  23122864.016    23122863.4744   23122869.8534
        -0.000          -0.000
  -8564767.979 9  -6658106.56946  23472659.351    23472658.2574   23472666.2504
        -0.000          -0.000
 97  3 14 19 27 29.9980000  0  6 27  2 19  7 26 15                  -0.001347782
  -3823629.254 9  -2698363.87349  19766252.712    19766252.0784   19766257.9604
        -0.000          -0.000
  -4705949.611 9  -3654188.33449  20793191.391    20793190.3844   20793196.7874
        -0.000          -0.000
   3078787.633 9   2344322.42547  21754594.271    21754593.5484   21754600.5644
        -0.000          -0.000
 -12048773.836 9  -9370678.03448  21022914.873    21022914.0894   21022921.2254
        -0.000          -0.000
 -10830023.083 9  -8414780.01046  23106269.205    23106268.7334   23106275.1584
        -0.000          -0.000
  -8628124.667 9  -6707475.37246  23460602.671    23460601.7734   23460609.9254
        -0.000          -0.000
 97  3 14 19 27 59.9980000  0  6 27  2 19  7 26 15                  -0.001361457
  -3837191.067 9  -2708931.53049  19763671.998    19763671.3754   19763677.2654
        -0.000          -0.000
  -4738226.573 9  -3679339.20649  20787049.229    20787048.2764   20787054.7014
        -0.000          -0.000
   3127060.169 9   2381937.34147  21763780.319    21763779.6094   21763786.5354
        -0.000          -0.000
 -12145079.580 9  -9445721.44248  21004588.455    21004587.7264   21004594.8684
        -0.000          -0.000
 -10916796.652 9  -8482395.73046  23089756.556    23089756.1354   23089762.8134
        -0.000          -0.000
  -8691019.834 9  -6756484.55546  23448634.196    23448633.2604   23448641.2504
        -0.000          -0.000
 97  3 14 19 28 29.9980000  0  6 27  2 19  7 26 15                  -0.001375106
  -3850281.288 9  -2719131.71449  19761180.991    19761180.3704   19761186.3334
        -0.000          -0.000
  -4770301.338 9  -3704332.51349  20780945.613    20780944.6224   20780951.1304
        -0.000          -0.000
   3175656.123 9   2419804.28947  21773027.869    21773027.1574   21773034.0374
        -0.000          -0.000
 -12240936.022 9  -9520414.74548  20986347.713    20986346.8644   20986353.9814
        -0.000          -0.000
 -11003137.459 9  -8549674.26646  23073326.425    23073326.0384   23073332.6584
        -0.000          -0.000
  -8753455.220 9  -6805135.46945  23436753.065    23436752.1154   23436760.3204
        -0.000          -0.000
 97  3 14 19 28 59.9980000  0  6 27  2 19  7 26 15                  -0.001388722
  -3862892.499 9  -2728958.64749  19758781.185    19758780.5714   19758786.5264
        -0.000          -0.000
  -4802177.679 9  -3729171.20549  20774879.726    20774878.7614   20774885.3274
        -0.000          -0.000
   3224576.677 9   2457924.15947  21782337.135    21782336.3434   21782343.3914
        -0.000          -0.000
 -12336338.702 9  -9594754.46648  20968193.040    20968192.2634   20968199.4784
        -0.000          -0.000
 -11089029.364 9  -8616603.02147  23056981.840    23056981.5044   23056987.9684
        -0.000          -0.000
  -8815428.409 9  -6853426.22545  23424959.942    23424958.9494   23424967.0954
        -0.000          -0.000
 97  3 14 19 29 29.9980000  0  6 27  2 19  7 26 15                  -0.001402294
  -3875018.177 9  -2738407.24349  19756473.800    19756473.1684   19756479.0764
        -0.000          -0.000
  -4833844.382 9  -3753846.55049  20768853.853    20768852.8424   20768859.3854
        -0.000          -0.000
   3273833.978 9   2496306.44447  21791710.370    21791709.6944   21791716.8224
        -0.000          -0.000
 -12431278.595 9  -9668733.58348  20950126.471    20950125.7804   20950132.9034
        -0.000          -0.000
 -11174451.676 9  -8683165.84447  23040726.589    23040726.1984   23040732.6564
        -0.000          -0.000
  -8876924.104 9  -6901344.90345  23413257.715    23413256.5704   23413265.0054
        -0.000          -0.000
 97  3 14 19 29 59.9980000  0  6 27  2 19  7 26 15                  -0.001415818
  -3886655.550 9  -2747475.32849  19754259.273    19754258.6414   19754264.5424
        -0.000          -0.000
  -4865284.377 9  -3778345.23749  20762871.041    20762870.0344   20762876.5834
        -0.000          -0.000
   3323435.606 9   2534957.02547  21801149.227    21801148.5984   21801155.7714
        -0.000          -0.000
 -12525765.806 9  -9742359.94848  20932146.153    20932145.4374   20932152.5524
        -0.000          -0.000
 -11259388.451 9  -8749350.30847  23024563.452    23024563.1674   23024569.7064
        -0.000          -0.000
  -8937932.173 9  -6948883.60745  23401648.024    23401647.0574   23401655.4684
        -0.000          -0.000
 97  3 14 19 30 29.9980000  0  6 27  2 19  7 26 15                  -0.001429282
  -3897793.288 9  -2756154.09049  19752139.828    19752139.2184   19752145.1424
        -0.000          -0.000
  -4896494.742 9  -3802664.99549  20756931.852    20756930.8664   20756937.4204
        -0.000          -0.000
   3373402.872 9   2573892.52147  21810657.760    21810657.1264   21810664.2194
        -0.000          -0.000
 -12619806.920 9  -9815638.71548  20914250.827    20914250.0364   20914257.1154
        -0.000          -0.000
 -11343810.846 9  -8815133.98746  23008498.390    23008498.1284   23008504.5394
        -0.000          -0.000
  -8998444.648 9  -6996036.13745  23390132.972    23390132.0184   23390140.3814
        -0.000          -0.000
 97  3 14 19 30 59.9980000  0  6 27  2 19  7 26 15                  -0.001442707
  -3908436.194 9  -2764447.27549  19750114.581    19750113.9214   19750119.8694
        -0.000          -0.000
  -4927480.583 9  -3826809.79449  20751035.421    20751034.4584   20751040.9584
        -0.000          -0.000
   3423726.211 9   2613105.47647  21820234.041    21820233.4174   21820240.4154
        -0.000          -0.000
 -12713432.398 9  -9888593.61348  20896434.458    20896433.6904   20896440.7924
        -0.000          -0.000
 -11427732.454 9  -8880527.42547  22992528.717    22992528.3444   22992534.7904
        -0.000          -0.000
  -9058473.590 9  -7042811.88345  23378709.912    23378708.7584   23378717.0034
        -0.000          -0.000
 97  3 14 19 31 29.9980000  0  6 27  2 19  7 26 15                  -0.001456105
  -3918595.185 9  -2772363.38249  19748181.384    19748180.7594   19748186.7074
        -0.000          -0.000
  -4958235.031 9  -3850774.29149  20745183.021    20745182.0594   20745188.5404
        -0.000          -0.000
   3474390.897 9   2652584.41247  21829875.218    21829874.5934   21829881.4394
        -0.000          -0.000
 -12806646.505 9  -9961227.95548  20878696.342    20878695.5904   20878702.6214
        -0.000          -0.000
 -11511169.009 9  -8945542.91247  22976651.184    22976650.9154   22976657.3364
        -0.000          -0.000
  -9118022.353 9  -7089213.48145  23367377.814    23367376.9124   23367385.1424
        -0.000          -0.000
 97  3 14 19 31 59.9980000  0  6 27  2 19  7 26 15                  -0.001469484
  -3928272.516 9  -2779904.16449  19746339.922    19746339.2344   19746345.2024
        -0.000          -0.000
  -4988773.896 9  -3874570.79949  20739371.615    20739370.6334   20739377.1274
        -0.000          -0.000
   3525389.021 9   2692323.16147  21839579.835    21839579.2644   21839586.1794
        -0.000          -0.000
 -12899445.404 9 -10033538.75348  20861037.267    20861036.4954   20861043.4754
        -0.000          -0.000
 -11594138.678 9  -9010194.58047  22960862.797    22960862.3864   22960868.8384
        -0.000          -0.000
  -9177101.078 9  -7135248.79345  23356135.744    23356134.6044   23356142.8324
        -0.000          -0.000
 97  3 14 19 32 29.9980000  0  6 27  2 19  7 26 15                  -0.001482835
  -3937450.070 9  -2787055.51349  19744593.484    19744592.8034   19744598.7574
        -0.000          -0.000
  -5019091.881 9  -3898195.19249  20733602.389    20733601.3764   20733607.7894
        -0.000          -0.000
   3576740.118 9   2732336.97147  21849351.745    21849351.0294   21849358.0974
        -0.000          -0.000
 -12991795.666 9 -10105499.96648  20843463.516    20843462.8114   20843469.8464
        -0.000          -0.000
 -11676637.847 9  -9074479.62547  22945163.616    22945163.2044   22945169.6854
        -0.000          -0.000
  -9235687.711 8  -7180900.64145  23344987.197    23344985.9924   23344994.1274
        -0.000          -0.000
 97  3 14 19 32 59.9980000  0  6 27  2 19  7 26 15                  -0.001496171
  -3946151.182 9  -2793835.60949  19742937.715    19742937.0794   19742942.9554
        -0.000          -0.000
  -5049207.872 9  -3921662.19549  20727871.510    20727870.5144   20727876.9354
        -0.000          -0.000
   3628421.466 9   2772608.12447  21859186.317    21859185.7004   21859192.8584
        -0.000          -0.000
 -13083716.693 9 -10177126.71648  20825971.553    20825970.8414   20825977.9014
        -0.000          -0.000
 -11758693.693 9  -9138419.23547  22929548.913    22929548.5544   22929554.9774
        -0.000          -0.000
  -9293792.259 8  -7226176.87745  23333929.890    23333928.9274   23333936.9374
        -0.000          -0.000
 97  3 14 19 33 29.9980000  0  6 27  2 19  7 26 15                  -0.001509482
  -3954387.718 9  -2800253.69749  19741370.414    19741369.7744   19741375.6344
        -0.000          -0.000
  -5079133.052 9  -3944980.50449  20722177.030    20722176.0164   20722182.3454
        -0.000          -0.000
   3680438.189 9   2813140.58747  21869084.950    21869084.2884   21869091.2394
        -0.000          -0.000
 -13175209.503 9 -10248419.79048  20808561.039    20808560.3434   20808567.3594
        -0.000          -0.000
 -11840302.019 9  -9202010.12747  22914019.297    22914018.9554   22914025.3654
        -0.000          -0.000
  -9351412.194 9  -7271075.47845  23322965.217    23322964.2484   23322972.1654
        -0.000          -0.000
 97  3 14 19 33 59.9980000  0  6 27  2 19  7 26 15                  -0.001522770
  -3962139.782 9  -2806294.26949  19739895.261    19739894.6054   19739900.4714
        -0.000          -0.000
  -5108868.810 9  -3968151.21749  20716518.569    20716517.5234   20716523.8344
        -0.000          -0.000
   3732800.186 9   2853942.10747  21879049.146    21879048.3904   21879055.4334
        -0.000          -0.000
 -13266285.407 9 -10319387.99848  20791230.001    20791229.2024   20791236.1334
        -0.000          -0.000
 -11921453.234 9  -9265244.81647  22898576.685    22898576.3364   22898582.7744
        -0.000          -0.000
  -9408540.027 9  -7315590.60745  23312093.938    23312093.2334   23312100.9884
        -0.000          -0.000
 97  3 14 19 34 29.9980000  0  6 27  2 19  7 26 15                  -0.001536039
  -3969407.533 9  -2811957.45149  19738512.266    19738511.6234   19738517.4584
        -0.000          -0.000
  -5138400.809 9  -3991163.15549  20710898.851    20710897.7944   20710904.1294
        -0.000          -0.000
   3785504.057 9   2895010.02447  21889078.136    21889077.5174   21889084.7304
        -0.000          -0.000
 -13356958.603 9 -10390042.40848  20773975.376    20773974.6074   20773981.5474
        -0.000          -0.000
 -12002136.843 9  -9328115.16647  22883223.282    22883222.8644   22883229.0924
        -0.000          -0.000
  -9465171.221 9  -7359718.75645  23301317.501    23301316.6544   23301324.4864
        -0.000          -0.000
 97  3 14 19 34 59.9980000  0  6 27  2 19  7 26 15                  -0.001549289
  -3976185.796 9  -2817239.22049  19737222.483    19737221.8164   19737227.6084
        -0.000          -0.000
  -5167721.885 9  -4014010.74549  20705319.208    20705318.1764   20705324.5104
        -0.000          -0.000
   3838538.385 9   2936335.43047  21899170.416    21899169.7604   21899176.9364
        -0.000          -0.000
 -13447223.272 9 -10460378.49048  20756798.497    20756797.7584   20756804.7744
        -0.000          -0.000
 -12082341.563 9  -9390612.32147  22867960.770    22867960.2914   22867966.6874
        -0.000          -0.000
  -9521303.855 9  -7403458.42345  23290635.572    23290634.8294   23290642.7804
        -0.000          -0.000
 97  3 14 19 35 29.9980000  0  6 27  2 19  7 26 15                  -0.001562536
  -3982471.103 9  -2822136.88049  19736026.386    19736025.7344   19736031.5554
        -0.000          -0.000
  -5196847.385 9  -4036705.93549  20699776.839    20699775.7834   20699782.1254
        -0.000          -0.000
   3891872.603 9   2977894.53847  21909319.759    21909319.0044   21909326.1504
        -0.000          -0.000
 -13537071.096 9 -10530389.75448  20739701.102    20739700.2844   20739707.2314
        -0.000          -0.000
 -12162082.343 9  -9452747.96247  22852786.422    22852786.1154   22852792.6694
        -0.000          -0.000
  -9576953.525 9  -7446821.74145  23280046.032    23280045.0804   23280052.7784
        -0.000          -0.000
 97  3 14 19 35 59.9980000  0  6 27  2 19  7 26 15                  -0.001575778
  -3988247.338 9  -2826637.85449  19734927.158    19734926.5254   19734932.4384
        -0.000          -0.000
  -5225766.692 9  -4059240.45649  20694273.550    20694272.5434   20694278.9394
        -0.000          -0.000
   3945506.351 9   3019687.03047  21919525.736    21919525.1694   21919532.3394
        -0.000          -0.000
 -13626475.816 9 -10600055.74548  20722687.849    20722687.1424   20722694.0494
        -0.000          -0.000
 -12241352.593 9  -9514516.98147  22837701.985    22837701.5584   22837707.8974
        -0.000          -0.000
  -9632109.924 9  -7489800.70745  23269550.170    23269549.1664   23269556.9054
        -0.000          -0.000
 97  3 14 19 36 29.9980000  0  6 27  2 19  7 26 15                  -0.001589003
  -3993525.379 9  -2830750.61049  19733922.809    19733922.1604   19733928.0704
        -0.000          -0.000
  -5254478.194 9  -4081613.04249  20688809.941    20688808.9664   20688815.3074
        -0.000          -0.000
   3999444.953 9   3061717.07347  21929790.007    21929789.3724   21929796.5554
        -0.000          -0.000
 -13715408.609 9 -10669353.99848  20705764.608    20705763.7684   20705770.7094
        -0.000          -0.000
 -12320148.933 9  -9575916.72647  22822707.479    22822707.0894   22822713.3754
        -0.000          -0.000
  -9686770.772 9  -7532393.54045  23259148.352    23259147.4774   23259155.2614
        -0.000          -0.000
 97  3 14 19 36 59.9980000  0  6 27  2 19  7 26 15                  -0.001602209
  -3998303.444 9  -2834473.77849  19733013.604    19733012.9304   19733018.8524
        -0.000          -0.000
  -5282987.595 9  -4103828.15849  20683384.758    20683383.7714   20683390.1474
        -0.000          -0.000
   4053685.735 9   3103982.58747  21940111.896    21940111.2074   21940118.2674
        -0.000          -0.000
 -13803852.004 9 -10738270.90748  20688934.275    20688933.5394   20688940.5024
        -0.000          -0.000
 -12398473.806 9  -9636949.06747  22807802.628    22807802.2784   22807808.6184
        -0.000          -0.000
  -9740934.968 9  -7574599.36145  23248841.419    23248840.4134   23248848.0474
        -0.000          -0.000
 97  3 14 19 37 29.9980000  0  6 27  2 19  7 26 15                  -0.001615396
  -4002589.883 9  -2837813.87449  19732197.893    19732197.2744   19732203.1584
        -0.000          -0.000
  -5311297.506 9  -4125887.82949  20677997.559    20677996.6114   20678002.9734
        -0.000          -0.000
   4108241.737 9   3146493.71547  21950493.487    21950492.8604   21950500.0154
        -0.000          -0.000
 -13891808.985 9 -10806808.78648  20672196.591    20672195.8774   20672202.8294
        -0.000          -0.000
 -12476331.705 9  -9697617.54647  22792986.855    22792986.4844   22792992.7284
        -0.000          -0.000
  -9794607.180 9  -7616421.80545  23238627.971    23238626.9144   23238634.4434
        -0.000          -0.000
 97  3 14 19 37 59.9980000  0  6 27  2 19  7 26 15                  -0.001628534
  -4006388.464 9  -2840773.82049  19731475.115    19731474.5044   19731480.2894
        -0.000          -0.000
  -5339400.939 9  -4147786.60749  20672649.673    20672648.6934   20672655.0514
        -0.000          -0.000
   4163150.228 9   3189279.52047  21960942.488    21960941.6864   21960948.8524
        -0.000          -0.000
 -13979274.075 9 -10874963.37648  20655552.565    20655551.8494   20655558.7454
        -0.000          -0.000
 -12553693.511 9  -9757899.46547  22778265.315    22778265.0254   22778271.1784
        -0.000          -0.000
  -9847766.409 9  -7657844.55045  23228512.029    23228510.9274   23228518.5924
        -0.000          -0.000
 97  3 14 19 38 29.9980000  0  6 27  2 19  7 26 15                  -0.001641628
  -4009722.330 9  -2843371.64449  19730840.802    19730840.1444   19730845.9104
        -0.000          -0.000
  -5367340.570 9  -4169557.73949  20667332.945    20667331.9144   20667338.3774
        -0.000          -0.000
   4218390.640 9   3232323.95347  21971454.294    21971453.6194   21971460.7544
        -0.000          -0.000
 -14066281.421 9 -10942761.28548  20638995.623    20638994.8714   20639001.7424
        -0.000          -0.000
 -12630570.510 9  -9817803.60247  22763635.945    22763635.7434   22763641.9584
        -0.000          -0.000
  -9900434.703 9  -7698884.74945  23218489.544    23218488.4254   23218496.2334
        -0.000          -0.000
 97  3 14 19 38 59.9980000  0  6 27  2 19  7 26 15                  -0.001654674
  -4012585.441 9  -2845602.64949  19730295.943    19730295.3014   19730301.0984
        -0.000          -0.000
  -5395122.721 9  -4191206.16649  20662046.033    20662045.0444   20662051.6024
        -0.000          -0.000
   4273955.734 9   3275621.39547  21982027.788    21982027.2294   21982034.3834
        -0.000          -0.000
 -14152836.791 9 -11010207.00348  20622524.672    20622523.9644   20622530.8414
        -0.000          -0.000
 -12706953.323 9  -9877322.65647  22749100.816    22749100.5954   22749106.8144
        -0.000          -0.000
  -9952604.093 9  -7739536.19046  23208562.165    23208561.1074   23208568.7934
        -0.000          -0.000
 97  3 14 19 39 29.9980000  0  6 27  2 19  7 26 15                  -0.001667671
  -4014995.155 9  -2847480.35949  19729837.438    19729836.7484   19729842.5234
        -0.000          -0.000
  -5422766.153 9  -4212746.49149  20656785.644    20656784.6554   20656791.2464
        -0.000          -0.000
   4329839.574 9   3319167.20647  21992662.127    21992661.6274   21992668.7014
        -0.000          -0.000
 -14238959.302 9 -11077315.42248  20606136.141    20606135.3494   20606142.2254
        -0.000          -0.000
 -12782843.113 9  -9936457.54847  22734659.388    22734659.2334   22734665.4464
        -0.000          -0.000
 -10004280.127 9  -7779803.18445  23198728.408    23198727.4154   23198734.9474
        -0.000          -0.000
 97  3 14 19 39 59.9980000  0  6 27  2 19  7 26 15                  -0.001680607
  -4016932.316 9  -2848989.85149  19729468.726    19729468.0944   19729473.8494
        -0.000          -0.000
  -5450248.658 9  -4234161.42949  20651555.880    20651554.8664   20651561.5424
        -0.000          -0.000
   4386041.451 9   3362960.83647  22003357.209    22003356.5734   22003363.6194
        -0.000          -0.000
 -14324635.442 9 -11144076.03348  20589832.443    20589831.6664   20589838.5114
        -0.000          -0.000
 -12858214.173 9  -9995188.22047  22720316.847    22720316.5624   22720322.8144
        -0.000          -0.000
 -10055440.121 9  -7819668.07645  23188993.054    23188991.8464   23188999.3654
        -0.000          -0.000
 97  3 14 19 40 29.9980000  0  6 27  2 19  7 26 15                  -0.001693520
  -4018406.819 9  -2850138.81949  19729188.175    19729187.5384   19729193.2554
        -0.000          -0.000
  -5477555.397 9  -4255439.39949  20646359.516    20646358.5834   20646365.2724
        -0.000          -0.000
   4442529.816 9   3406977.70447  22014106.580    22014106.0024   22014113.0914
        -0.000          -0.000
 -14409875.585 9 -11210496.89248  20573611.724    20573610.9554   20573617.8574
        -0.000          -0.000
 -12933097.390 9 -10053538.76247  22706066.894    22706066.7374   22706072.9684
        -0.000          -0.000
 -10106098.369 9  -7859142.00746  23179353.033    23179351.8984   23179359.7254
        -0.000          -0.000
 97  3 14 19 40 59.9980000  0  6 27  2 19  7 26 15                  -0.001706423
  -4019416.224 9  -2850925.37349  19728996.112    19728995.4214   19729001.1954
        -0.000          -0.000
  -5504652.073 9  -4276553.69249  20641203.183    20641202.2334   20641208.9404
        -0.000          -0.000
   4499308.666 9   3451220.94247  22024911.266    22024910.6914   22024917.8804
        -0.000          -0.000
 -14494677.021 9 -11276575.91448  20557474.603    20557473.7574   20557480.6814
        -0.000          -0.000
 -13007505.320 9 -10111518.95347  22691907.704    22691907.4204   22691913.7184
        -0.000          -0.000
 -10156247.316 9  -7898219.05846  23169810.039    23169808.8754   23169816.7634
        -0.000          -0.000
 97  3 14 19 41 29.9980000  0  6 27  2 19  7 26 15                  -0.001719321
  -4019947.634 9  -2851339.47149  19728894.938    19728894.2814   19728900.0834
        -0.000          -0.000
  -5531525.331 9  -4297493.89149  20636089.323    20636088.4034   20636095.1224
        -0.000          -0.000
   4556397.349 9   3495705.58747  22035774.854    22035774.3614   22035781.4554
        -0.000          -0.000
 -14579038.975 9 -11342312.47948  20541420.950    20541420.2014   20541427.1224
        -0.000          -0.000
 -13081432.608 9 -10169124.65147  22677839.748    22677839.4284   22677845.7454
        -0.000          -0.000
 -10205879.614 9  -7936893.52646  23160365.194    23160364.1044   23160371.9754
        -0.000          -0.000
 97  3 14 19 41 59.9980000  0  6 27  2 19  7 26 15                  -0.001732226
  -4019992.564 9  -2851374.49349  19728886.409    19728885.7374   19728891.5584
        -0.000          -0.000
  -5558178.372 9  -4318262.49349  20631017.424    20631016.5244   20631023.2214
        -0.000          -0.000
   4613792.808 9   3540429.28147  22046697.086    22046696.3504   22046703.4444
        -0.000          -0.000
 -14662966.377 9 -11407710.43248  20525450.167    20525449.3574   20525456.2284
        -0.000          -0.000
 -13154892.160 9 -10226365.83347  22663860.767    22663860.4974   22663866.6954
        -0.000          -0.000
 -10254999.139 9  -7975168.42946  23151018.061    23151016.9744   23151024.6934
        -0.000          -0.000
 97  3 14 19 42 29.9980000  0  6 27  2 19  7 26 15                  -0.001745147
  -4019545.356 9  -2851026.03349  19728971.558    19728970.8984   19728976.6774
        -0.000          -0.000
  -5584633.035 9  -4338876.51049  20625983.256    20625982.3694   20625989.0864
        -0.000          -0.000
   4671502.904 9   3585398.14647  22057678.740    22057678.1574   22057685.3344
        -0.000          -0.000
 -14746469.531 9 -11472777.80148  20509560.037    20509559.2184   20509566.0794
        -0.000          -0.000
 -13227898.262 9 -10283253.66947  22649968.061    22649967.8644   22649974.2584
        -0.000          -0.000
 -10303614.224 9  -8013050.27446  23141766.893    23141765.8694   23141773.4604
        -0.000          -0.000
 97  3 14 19 42 59.9980000  0  6 27  2 19  7 26 15                  -0.001758051
  -4018579.531 9  -2850273.45149  19729155.363    19729154.6814   19729160.4934
        -0.000          -0.000
  -5610902.490 9  -4359346.20749  20620984.350    20620983.4404   20620990.1804
        -0.000          -0.000
   4729549.941 9   3630629.57347  22068724.796    22068724.2204   22068731.4114
        -0.000          -0.000
 -14829530.612 9 -11537500.70048  20493753.990    20493753.2304   20493760.0864
        -0.000          -0.000
 -13300412.859 9 -10339758.54547  22636169.054    22636168.8274   22636175.1834
        -0.000          -0.000
 -10351708.616 9  -8050526.36446  23132615.117    23132613.8654   23132621.5024
        -0.000          -0.000
 97  3 14 19 43 29.9980000  0  6 27  2 19  7 26 15                  -0.001770925
  -4017087.539 9  -2849110.87649  19729439.192    19729438.5844   19729444.4494
        -0.000          -0.000
  -5636999.547 9  -4379681.57449  20616018.197    20616017.3484   20616024.0894
        -0.000          -0.000
   4787933.168 9   3676122.94747  22079834.957    22079834.2794   22079841.4664
        -0.000          -0.000
 -14912120.869 9 -11601856.72148  20478037.637    20478036.7904   20478043.6454
        -0.000          -0.000
 -13372421.009 9 -10395868.79247  22622466.602    22622466.1434   22622472.5204
        -0.000          -0.000
 -10399279.674 9  -8087594.68946  23123562.450    23123561.2624   23123569.0414
        -0.000          -0.000
 97  3 14 19 43 59.9980000  0  6 27  2 19  7 26 15                  -0.001783782
  -4015081.413 9  -2847547.67549  19729821.047    19729820.3894   19729826.2484
        -0.000          -0.000
  -5662928.785 9  -4399886.16349  20611084.097    20611083.1844   20611089.9284
        -0.000          -0.000
   4846624.440 9   3721856.38047  22091003.570    22091002.7974   22091010.0924
        -0.000          -0.000
 -14994234.003 9 -11665840.95548  20462412.033    20462411.1684   20462418.0214
        -0.000          -0.000
 -13443933.490 9 -10451592.78647  22608858.246    22608857.9234   22608864.1724
        -0.000          -0.000
 -10446334.696 9  -8124260.89546  23114608.050    23114607.0604   23114614.7154
        -0.000          -0.000
 97  3 14 19 44 29.9980000  0  6 27  2 19  7 26 15                  -0.001796603
  -4012560.403 9  -2845583.26549  19730300.823    19730300.1484   19730305.9904
        -0.000          -0.000
  -5688675.321 9  -4419948.38949  20606184.688    20606183.8064   20606190.4924
        -0.000          -0.000
   4905625.333 9   3767831.04847  22102230.835    22102230.2354   22102237.5964
        -0.000          -0.000
 -15075845.181 9 -11729434.06549  20446881.897    20446881.0594   20446887.8894
        -0.000          -0.000
 -13514925.871 9 -10506911.50047  22595348.697    22595348.4874   22595354.7464
        -0.000          -0.000
 -10492859.549 9  -8160513.97646  23105754.920    23105753.6804   23105761.2204
        -0.000          -0.000
 97  3 14 19 44 59.9980000  0  6 27  2 19  7 26 15                  -0.001809393
  -4009558.941 9  -2843244.47949  19730871.985    19730871.3124   19730877.1344
        -0.000          -0.000
  -5714245.367 9  -4439873.09449  20601318.960    20601318.0344   20601324.7284
        -0.000          -0.000
   4964915.206 9   3814030.90447  22113513.448    22113512.8544   22113520.0834
        -0.000          -0.000
 -15156964.074 9 -11792643.57149  20431445.492    20431444.6154   20431451.4834
        -0.000          -0.000
 -13585412.399 9 -10561836.06547  22581935.405    22581935.3414   22581941.5274
        -0.000          -0.000
 -10538864.512 9  -8196361.96546  23097000.275    23096999.2004   23097006.7894
        -0.000          -0.000
 97  3 14 19 45 29.9980000  0  6 27  2 19  7 26 15                  -0.001822159
  -4006086.255 9  -2840538.50149  19731532.795    19731532.1354   19731538.0064
        -0.000          -0.000
  -5739627.844 9  -4459651.64949  20596488.882    20596487.9584   20596494.5954
        -0.000          -0.000
   5024495.963 9   3860457.42247  22124851.406    22124850.7444   22124857.9104
        -0.000          -0.000
 -15237603.362 9 -11855479.36149  20416100.413    20416099.5184   20416106.3024
        -0.000          -0.000
 -13655403.870 9 -10616374.88347  22568616.829    22568616.4534   22568622.5424
        -0.000          -0.000
 -10584344.274 9  -8231800.71346  23088345.607    23088344.6424   23088352.2254
        -0.000          -0.000
 97  3 14 19 45 59.9980000  0  6 27  2 19  7 26 15                  -0.001834906
  -4002159.234 9  -2837478.50349  19732280.049    19732279.4174   19732285.3044
        -0.000          -0.000
  -5764829.078 9  -4479288.97349  20591693.298    20591692.3384   20591698.9534
        -0.000          -0.000
   5084362.573 9   3907106.70647  22136243.674    22136242.9684   22136250.1524
        -0.000          -0.000
 -15317798.267 9 -11917968.87649  20400839.889    20400838.8934   20400845.6894
        -0.000          -0.000
 -13724902.947 9 -10670529.98947  22555391.629    22555391.2484   22555397.3924
        -0.000          -0.000
 -10629301.497 9  -8266832.27746  23079790.810    23079789.6244   23079797.0734
        -0.000          -0.000
 97  3 14 19 46 29.9980000  0  6 27  2 19  7 26 15                  -0.001847628
  -3997778.278 9  -2834064.78649  19733113.834    19733113.1304   19733118.9744
        -0.000          -0.000
  -5789855.781 9  -4498790.29849  20586930.907    20586929.9554   20586936.5254
        -0.000          -0.000
   5144533.142 9   3953992.82647  22147693.658    22147693.0614   22147700.2794
        -0.000          -0.000
 -15397564.245 9 -11980124.16749  20385660.823    20385659.9214   20385666.7124
        -0.000          -0.000
 -13793905.538 9 -10724298.23247  22542260.663    22542260.4584   22542266.7304
        -0.000          -0.000
 -10673735.075 9  -8301455.80546  23071335.222    23071334.0994   23071341.5724
        -0.000          -0.000
 97  3 14 19 46 59.9980000  0  6 27  2 19  7 26 15                  -0.001860318
  -3992927.320 9  -2830284.83049  19734036.860    19734036.2214   19734042.1304
        -0.000          -0.000
  -5814691.456 9  -4518142.76649  20582204.902    20582203.9274   20582210.4274
        -0.000          -0.000
   5205027.056 9   4001130.89047  22159205.582    22159204.8714   22159211.9434
        -0.000          -0.000
 -15476893.091 9 -12041938.83349  20370565.065    20370564.1624   20370570.9064
        -0.000          -0.000
 -13862404.797 9 -10777674.27147  22529225.608    22529225.3724   22529231.5974
        -0.000          -0.000
 -10717631.548 9  -8335660.83246  23062981.850    23062980.7614   23062988.2754
        -0.000          -0.000
 97  3 14 19 47 29.9980000  0  6 27  2 19  7 26 15                  -0.001872977
  -3987603.605 9  -2826136.49849  19735049.990    19735049.3104   19735055.2164
        -0.000          -0.000
  -5839342.435 9  -4537351.31949  20577514.040    20577513.0344   20577519.5204
        -0.000          -0.000
   5265829.803 9   4048509.61647  22170775.765    22170775.2024   22170782.3434
        -0.000          -0.000
 -15555784.191 9 -12103412.39749  20355552.582    20355551.6354   20355558.4234
        -0.000          -0.000
 -13930388.398 9 -10830648.50647  22516288.738    22516288.4284   22516294.6294
        -0.000          -0.000
 -10760997.587 9  -8369452.51646  23054729.674    23054728.4544   23054736.0144
        -0.000          -0.000
 97  3 14 19 47 59.9980000  0  6 27  2 19  7 26 15                  -0.001885607
  -3981792.181 9  -2821608.13149  19736155.908    19736155.2244   19736161.0624
        -0.000          -0.000
  -5863810.131 9  -4556417.05449  20572858.030    20572857.0174   20572863.4354
        -0.000          -0.000
   5326936.491 9   4096125.17647  22182403.933    22182403.3724   22182410.5664
        -0.000          -0.000
 -15634222.543 9 -12164533.17549  20340626.331    20340625.3684   20340632.0784
        -0.000          -0.000
 -13997846.895 9 -10883213.57947  22503451.736    22503451.5344   22503457.7474
        -0.000          -0.000
 -10803833.445 9  -8402831.07246  23046578.278    23046577.1364   23046584.5164
        -0.000          -0.000
 97  3 14 19 48 29.9980000  0  6 27  2 19  7 26 15                  -0.001898210
  -3975483.402 9  -2816692.21149  19737356.415    19737355.7734   19737361.6154
        -0.000          -0.000
  -5888088.952 9  -4575335.61149  20568237.943    20568236.8964   20568243.3014
        -0.000          -0.000
   5388340.086 9   4143972.08747  22194088.960    22194088.2724   22194095.3044
        -0.000          -0.000
 -15712186.740 9 -12225284.47749  20325790.227    20325789.2494   20325795.9874
        -0.000          -0.000
 -14064782.572 9 -10935371.23847  22490714.651    22490714.1934   22490720.2324
        -0.000          -0.000
 -10846134.990 9  -8435793.29746  23038528.616    23038527.3804   23038534.6914
        -0.000          -0.000
 97  3 14 19 48 59.9980000  0  6 27  2 19  7 26 15                  -0.001910801
  -3968684.987 9  -2811394.76249  19738650.154    19738649.4674   19738655.3914
        -0.000          -0.000
  -5912189.445 9  -4594115.21649  20563651.774    20563650.7114   20563657.1214
        -0.000          -0.000
   5450022.358 9   4192036.14947  22205826.702    22205826.0964   22205833.0764
        -0.000          -0.000
 -15789674.575 9 -12285664.58849  20311044.727    20311043.7574   20311050.5244
        -0.000          -0.000
 -14131204.967 9 -10987128.94447  22478074.568    22478074.3434   22478080.4984
        -0.000          -0.000
 -10887911.223 9  -8468346.17446  23030578.623    23030577.5244   23030584.9814
        -0.000          -0.000
 97  3 14 19 49 29.9980000  0  6 27  2 19  7 26 15                  -0.001923385
  -3961386.757 9  -2805707.85049  19740038.964    19740038.2964   19740044.2314
        -0.000          -0.000
  -5936130.998 9  -4612770.96849  20559095.747    20559094.7154   20559101.1394
        -0.000          -0.000
   5511975.206 9   4240311.05647  22217615.740    22217615.2554   22217622.4074
        -0.000          -0.000
 -15866690.361 9 -12345676.87149  20296389.089    20296388.1034   20296394.8734
        -0.000          -0.000
 -14197123.658 9 -11038494.13247  22465530.570    22465530.3674   22465536.6514
        -0.000          -0.000
 -10929165.253 9  -8500492.12846  23022728.167    23022727.1074   23022734.6124
        -0.000          -0.000
 97  3 14 19 49 59.9980000  0  6 27  2 19  7 26 15                  -0.001935971
  -3953579.188 9  -2799624.04349  19741524.725    19741524.0774   19741529.9854
        -0.000          -0.000
  -5959912.702 9  -4631302.16349  20554570.274    20554569.2184   20554575.6344
        -0.000          -0.000
   5574209.014 9   4288804.88447  22229458.603    22229457.9974   22229465.3154
        -0.000          -0.000
 -15943233.986 9 -12405321.23349  20281823.233    20281822.2474   20281828.9904
        -0.000          -0.000
 -14262558.617 9 -11089482.42947  22453078.935    22453078.5974   22453084.7584
        -0.000          -0.000
 -10969887.455 9  -8532223.68646  23014979.170    23014978.0024   23014985.4164
        -0.000          -0.000
 97  3 14 19 50 29.9980000  0  6 27  2 19  7 26 15                  -0.001948566
  -3945289.766 9  -2793164.76349  19743102.156    19743101.4854   19743107.3794
        -0.000          -0.000
  -5983540.501 9  -4649713.43349  20550073.955    20550072.9014   20550079.3414
        -0.000          -0.000
   5636721.586 9   4337515.92847  22241354.349    22241353.7414   22241361.1274
        -0.000          -0.000
 -16019311.093 9 -12464602.07349  20267346.301    20267345.2794   20267352.0194
        -0.000          -0.000
 -14327533.153 9 -11140111.93747  22440714.930    22440714.4974   22440720.4714
        -0.000          -0.000
 -11010084.724 9  -8563546.18046  23007329.787    23007328.6384   23007336.0684
        -0.000          -0.000
 97  3 14 19 50 59.9980000  0  6 27  2 19  7 26 15                  -0.001961158
  -3936503.190 9  -2786318.09349  19744774.097    19744773.4484   19744779.3574
        -0.000          -0.000
  -6007008.937 9  -4668000.52549  20545607.915    20545606.9424   20545613.4224
        -0.000          -0.000
   5699535.719 9   4386461.97347  22253307.539    22253306.8574   22253314.3334
        -0.000          -0.000
 -16094915.624 9 -12523514.67349  20252959.302    20252958.2494   20252964.9454
        -0.000          -0.000
 -14392033.142 9 -11190371.65647  22428440.729    22428440.4344   22428446.5184
        -0.000          -0.000
 -11049743.093 9  -8594448.77546  22999782.689    22999781.7824   22999789.2904
        -0.000          -0.000
 97  3 14 19 51 29.9980000  0  6 27  2 19  7 26 15                  -0.001973744
  -3927225.164 9  -2779088.47649  19746539.651    19746539.0064   19746544.9584
        -0.000          -0.000
  -6030313.421 9  -4686159.85549  20541173.199    20541172.2124   20541178.7444
        -0.000          -0.000
   5762647.132 9   4435639.64747  22265317.260    22265316.5524   22265324.0364
        -0.000          -0.000
 -16170047.128 9 -12582058.68149  20238662.219    20238661.2164   20238667.9304
        -0.000          -0.000
 -14456054.435 9 -11240258.35847  22416257.881    22416257.5684   22416263.7204
        -0.000          -0.000
 -11088858.345 9  -8624928.15946  22992339.653    22992338.4364   22992345.9034
        -0.000          -0.000
 97  3 14 19 51 59.9980000  0  6 27  2 19  7 26 15                  -0.001986324
  -3917493.382 9  -2771505.29349  19748391.542    19748390.8934   19748396.8404
        -0.000          -0.000
  -6053459.800 9  -4704195.98749  20536768.546    20536767.6124   20536774.0994
        -0.000          -0.000
   5826037.218 9   4485034.46047  22277379.986    22277379.3614   22277386.7494
        -0.000          -0.000
 -16244728.953 9 -12640252.28749  20224450.684    20224449.7154   20224456.4354
        -0.000          -0.000
 -14519597.614 9 -11289772.52147  22404166.012    22404165.6784   22404171.8794
        -0.000          -0.000
 -11127445.398 9  -8654995.93946  22984996.610    22984995.5194   22985003.0874
        -0.000          -0.000
 97  3 14 19 52 29.9980000  0  6 27  2 19  7 26 15                  -0.001998883
  -3907312.643 9  -2763572.25149  19750328.916    19750328.2724   19750334.1924
        -0.000          -0.000
  -6076460.151 9  -4722118.32249  20532391.832    20532390.8324   20532397.3244
        -0.000          -0.000
   5889700.796 9   4534642.39247  22289494.794    22289494.1844   22289501.5554
        -0.000          -0.000
 -16318966.034 9 -12698099.33949  20210323.867    20210322.8954   20210329.5684
        -0.000          -0.000
 -14582641.044 9 -11338897.28647  22392169.600    22392169.1044   22392175.0474
        -0.000          -0.000
 -11165510.497 9  -8684657.04646  22977753.039    22977751.9644   22977759.5174
        -0.000          -0.000
 97  3 14 19 52 59.9980000  0  6 27  2 19  7 26 15                  -0.002011416
  -3896653.303 9  -2755266.28649  19752357.329    19752356.6984   19752362.5684
        -0.000          -0.000
  -6099310.997 9  -4739924.17949  20528043.514    20528042.5024   20528048.9844
        -0.000          -0.000
   5953639.823 9   4584464.96147  22301661.884    22301661.4414   22301668.8474
        -0.000          -0.000
 -16392755.345 9 -12755597.48449  20196282.239    20196281.2554   20196287.9424
        -0.000          -0.000
 -14645155.316 9 -11387609.69247  22380273.232    22380272.8804   22380278.8744
        -0.000          -0.000
 -11203042.176 9  -8713902.47546  22970611.124    22970609.9284   22970617.3534
        -0.000          -0.000
 97  3 14 19 53 29.9970000  0  6 27  2 19  7 26 15                  -0.002023930
  -3885520.850 9  -2746591.66749  19754475.830    19754475.2014   19754481.0224
        -0.000          -0.000
  -6122017.113 9  -4757617.26349  20523722.766    20523721.7034   20523728.1494
        -0.000          -0.000
   6017833.052 9   4634485.61146  22313877.560    22313877.0954   22313884.4524
        -0.000          -0.000
 -16466104.811 9 -12812752.89049  20182324.250    20182323.2884   20182329.9904
        -0.000          -0.000
 -14707143.243 9 -11435911.95147  22368476.979    22368476.8664   22368482.9864
        -0.000          -0.000
 -11240044.990 9  -8742735.79546  22963569.613    22963568.5624   22963575.8354
        -0.000          -0.000
 97  3 14 19 53 59.9970000  0  6 27  2 19  7 26 15                  -0.002036426
  -3873909.371 9  -2737543.78249  19756685.510    19756684.8324   19756690.6564
        -0.000          -0.000
  -6144582.575 9  -4775200.74249  20519428.756    20519427.6964   20519434.0754
        -0.000          -0.000
   6082282.052 9   4684705.56246  22326141.987    22326141.3444   22326148.8164
        -0.000          -0.000
 -16539021.959 9 -12869571.42249  20168448.569    20168447.5944   20168454.2934
        -0.000          -0.000
 -14768607.988 9 -11483806.55547  22356781.021    22356780.6124   22356786.6944
        -0.000          -0.000
 -11276519.889 9  -8771157.77646  22956628.590    22956627.4384   22956634.8884
        -0.000          -0.000
 97  3 14 19 54 29.9970000  0  6 27  2 19  7 26 15                  -0.002048908
  -3861803.857 9  -2728110.93149  19758989.191    19758988.5074   19758994.3594
        -0.000          -0.000
  -6166998.376 9  -4792667.60049  20515163.216    20515162.1094   20515168.5294
        -0.000          -0.000
   6146994.271 9   4735130.61546  22338456.002    22338455.5694   22338463.2374
        -0.000          -0.000
 -16611480.197 9 -12926032.36749  20154660.183    20154659.2104   20154665.8884
        -0.000          -0.000
 -14829547.505 9 -11531291.90947  22345184.700    22345184.2814   22345190.2804
        -0.000          -0.000
 -11312457.707 9  -8799161.22846  22949789.876    22949788.7914   22949796.0874
        -0.000          -0.000
 97  3 14 19 54 59.9970000  0  6 27  2 19  7 26 15                  -0.002061386
  -3849218.950 9  -2718304.51849  19761384.003    19761383.2994   19761389.2034
        -0.000          -0.000
  -6189259.083 9  -4810013.61049  20510927.061    20510926.0414   20510932.4634
        -0.000          -0.000
   6211961.635 9   4785754.49246  22350818.921    22350818.4214   22350826.0814
        -0.000          -0.000
 -16683472.602 9 -12982130.32049  20140960.498    20140959.5344   20140966.2474
        -0.000          -0.000
 -14889980.139 9 -11578382.23747  22333684.344    22333684.1234   22333690.2524
        -0.000          -0.000
 -11347858.242 9  -8826746.02546  22943053.423    22943052.3264   22943059.4494
        -0.000          -0.000
 97  3 14 19 55 29.9970000  0  6 27  2 19  7 26 15                  -0.002073868
  -3836181.897 9  -2708145.78049  19763864.769    19763864.1224   19763870.0554
        -0.000          -0.000
  -6211365.473 9  -4827239.36349  20506720.408    20506719.3144   20506725.7234
        -0.000          -0.000
   6277171.094 9   4836567.00546  22363228.072    22363227.4894   22363235.0404
        -0.000          -0.000
 -16755002.333 9 -13037867.75149  20127348.777    20127347.8174   20127354.5524
        -0.000          -0.000
 -14949922.212 9 -11625090.35447  22322277.609    22322277.5394   22322283.6634
        -0.000          -0.000
 -11382732.165 9  -8853920.47046  22936417.085    22936415.9904   22936423.1774
        -0.000          -0.000
 97  3 14 19 55 59.9970000  0  6 27  2 19  7 26 15                  -0.002086344
  -3822685.456 9  -2697629.08949  19766433.103    19766432.4634   19766438.3434
        -0.000          -0.000
  -6233302.658 9  -4844333.27049  20502545.849    20502544.8434   20502551.2044
        -0.000          -0.000
   6342634.549 9   4887577.42946  22375685.581    22375684.7654   22375692.2774
        -0.000          -0.000
 -16826046.102 9 -13093226.51449  20113829.617    20113828.6364   20113835.3554
        -0.000          -0.000
 -15009360.333 9 -11671405.76347  22310967.623    22310967.0194   22310973.0554
        -0.000          -0.000
 -11417069.143 9  -8880676.55146  22929882.915    22929881.8144   22929889.0574
        -0.000          -0.000
 97  3 14 19 56 29.9970000  0  6 27  2 19  7 26 15                  -0.002098838
  -3808734.098 9  -2686757.91249  19769088.091    19769087.3864   19769093.2564
        -0.000          -0.000
  -6255091.532 9  -4861311.61149  20498399.605    20498398.5444   20498404.8824
        -0.000          -0.000
   6408337.475 9   4938774.47046  22388188.501    22388187.6804   22388195.1474
        -0.000          -0.000
 -16896614.935 9 -13148215.19749  20100400.749    20100399.8434   20100406.5274
        -0.000          -0.000
 -15068320.435 9 -11717348.69147  22299747.602    22299747.2374   22299753.2864
        -0.000          -0.000
 -11450884.352 9  -8907026.03946  22923448.127    22923447.0484   22923454.2834
        -0.000          -0.000
 97  3 14 19 56 59.9970000  0  6 27  2 19  7 26 15                  -0.002111359
  -3794322.516 9  -2675528.12749  19771830.497    19771829.7774   19771835.7174
        -0.000          -0.000
  -6276729.779 9  -4878172.58449  20494281.939    20494280.9444   20494287.2214
        -0.000          -0.000
   6474270.418 9   4990150.72346  22400735.146    22400734.3734   22400741.9344
        -0.000          -0.000
 -16966718.198 9 -13202841.09249  20087060.578    20087059.6284   20087066.3344
        -0.000          -0.000
 -15126810.263 9 -11762925.15447  22288617.055    22288616.9024   22288623.0134
        -0.000          -0.000
 -11484170.720 9  -8932963.42946  22917113.868    22917112.8034   22917120.1374
        -0.000          -0.000
 97  3 14 19 57 29.9970000  0  6 27  2 19  7 26 15                  -0.002123896
  -3779427.633 9  -2663921.74649  19774664.868    19774664.1854   19774670.1334
        -0.000          -0.000
  -6298209.867 9  -4894910.31249  20490194.490    20490193.4444   20490199.6914
        -0.000          -0.000
   6540446.490 9   5041716.44746  22413328.179    22413327.3074   22413334.9484
        -0.000          -0.000
 -17036357.005 9 -13257105.08049  20073808.805    20073807.8224   20073814.4464
        -0.000          -0.000
 -15184811.993 9 -11808121.30847  22277579.915    22277579.5534   22277585.7534
        -0.000          -0.000
 -11516918.947 9  -8958481.50846  22910882.200    22910881.0674   22910888.2894
        -0.000          -0.000
 97  3 14 19 57 59.9970000  0  6 27  2 19  7 26 15                  -0.002136435
  -3764033.817 9  -2651926.57249  19777594.181    19777593.5374   19777599.4714
        -0.000          -0.000
  -6319544.129 9  -4911534.41349  20486134.670    20486133.6654   20486139.9114
        -0.000          -0.000
   6606882.205 9   5093484.49146  22425970.473    22425969.6144   22425977.3394
        -0.000          -0.000
 -17105529.313 9 -13311005.56149  20060645.709    20060644.7454   20060651.3884
        -0.000          -0.000
 -15242308.467 9 -11852923.74647  22266638.981    22266638.3874   22266644.5724
        -0.000          -0.000
 -11549119.415 9  -8983572.75346  22904754.551    22904753.4804   22904760.7214
        -0.000          -0.000
 97  3 14 19 58 29.9970000  0  6 27  2 19  7 26 15                  -0.002148978
  -3748173.859 9  -2639568.17549  19780612.371    19780611.6574   19780617.4814
        -0.000          -0.000
  -6340755.271 9  -4928062.58049  20482098.362    20482097.3494   20482103.5544
        -0.000          -0.000
   6673571.484 9   5145450.10246  22438660.937    22438660.1784   22438667.8164
        -0.000          -0.000
 -17174267.477 9 -13364567.74649  20047565.304    20047564.2804   20047570.9144
        -0.000          -0.000
 -15299319.425 9 -11897347.88247  22255789.971    22255789.6274   22255795.6444
        -0.000          -0.000
 -11580791.584 9  -9008252.33846  22898727.450    22898726.4024   22898733.7344
        -0.000          -0.000
 97  3 14 19 58 59.9970000  0  6 27  2 19  7 26 15                  -0.002161497
  -3731859.570 9  -2626855.75149  19783716.928    19783716.1584   19783722.0414
        -0.000          -0.000
  -6361828.974 9  -4944483.64349  20478088.165    20478087.1654   20478093.4004
        -0.000          -0.000
   6740530.815 9   5197626.14946  22451402.885    22451402.1884   22451409.7354
        -0.000          -0.000
 -17242573.289 9 -13417793.03349  20034567.094    20034566.0794   20034572.7014
        -0.000          -0.000
 -15355813.513 9 -11941369.23147  22245039.377    22245039.0504   22245045.1624
        -0.000          -0.000
 -11611931.531 9  -9032517.22746  22892801.779    22892800.5944   22892807.9814
        -0.000          -0.000
 97  3 14 19 59 29.9970000  0  6 27  2 19  7 26 15                  -0.002173958
  -3715066.399 9  -2613770.18049  19786912.500    19786911.8164   19786917.7784
        -0.000          -0.000
  -6382746.940 9  -4960783.36049  20474107.574    20474106.5514   20474112.8264
        -0.000          -0.000
   6807794.720 9   5250039.53346  22464202.845    22464202.1564   22464209.7674
        -0.000          -0.000
 -17310424.964 9 -13470664.44549  20021655.258    20021654.2974   20021660.9634
        -0.000          -0.000
 -15411741.543 9 -11984949.50147  22234396.526    22234396.2874   22234402.4384
        -0.000          -0.000
 -11642523.254 9  -9056354.91746  22886980.286    22886979.2044   22886986.5544
        -0.000          -0.000
 97  3 14 19 59 59.9970000  0  6 27  2 19  7 26 15                  -0.002186375
  -3697806.069 9  -2600320.59249  19790197.168    19790196.4324   19790202.3634
        -0.000          -0.000
  -6403513.460 9  -4976965.06949  20470155.820    20470154.8274   20470161.1214
        -0.000          -0.000
   6875351.582 9   5302681.17846  22477058.449    22477057.8064   22477065.5494
        -0.000          -0.000
 -17377826.795 9 -13523185.33149  20008829.177    20008828.1764   20008834.8274
        -0.000          -0.000
 -15467124.928 9 -12028105.38647  22223857.585    22223857.2244   22223863.2284
        -0.000          -0.000
 -11672573.669 9  -9079770.80346  22881262.078    22881260.8724   22881268.1094
        -0.000          -0.000
 97  3 14 20  0 29.9970000  0  6 27  2 19  7 26 15                  -0.002198765
  -3680078.227 9  -2586506.69149  19793570.618    19793569.9074   19793575.7954
        -0.000          -0.000
  -6424110.860 9  -4993014.98749  20466236.263    20466235.2504   20466241.5994
        -0.000          -0.000
   6943195.984 9   5355546.91446  22489968.805    22489968.2794   22489975.9584
        -0.000          -0.000
 -17444765.776 9 -13575345.55749  19996091.051    19996090.0454   19996096.6874
        -0.000          -0.000
 -15521980.124 9 -12070849.70447  22213418.884    22213418.5604   22213424.5854
        -0.000          -0.000
 -11702074.243 9  -9102758.23146  22875648.202    22875647.0394   22875654.2614
        -0.000          -0.000
 97  3 14 20  0 59.9970000  0  6 27  2 19  7 26 15                  -0.002211143
  -3661858.998 9  -2572309.90449  19797037.583    19797036.8874   19797042.7424
        -0.000          -0.000
  -6444538.514 9  -5008932.64049  20462349.025    20462348.0314   20462354.3154
        -0.000          -0.000
   7011310.787 9   5408623.30846  22502930.724    22502930.1654   22502937.8574
        -0.000          -0.000
 -17511227.993 9 -13627134.27849  19983443.636    19983442.6904   19983449.3124
        -0.000          -0.000
 -15576310.629 9 -12113185.13647  22203080.088    22203079.8084   22203085.9144
        -0.000          -0.000
 -11731016.755 9  -9125310.83046  22870140.645    22870139.4824   22870146.7304
        -0.000          -0.000
 97  3 14 20  1 29.9970000  0  6 27  2 19  7 26 15                  -0.002223530
  -3643153.155 9  -2557733.93149  19800597.239    19800596.4724   19800602.3484
        -0.000          -0.000
  -6464822.046 9  -5024737.99549  20458489.192    20458488.2134   20458494.4834
        -0.000          -0.000
   7079670.513 9   5461890.55946  22515939.385    22515938.7404   22515946.3234
        -0.000          -0.000
 -17577214.995 9 -13678552.69749  19970886.816    19970885.7934   19970892.4434
        -0.000          -0.000
 -15630145.139 9 -12155134.08947  22192835.599    22192835.3104   22192841.5524
        -0.000          -0.000
 -11759408.132 9  -9147433.96646  22864738.001    22864736.7634   22864744.0544
        -0.000          -0.000
 97  3 14 20  1 59.9970000  0  6 27  2 19  7 26 15                  -0.002235948
  -3623988.512 9  -2542800.45549  19804244.052    19804243.3774   19804249.2824
        -0.000          -0.000
  -6484978.272 9  -5040444.14949  20454653.690    20454652.6694   20454658.9014
        -0.000          -0.000
   7148251.077 9   5515329.90646  22528989.834    22528989.2064   22528996.8524
        -0.000          -0.000
 -17642730.554 9 -13729603.76649  19958419.569    19958418.5544   19958425.2024
        -0.000          -0.000
 -15683522.690 9 -12196726.99047  22182678.331    22182678.0114   22182684.1054
        -0.000          -0.000
 -11787256.674 9  -9169134.11346  22859438.509    22859437.4024   22859444.4424
        -0.000          -0.000
 97  3 14 20  2 29.9970000  0  6 27  2 19  7 26 15                  -0.002248382
  -3604342.891 9  -2527492.19249  19807982.542    19807981.8894   19807987.8204
        -0.000          -0.000
  -6504985.533 9  -5056034.22449  20450846.390    20450845.3744   20450851.6294
        -0.000          -0.000
   7217064.081 9   5568950.36346  22542084.407    22542083.7914   22542091.5364
        -0.000          -0.000
 -17707753.745 9 -13780271.16249  19946046.101    19946045.0804   19946051.7064
        -0.000          -0.000
 -15736408.064 9 -12237936.38647  22172614.744    22172614.3094   22172620.3094
        -0.000          -0.000
 -11814543.193 9  -9190396.32246  22854245.875    22854244.8964   22854251.9734
        -0.000          -0.000
 97  3 14 20  2 59.9970000  0  6 27  2 19  7 26 15                  -0.002260825
  -3584205.464 9  -2511800.70349  19811814.583    19811813.9174   19811819.8654
        -0.000          -0.000
  -6524840.940 9  -5071505.96949  20447068.002    20447067.0204   20447073.3124
        -0.000          -0.000
   7286112.056 9   5622753.90846  22555223.768    22555223.0744   22555230.9674
        -0.000          -0.000
 -17772291.481 9 -13830560.29049  19933764.909    19933763.9024   19933770.5564
        -0.000          -0.000
 -15788782.166 9 -12278747.37247  22162648.241    22162647.8284   22162653.8464
        -0.000          -0.000
 -11841270.159 9  -9211222.52346  22849159.901    22849158.8864   22849166.0954
        -0.000          -0.000
 97  3 14 20  3 29.9970000  0  6 27  2 19  7 26 15                  -0.002273272
  -3563593.844 9  -2495739.71849  19815736.851    19815736.1714   19815742.0674
        -0.000          -0.000
  -6544543.991 9  -5086859.00049  20443318.591    20443317.6464   20443323.9284
        -0.000          -0.000
   7355397.230 9   5676742.29046  22568408.421    22568407.7464   22568415.5434
        -0.000          -0.000
 -17836350.692 9 -13880476.53849  19921574.811    19921573.8414   19921580.4854
        -0.000          -0.000
 -15840644.548 9 -12319159.59947  22152778.948    22152778.7104   22152784.7894
        -0.000          -0.000
 -11867444.265 9  -9231617.91746  22844179.110    22844178.1444   22844185.3824
        -0.000          -0.000
 97  3 14 20  3 59.9970000  0  6 27  2 19  7 26 15                  -0.002285715
  -3542476.151 9  -2479284.38549  19819755.441    19819754.7194   19819760.6044
        -0.000          -0.000
  -6564063.719 9  -5102069.17649  20439604.064    20439603.1374   20439609.4594
        -0.000          -0.000
   7424939.517 9   5730931.02046  22581642.299    22581641.5144   22581649.1754
        -0.000          -0.000
 -17899906.612 9 -13930000.60749  19909480.524    19909479.5344   19909486.1224
        -0.000          -0.000
 -15891975.088 9 -12359157.41947  22143011.078    22143010.8634   22143016.9474
        -0.000          -0.000
 -11893037.982 9  -9251561.05746  22839308.798    22839307.8264   22839315.1634
        -0.000          -0.000
 97  3 14 20  4 29.9970000  0  6 27  2 19  7 26 15                  -0.002298160
  -3520857.340 9  -2462438.56749  19823869.349    19823868.6514   19823874.5624
        -0.000          -0.000
  -6583411.263 9  -5117145.18549  20435922.356    20435921.3964   20435927.7794
        -0.000          -0.000
   7494722.747 9   5785307.48246  22594921.397    22594920.8024   22594928.5954
        -0.000          -0.000
 -17962977.633 9 -13979146.83949  19897478.440    19897477.4834   19897484.1004
        -0.000          -0.000
 -15942773.455 9 -12398740.56447  22133344.645    22133344.2254   22133350.3674
        -0.000          -0.000
 -11918066.266 9  -9271063.62146  22834546.009    22834545.0344   22834552.3854
        -0.000          -0.000
 97  3 14 20  4 59.9970000  0  6 27  2 19  7 26 15                  -0.002310608
  -3498758.105 9  -2445218.40149  19828074.739    19828074.0404   19828079.9384
        -0.000          -0.000
  -6602599.789 9  -5132097.28149  20432270.903    20432269.9644   20432276.2974
        -0.000          -0.000
   7564736.907 9   5839863.92946  22608244.631    22608244.0084   22608251.7774
        -0.000          -0.000
 -18025572.258 9 -14027921.85449  19885567.160    19885566.1694   19885572.7524
        -0.000          -0.000
 -15993046.740 9 -12437914.54347  22123777.702    22123777.4484   22123783.6084
        -0.000          -0.000
 -11942530.250 9  -9290126.42946  22829890.605    22829889.6964   22829896.9164
        -0.000          -0.000
 97  3 14 20  5 29.9970000  0  6 27  2 19  7 26 15                  -0.002323046
  -3476184.212 9  -2427628.37049  19832370.368    19832369.6764   19832375.6744
        -0.000          -0.000
  -6621632.896 9  -5146928.28049  20428649.122    20428648.1314   20428654.4104
        -0.000          -0.000
   7634983.963 9   5894601.82246  22621612.367    22621611.6644   22621619.3724
        -0.000          -0.000
 -18087680.845 9 -14076318.13649  19873748.319    19873747.3214   19873753.8844
        -0.000          -0.000
 -16042788.774 9 -12476674.56347  22114312.077    22114311.8204   22114317.9814
        -0.000          -0.000
 -11966419.072 9  -9308741.08646  22825344.855    22825343.7244   22825351.1394
        -0.000          -0.000
 97  3 14 20  5 59.9970000  0  6 27  2 19  7 26 15                  -0.002335471
  -3453150.426 9  -2409679.97948  19836753.451    19836752.8024   19836758.8114
        -0.000          -0.000
  -6640530.995 9  -5161654.07849  20425052.855    20425051.9414   20425058.2304
        -0.000          -0.000
   7705449.636 9   5949510.07146  22635021.786    22635021.0014   22635028.7134
        -0.000          -0.000
 -18149323.536 9 -14124351.38649  19862018.085    19862017.1024   19862023.6674
        -0.000          -0.000
 -16091997.080 9 -12515018.70747  22104948.145    22104947.8634   22104953.9684
        -0.000          -0.000
 -11989746.252 9  -9326918.10146  22820905.657    22820904.7064   22820912.0914
        -0.000          -0.000
 97  3 14 20  6 29.9970000  0  6 27  2 19  7 26 15                  -0.002347861
  -3429658.892 9  -2391374.90848  19841223.802    19841223.1674   19841229.1064
        -0.000          -0.000
  -6659269.671 9  -5176255.65049  20421487.076    20421486.1194   20421492.3054
        -0.000          -0.000
   7776159.405 9   6004608.53646  22648477.481    22648476.5764   22648484.3024
        -0.000          -0.000
 -18210495.881 9 -14172018.13049  19850377.409    19850376.3814   19850382.9364
        -0.000          -0.000
 -16140640.753 9 -12552922.86647  22095691.619    22095691.2614   22095697.4134
        -0.000          -0.000
 -12012499.943 9  -9344648.22746  22816575.961    22816574.9444   22816582.1864
        -0.000          -0.000
 97  3 14 20  6 59.9970000  0  6 27  2 19  7 26 15                  -0.002360203
  -3405695.113 9  -2372701.84348  19845784.017    19845783.3504   19845789.2654
        -0.000          -0.000
  -6677839.719 9  -5190725.82549  20417953.316    20417952.3264   20417958.5804
        -0.000          -0.000
   7847139.327 9   6059917.50946  22661984.400    22661983.5954   22661991.3014
        -0.000          -0.000
 -18271180.464 9 -14219304.80149  19838829.446    19838828.4454   19838834.9954
        -0.000          -0.000
 -16188710.679 9 -12590379.94547  22086544.263    22086543.8444   22086549.9754
        -0.000          -0.000
 -12034665.170 9  -9361919.83846  22812358.233    22812357.0144   22812364.3074
        -0.000          -0.000
 97  3 14 20  7 29.9970000  0  6 27  2 19  7 26 15                  -0.002372510
  -3381250.498 9  -2353654.10748  19850435.706    19850435.0304   19850440.9114
        -0.000          -0.000
  -6696251.567 9  -5205072.71749  20414449.692    20414448.7014   20414454.9644
        -0.000          -0.000
   7918389.924 9   6115437.39946  22675543.143    22675542.3084   22675549.9124
        -0.000          -0.000
 -18331381.181 9 -14266214.42849  19827373.574    19827372.5964   19827379.1554
        -0.000          -0.000
 -16236227.255 9 -12627405.85347  22077502.178    22077501.7744   22077507.9174
        -0.000          -0.000
 -12056261.031 9  -9378747.75146  22808248.741    22808247.4694   22808254.6734
        -0.000          -0.000
 97  3 14 20  7 59.9970000  0  6 27  2 19  7 26 15                  -0.002384787
  -3356296.795 9  -2334209.68348  19855184.328    19855183.5634   19855189.4614
        -0.000          -0.000
  -6714479.061 9  -5219275.96249  20410981.029    20410980.0334   20410986.3274
        -0.000          -0.000
   7989923.688 9   6171177.93146  22689155.388    22689154.7354   22689162.4124
        -0.000          -0.000
 -18391079.559 9 -14312732.62549  19816013.378    19816012.3604   19816018.8924
        -0.000          -0.000
 -16283181.252 9 -12663993.37747  22068566.991    22068566.7094   22068572.8454
        -0.000          -0.000
 -12077270.968 9  -9395119.11946  22804250.476    22804249.3374   22804256.5214
        -0.000          -0.000
 97  3 14 20  8 29.9970000  0  6 27  2 19  7 26 15                  -0.002397064
  -3330836.160 9  -2314370.24148  19860029.139    19860028.4684   19860034.4854
        -0.000          -0.000
  -6732529.284 9  -5233341.06549  20407546.175    20407545.2104   20407551.4994
        -0.000          -0.000
   8061715.397 9   6227119.47046  22702816.700    22702816.2874   22702824.0804
        -0.000          -0.000
 -18450279.641 9 -14358862.54549  19804747.909    19804746.9394   19804753.4624
        -0.000          -0.000
 -16329610.559 9 -12700172.05347  22059731.718    22059731.3964   22059737.5774
        -0.000          -0.000
 -12097707.362 9  -9411043.56546  22800361.516    22800360.4094   22800367.6754
        -0.000          -0.000
 97  3 14 20  8 59.9970000  0  6 27  2 19  7 26 15                  -0.002409355
  -3304837.945 9  -2294111.91148  19864976.490    19864975.8434   19864981.7934
        -0.000          -0.000
  -6750416.138 9  -5247278.87649  20404142.421    20404141.4174   20404147.7994
        -0.000          -0.000
   8133750.845 9   6283250.93146  22716524.906    22716524.1274   22716532.0714
        -0.000          -0.000
 -18508968.502 9 -14404594.10349  19793579.822    19793578.8314   19793585.3424
        -0.000          -0.000
 -16375519.904 9 -12735945.56947  22050995.464    22050995.2144   22051001.3884
        -0.000          -0.000
 -12117566.248 9  -9426518.02446  22796582.629    22796581.4254   22796588.6894
        -0.000          -0.000
 97  3 14 20  9 29.9970000  0  6 27  2 19  7 26 15                  -0.002421661
  -3278312.476 9  -2273442.72948  19870024.113    19870023.4394   19870029.4184
        -0.000          -0.000
  -6768151.825 9  -5261098.89449  20400767.363    20400766.4634   20400772.7954
        -0.000          -0.000
   8206009.861 9   6339556.57346  22730275.184    22730274.7484   22730282.6094
        -0.000          -0.000
 -18567159.524 9 -14449937.74249  19782506.427    19782505.4374   19782511.9284
        -0.000          -0.000
 -16420904.747 9 -12771310.37647  22042359.083    22042358.8034   22042364.9354
        -0.000          -0.000
 -12136850.660 9  -9441544.81046  22792912.793    22792911.7064   22792918.9164
        -0.000          -0.000
 97  3 14 20  9 59.9970000  0  6 27  2 19  7 26 15                  -0.002433971
  -3251276.778 9  -2252375.96548  19875168.793    19875168.1774   19875174.1994
        -0.000          -0.000
  -6785729.905 9  -5274796.10049  20397422.430    20397421.4494   20397427.7964
        -0.000          -0.000
   8278484.265 9   6396030.11346  22744066.962    22744066.1504   22744073.9304
        -0.000          -0.000
 -18624853.966 9 -14494894.43149  19771527.473    19771526.4974   19771532.9864
        -0.000          -0.000
 -16465751.596 9 -12806255.96647  22033824.794    22033824.6304   22033830.7544
        -0.000          -0.000
 -12155549.549 9  -9456115.35646  22789354.482    22789353.4004   22789360.7204
        -0.000          -0.000
 97  3 14 20 10 29.9970000  0  6 27  2 19  7 26 15                  -0.002446283
  -3223759.033 9  -2230933.58948  19880405.377    19880404.7024   19880410.6874
        -0.000          -0.000
  -6803174.693 9  -5288389.45049  20394102.786    20394101.8574   20394108.2104
        -0.000          -0.000
   8351169.724 9   6452668.04646  22757898.197    22757897.7454   22757905.5524
        -0.000          -0.000
 -18682065.589 9 -14539474.89549  19760640.472    19760639.4544   19760645.9594
        -0.000          -0.000
 -16510070.894 9 -12840790.49247  22025391.293    22025391.0594   22025397.1054
        -0.000          -0.000
 -12173677.897 9  -9470241.34146  22785904.746    22785903.6174   22785910.8954
        -0.000          -0.000
 97  3 14 20 10 59.9970000  0  6 27  2 19  7 26 15                  -0.002458557
  -3195767.218 9  -2209121.80048  19885731.984    19885731.3754   19885737.3944
        -0.000          -0.000
  -6820479.156 9  -5301873.44049  20390809.891    20390808.9374   20390815.2654
        -0.000          -0.000
   8424096.889 9   6509494.34646  22771776.177    22771775.3384   22771783.1814
        -0.000          -0.000
 -18738798.016 9 -14583681.97049  19749844.656    19749843.6284   19749850.1044
        -0.000          -0.000
 -16553828.511 9 -12874887.33247  22017064.735    22017064.3434   22017070.2404
        -0.000          -0.000
 -12191226.912 9  -9483915.89546  22782565.290    22782564.1394   22782571.2184
        -0.000          -0.000
 97  3 14 20 11 29.9970000  0  6 27  2 19  7 26 15                  -0.002470801
  -3167345.601 9  -2186975.10348  19891140.427    19891139.8004   19891145.7994
        -0.000          -0.000
  -6837643.093 9  -5315247.93849  20387543.660    20387542.7284   20387549.1224
        -0.000          -0.000
   8497257.045 9   6566502.20746  22785697.966    22785697.3104   22785705.1734
        -0.000          -0.000
 -18795075.862 9 -14627534.81849  19739135.282    19739134.2724   19739140.7234
        -0.000          -0.000
 -16597037.544 9 -12908556.69747  22008841.998    22008841.8064   22008847.8204
        -0.000          -0.000
 -12208211.158 9  -9497150.35746  22779333.012    22779332.0574   22779339.3534
        -0.000          -0.000
 97  3 14 20 11 59.9970000  0  6 27  2 19  7 26 15                  -0.002483019
  -3138488.882 9  -2164489.36048  19896631.730    19896631.0594   19896637.0394
        -0.000          -0.000
  -6854655.917 9  -5328504.67849  20384306.230    20384305.2894   20384311.6734
        -0.000          -0.000
   8570654.379 9   6623694.85946  22799664.993    22799664.4104   22799672.3334
        -0.000          -0.000
 -18850895.038 9 -14671030.25949  19728513.199    19728512.2054   19728518.6984
        -0.000          -0.000
 -16639707.513 9 -12941806.03747  22000722.319    22000722.0374   22000728.0254
        -0.000          -0.000
 -12224633.980 9  -9509947.35546  22776207.859    22776206.9404   22776214.1834
        -0.000          -0.000
 97  3 14 20 12 29.9970000  0  6 27  2 19  7 26 15                  -0.002495211
  -3109176.766 9  -2141648.76848  19902209.653    19902208.9974   19902215.0004
        -0.000          -0.000
  -6871518.779 9  -5341644.57349  20381097.338    20381096.3914   20381102.7404
        -0.000          -0.000
   8644298.693 9   6681079.95946  22813679.071    22813678.6484   22813686.4984
        -0.000          -0.000
 -18906254.160 9 -14714167.21949  19717978.689    19717977.6984   19717984.1804
        -0.000          -0.000
 -16681834.941 9 -12974632.59947  21992705.720    21992705.4374   21992711.4384
        -0.000          -0.000
 -12240491.773 9  -9522304.06146  22773190.125    22773189.2794   22773196.5934
        -0.000          -0.000
 97  3 14 20 12 59.9970000  0  6 27  2 19  7 26 15                  -0.002507381
  -3079388.358 9  -2118437.03948  19907878.143    19907877.5134   19907883.5684
        -0.000          -0.000
  -6888221.794 9  -5354659.91649  20377918.800    20377917.9414   20377924.2244
        -0.000          -0.000
   8718189.727 9   6738657.31746  22827740.248    22827739.7544   22827747.6224
        -0.000          -0.000
 -18961148.251 9 -14756941.82249  19707532.663    19707531.7004   19707538.1114
        -0.000          -0.000
 -16723419.405 9 -13007036.08147  21984792.447    21984792.2154   21984798.1644
        -0.000          -0.000
 -12255777.067 9  -9534214.66346  22770281.454    22770280.5834   22770287.9974
        -0.000          -0.000
 97  3 14 20 13 29.9970000  0  6 27  2 19  7 26 15                  -0.002519554
  -3049125.892 9  -2094855.92148  19913636.957    19913636.3164   19913642.3374
        -0.000          -0.000
  -6904788.412 9  -5367568.96949  20374766.321    20374765.4034   20374771.6644
        -0.000          -0.000
   8792303.053 9   6796407.92146  22841843.831    22841843.0224   22841851.0174
        -0.000          -0.000
 -19015574.345 9 -14799351.74649  19697175.781    19697174.7604   19697181.1584
        -0.000          -0.000
 -16764491.237 9 -13039040.10847  21976976.725    21976976.5164   21976982.3954
        -0.000          -0.000
 -12270499.045 9  -9545686.33546  22767480.130    22767479.0424   22767486.4974
        -0.000          -0.000
 97  3 14 20 13 59.9970000  0  6 27  2 19  7 26 15                  -0.002531736
  -3018385.333 9  -2070902.25548  19919486.712    19919486.0474   19919492.0934
        -0.000          -0.000
  -6921225.226 9  -5380376.87449  20371638.492    20371637.5594   20371643.7914
        -0.000          -0.000
   8866638.867 9   6854331.84346  22855989.031    22855988.4894   22855996.6254
        -0.000          -0.000
 -19069525.900 9 -14841391.90649  19686909.069    19686908.0874   19686914.5094
        -0.000          -0.000
 -16805058.361 9 -13070650.84147  21969256.954    21969256.8304   21969262.7784
        -0.000          -0.000
 -12284657.943 9  -9556719.23146  22764785.588    22764784.6574   22764792.0744
        -0.000          -0.000
 97  3 14 20 14 29.9970000  0  6 27  2 19  7 26 15                  -0.002543925
  -2987173.024 9  -2046580.99348  19925426.160    19925425.5454   19925431.6364
        -0.000          -0.000
  -6937540.157 9  -5393089.80249  20368533.775    20368532.8984   20368539.1704
        -0.000          -0.000
   8941189.607 9   6912423.27146  22870175.717    22870175.1564   22870182.9934
        -0.000          -0.000
 -19123000.283 9 -14883060.23949  19676733.241    19676732.3024   19676738.7314
        -0.000          -0.000
 -16845122.234 9 -13101869.44747  21961633.093    21961632.9184   21961638.9194
        -0.000          -0.000
 -12298257.863 9  -9567316.55646  22762197.545    22762196.7104   22762203.9614
        -0.000          -0.000
 97  3 14 20 14 59.9970000  0  6 27  2 19  7 26 15                  -0.002556121
  -2955483.126 9  -2021887.59448  19931456.579    19931456.0104   19931462.0294
        -0.000          -0.000
  -6953716.533 9  -5405694.77249  20365455.488    20365454.6194   20365460.8824
        -0.000          -0.000
   9015963.817 9   6970688.80246  22884404.812    22884404.4464   22884412.0764
        -0.000          -0.000
 -19175987.926 9 -14924349.29849  19666650.068    19666649.0724   19666655.4884
        -0.000          -0.000
 -16884676.598 9 -13132691.03847  21954106.214    21954105.9984   21954111.9584
        -0.000          -0.000
 -12311291.119 9  -9577472.34046  22759717.463    22759716.5064   22759723.8584
        -0.000          -0.000
 97  3 14 20 15 29.9970000  0  6 27  2 19  7 26 15                  -0.002568329
  -2923331.254 9  -1996834.21348  19937574.968    19937574.3544   19937580.3684
        -0.000          -0.000
  -6969745.384 9  -5418184.78749  20362405.293    20362404.4414   20362410.6734
        -0.000          -0.000
   9090946.649 9   7029116.92246  22898673.864    22898673.3794   22898681.0964
        -0.000          -0.000
 -19228491.325 9 -14965261.02549  19656658.868    19656657.8994   19656664.3704
        -0.000          -0.000
 -16923722.987 9 -13163116.81847  21946676.007    21946675.7824   21946681.6194
        -0.000          -0.000
 -12323761.564 9  -9587189.55346  22757344.732    22757343.5094   22757350.8814
        -0.000          -0.000
 97  3 14 20 15 59.9970000  0  6 27  2 19  7 26 15                  -0.002580566
  -2890732.297 9  -1971432.44448  19943778.345    19943777.7104   19943783.7184
        -0.000          -0.000
  -6985630.755 9  -5430563.00149  20359382.487    20359381.5734   20359387.8344
        -0.000          -0.000
   9166107.981 9   7087684.12446  22912976.461    22912975.9074   22912984.0474
        -0.000          -0.000
 -19280522.666 9 -15005804.91849  19646757.599    19646756.6434   19646763.0914
        -0.000          -0.000
 -16962266.984 9 -13193151.08547  21939341.347    21939341.1004   21939346.9444
        -0.000          -0.000
 -12335685.982 9  -9596481.29946  22755075.521    22755074.3604   22755081.7704
        -0.000          -0.000
 97  3 14 20 16 29.9970000  0  6 27  2 19  7 26 15                  -0.002592823
  -2857667.746 9  -1945667.87748  19950070.311    19950069.7144   19950075.6914
        -0.000          -0.000
  -7001362.833 9  -5442821.75449  20356388.768    20356387.8964   20356394.0864
        -0.000          -0.000
   9241460.860 9   7146400.57146  22927315.432    22927314.9904   22927323.3144
        -0.000          -0.000
 -19332078.170 9 -15045978.02349  19636946.974    19636945.9554   19636952.3964
        -0.000          -0.000
 -17000296.876 9 -13222784.76247  21932104.378    21932104.2304   21932110.0994
        -0.000          -0.000
 -12347052.090 9  -9605337.99546  22752912.414    22752911.3574   22752918.9304
        -0.000          -0.000
 97  3 14 20 16 59.9970000  0  6 27  2 19  7 26 15                  -0.002605096
  -2824146.743 9  -1919547.63448  19956449.162    19956448.5384   19956454.5744
        -0.000          -0.000
  -7016947.727 9  -5454965.82249  20353423.133    20353422.2394   20353428.4154
        -0.000          -0.000
   9317002.128 9   7205263.84046  22941691.013    22941690.2384   22941698.1724
        -0.000          -0.000
 -19383159.835 9 -15085781.90049  19627226.463    19627225.4544   19627231.8534
        -0.000          -0.000
 -17037818.185 9 -13252022.14847  21924964.320    21924964.1734   21924970.0284
        -0.000          -0.000
 -12357855.682 9  -9613756.37846  22750856.451    22750855.4904   22750862.9954
        -0.000          -0.000
 97  3 14 20 17 29.9970000  0  6 27  2 19  7 26 15                  -0.002617382
  -2790189.813 9  -1893087.71248  19962910.956    19962910.3254   19962916.4434
        -0.000          -0.000
  -7032405.497 9  -5467010.84049  20350481.646    20350480.7064   20350486.9174
        -0.000          -0.000
   9392723.246 9   7264267.22646  22956100.232    22956099.5234   22956107.3064
        -0.000          -0.000
 -19433761.986 9 -15125212.13649  19617597.220    19617596.1914   19617602.5674
        -0.000          -0.000
 -17074826.350 9 -13280859.70347  21917922.054    21917921.8384   21917927.5574
        -0.000          -0.000
 -12368101.290 9  -9621739.96446  22748906.821    22748905.8104   22748913.1934
        -0.000          -0.000
 97  3 14 20 17 59.9970000  0  6 27  2 19  7 26 15                  -0.002629657
  -2755792.949 9  -1866284.98148  19969456.489    19969455.8334   19969461.9424
        -0.000          -0.000
  -7047750.651 9  -5478968.09649  20347561.459    20347560.5774   20347566.8664
        -0.000          -0.000
   9468646.345 9   7323428.00446  22970547.787    22970547.2014   22970555.2404
        -0.000          -0.000
 -19483888.659 9 -15164271.86649  19608058.411    19608057.3954   19608063.7724
        -0.000          -0.000
 -17111306.615 9 -13309285.87847  21910979.974    21910979.8144   21910985.6114
        -0.000          -0.000
 -12377783.047 9  -9629284.17046  22747064.635    22747063.5464   22747070.7774
        -0.000          -0.000
 97  3 14 20 18 29.9970000  0  6 27  2 19  7 26 15                  -0.002641917
  -2720967.843 9  -1839148.56548  19976083.446    19976082.8264   19976088.9534
        -0.000          -0.000
  -7063005.513 9  -5490854.99849  20344658.542    20344657.6574   20344663.9894
        -0.000          -0.000
   9544766.797 9   7382742.57846  22985033.058    22985032.4434   22985040.6654
        -0.000          -0.000
 -19533569.126 9 -15202983.90749  19598604.401    19598603.4694   19598609.8354
        -0.000          -0.000
 -17147263.010 9 -13337303.85047  21904137.619    21904137.5014   21904143.4054
        -0.000          -0.000
 -12386911.952 9  -9636397.59546  22745327.343    22745326.3684   22745333.5674
        -0.000          -0.000
 97  3 14 20 18 59.9970000  0  6 27  2 19  7 26 15                  -0.002654152
  -2685711.454 9  -1811676.07748  19982792.536    19982791.8914   19982798.0344
        -0.000          -0.000
  -7078157.954 9  -5502662.09649  20341775.163    20341774.2434   20341780.5834
        -0.000          -0.000
   9621077.684 9   7442205.53246  22999554.293    22999553.8204   22999562.1084
        -0.000          -0.000
 -19582792.686 9 -15241339.90649  19589237.536    19589236.5744   19589242.8924
        -0.000          -0.000
 -17182669.062 9 -13364892.99647  21897400.275    21897400.0264   21897405.8424
        -0.000          -0.000
 -12395484.596 9  -9643077.58746  22743696.213    22743695.1374   22743702.3304
        -0.000          -0.000
 97  3 14 20 19 29.9970000  0  6 27  2 19  7 26 15                  -0.002666360
  -2650013.179 9  -1783859.25548  19989585.701    19989585.0484   19989591.1674
        -0.000          -0.000
  -7093198.205 9  -5514381.76949  20338913.172    20338912.2444   20338918.4874
        -0.000          -0.000
   9697576.775 9   7501815.15346  23014111.907    23014111.2724   23014119.4604
        -0.000          -0.000
 -19631569.008 9 -15279347.41149  19579955.724    19579954.7094   19579961.0634
        -0.000          -0.000
 -17217508.247 9 -13392040.42447  21890770.518    21890770.3154   21890776.2254
        -0.000          -0.000
 -12403499.282 9  -9649322.77446  22742170.805    22742169.9144   22742177.1914
        -0.000          -0.000
 97  3 14 20 19 59.9970000  0  6 27  2 19  7 26 15                  -0.002678548
  -2613854.805 9  -1755683.92448  19996466.406    19996465.8144   19996471.9074
        -0.000          -0.000
  -7108111.355 9  -5526002.40649  20336075.246    20336074.3294   20336080.5624
        -0.000          -0.000
   9774262.111 9   7561569.86146  23028704.861    23028704.0004   23028712.1474
        -0.000          -0.000
 -19679908.338 9 -15317014.40749  19570756.940    19570756.0084   19570762.3964
        -0.000          -0.000
 -17251787.685 9 -13418751.68347  21884247.320    21884247.1114   21884253.1304
        -0.000          -0.000
 -12410954.856 9  -9655132.32546  22740751.908    22740751.0964   22740758.5864
        -0.000          -0.000
 97  3 14 20 20 29.9970000  0  6 27  2 19  7 26 15                  -0.002690722
  -2577209.606 9  -1727129.24448  20003439.927    20003439.2174   20003445.3174
        -0.000          -0.000
  -7122858.384 9  -5537493.58949  20333268.947    20333268.0514   20333274.3114
        -0.000          -0.000
   9851139.946 9   7621474.59645  23043334.265    23043333.6124   23043341.6394
        -0.000          -0.000
 -19727773.734 9 -15354312.09449  19561648.499    19561647.5434   19561653.9244
        -0.000          -0.000
 -17285496.210 9 -13445018.07647  21877832.949    21877832.6614   21877838.6074
        -0.000          -0.000
 -12417827.680 9  -9660487.76946  22739444.208    22739443.3414   22739450.7074
        -0.000          -0.000
 97  3 14 20 20 59.9970000  0  6 27  2 19  7 26 15                  -0.002702913
  -2540111.638 9  -1698221.75948  20010499.280    20010498.6604   20010504.7904
        -0.000          -0.000
  -7137449.422 9  -5548863.22949  20330492.365    20330491.4444   20330497.7534
        -0.000          -0.000
   9928191.957 8   7681515.08245  23057996.695    23057996.0624   23058004.3134
        -0.000          -0.000
 -19775176.043 9 -15391248.94149  19552628.118    19552627.1384   19552633.5034
        -0.000          -0.000
 -17318686.865 9 -13470880.93647  21871516.872    21871516.6744   21871522.6504
        -0.000          -0.000
 -12424138.841 9  -9665405.56846  22738243.297    22738242.3334   22738249.7164
        -0.000          -0.000
 97  3 14 20 21 29.9970000  0  6 27  2 19  7 26 15                  -0.002715135
  -2502567.843 9  -1668966.88248  20017643.680    20017643.0444   20017649.1644
        -0.000          -0.000
  -7151903.673 9  -5560126.28049  20327741.789    20327740.9284   20327747.1854
        -0.000          -0.000
  10005415.277 9   7741688.99945  23072690.987    23072690.9984   23072699.4414
        -0.000          -0.000
 -19822119.534 9 -15427828.26949  19543694.949    19543694.0424   19543700.4394
        -0.000          -0.000
 -17351391.425 9 -13496365.02447  21865293.502    21865293.2124   21865299.1944
        -0.000          -0.000
 -12429894.044 9  -9669890.13346  22737148.108    22737147.1414   22737154.5824
        -0.000          -0.000
 97  3 14 20 21 59.9970000  0  6 27  2 19  7 26 15                  -0.002727385
  -2464567.549 9  -1639356.28948  20024874.810    20024874.2284   20024880.3814
        -0.000          -0.000
  -7166206.285 9  -5571271.16749  20325020.211    20325019.2624   20325025.4894
        -0.000          -0.000
  10082825.130 9   7802008.27745  23087422.283    23087422.1384   23087430.0904
        -0.000          -0.000
 -19868576.784 9 -15464028.70349  19534854.471    19534853.5324   19534859.9184
        -0.000          -0.000
 -17383611.095 9 -13521471.26247  21859162.210    21859161.9474   21859168.0674
        -0.000          -0.000
 -12435081.591 9  -9673932.37946  22736160.783    22736159.8744   22736167.3524
        -0.000          -0.000
 97  3 14 20 22 29.9970000  0  6 27  2 19  7 26 15                  -0.002739666
  -2426112.433 9  -1609391.29148  20032192.572    20032192.0424   20032198.1614
        -0.000          -0.000
  -7180360.889 9  -5582300.73249  20322326.544    20322325.6674   20322331.9754
        -0.000          -0.000
  10160418.367 9   7862470.46145  23102188.452    23102187.8884   23102195.4714
        -0.000          -0.000
 -19914546.291 9 -15499849.07949  19526106.795    19526105.8084   19526112.1834
        -0.000          -0.000
 -17415349.633 9 -13546202.60247  21853122.486    21853122.2984   21853128.4414
        -0.000          -0.000
 -12439700.116 9  -9677531.23146  22735281.873    22735281.0534   22735288.4584
        -0.000          -0.000
 97  3 14 20 22 59.9970000  0  6 27  2 19  7 26 15                  -0.002751969
  -2387198.127 9  -1579068.47048  20039597.877    20039597.2864   20039603.3734
        -0.000          -0.000
  -7194372.210 9  -5593218.64149  20319660.244    20319659.3924   20319665.6944
        -0.000          -0.000
  10238206.909 8   7923084.83145  23116990.832    23116990.3814   23116998.0054
        -0.000          -0.000
 -19960025.201 9 -15535287.17649  19517452.351    19517451.4504   19517457.8074
        -0.000          -0.000
 -17446596.598 9 -13570550.89947  21847176.440    21847176.2754   21847182.3444
        -0.000          -0.000
 -12443749.361 9  -9680686.48946  22734511.624    22734510.5064   22734517.8594
        -0.000          -0.000
 97  3 14 20 23 29.9970000  0  6 27  2 19  7 26 15                  -0.002764291
  -2347829.376 9  -1548391.54748  20047089.362    20047088.8594   20047094.9754
        -0.000          -0.000
  -7208268.128 9  -5604046.63949  20317015.954    20317015.0434   20317021.4284
        -0.000          -0.000
  10316173.087 9   7983837.63545  23131827.064    23131826.6094   23131834.4714
        -0.000          -0.000
 -20005033.294 9 -15570358.40149  19508887.659    19508886.7294   19508893.0604
        -0.000          -0.000
 -17477347.349 9 -13594512.52847  21841324.632    21841324.5164   21841330.7064
        -0.000          -0.000
 -12447245.455 9  -9683410.72946  22733846.244    22733845.2764   22733852.4474
        -0.000          -0.000
 97  3 14 20 23 59.9970000  0  6 27  2 19  7 26 15                  -0.002776615
  -2307985.794 9  -1517344.62348  20054671.356    20054670.8304   20054676.9234
        -0.000          -0.000
  -7222020.634 9  -5614762.87649  20314398.968    20314398.1154   20314404.4304
        -0.000          -0.000
  10394334.949 9   8044742.91845  23146700.583    23146700.4124   23146708.4524
        -0.000          -0.000
 -20049561.883 9 -15605055.98649  19500414.124    19500413.1954   19500419.5254
        -0.000          -0.000
 -17507574.475 9 -13618066.14247  21835572.739    21835572.4674   21835578.7134
        -0.000          -0.000
 -12450172.363 9  -9685691.44446  22733289.074    22733288.3524   22733295.4864
        -0.000          -0.000
 97  3 14 20 24 29.9970000  0  6 27  2 19  7 26 15                  -0.002788939
  -2267673.743 9  -1485932.66448  20062342.550    20062342.0104   20062348.0554
        -0.000          -0.000
  -7235640.035 9  -5625375.39849  20311807.303    20311806.3894   20311812.6654
        -0.000          -0.000
  10472689.880 9   8105798.60046  23161611.273    23161611.3394   23161619.2984
        -0.000          -0.000
 -20093620.199 9 -15639387.13049  19492030.047    19492029.1794   19492035.4994
        -0.000          -0.000
 -17537277.266 9 -13641211.19047  21829920.446    21829920.2614   21829926.4134
        -0.000          -0.000
 -12452535.539 9  -9687532.90746  22732839.341    22732838.6134   22732845.8564
        -0.000          -0.000
 97  3 14 20 24 59.9970000  0  6 27  2 19  7 26 15                  -0.002801256
  -2226895.837 9  -1454157.69448  20070102.340    20070101.7684   20070107.8994
        -0.000          -0.000
  -7249130.258 9  -5635887.25749  20309240.146    20309239.2464   20309245.5134
        -0.000          -0.000
  10551232.661 9   8167000.68346  23176557.822    23176557.5734   23176565.7634
        -0.000          -0.000
 -20137205.160 9 -15673349.42349  19483736.174    19483735.2414   19483741.5784
        -0.000          -0.000
 -17566445.758 9 -13663939.90447  21824369.714    21824369.6134   21824375.8724
        -0.000          -0.000
 -12454331.020 9  -9688932.01046  22732497.909    22732496.9904   22732504.3054
        -0.000          -0.000
 97  3 14 20 25 29.9970000  0  6 27  2 19  7 26 15                  -0.002813573
  -2185655.467 9  -1422022.36048  20077950.112    20077949.5854   20077955.7764
        -0.000          -0.000
  -7262494.221 9  -5646300.73249  20306697.064    20306696.1574   20306702.4664
        -0.000          -0.000
  10629945.417 9   8228335.22446  23191536.183    23191536.0044   23191544.2644
        -0.000          -0.000
 -20180331.782 9 -15706954.56849  19475529.375    19475528.4524   19475534.8014
        -0.000          -0.000
 -17595080.774 9 -13686252.91247  21818920.751    21818920.5354   21818926.8574
        -0.000          -0.000
 -12455559.075 9  -9689888.95046  22732264.170    22732263.3614   22732270.6364
        -0.000          -0.000
 97  3 14 20 25 59.9970000  0  6 27  2 19  7 26 15                  -0.002825889
  -2143969.114 9  -1389539.50948  20085882.845    20085882.3134   20085888.4314
        -0.000          -0.000
  -7275729.535 9  -5656613.96849  20304178.332    20304177.5004   20304183.8954
        -0.000          -0.000
  10708822.481 9   8289797.79846  23206546.318    23206545.7034   23206554.2724
        -0.000          -0.000
 -20222998.492 9 -15740201.34949  19467410.103    19467409.1734   19467415.5374
        -0.000          -0.000
 -17623185.130 9 -13708152.42447  21813572.612    21813572.4984   21813578.8314
        -0.000          -0.000
 -12456225.352 9  -9690408.13946  22732137.367    22732136.6194   22732143.8174
        -0.000          -0.000
 97  3 14 20 26 29.9970000  0  6 27  2 19  7 26 15                  -0.002838212
  -2101861.198 9  -1356728.16748  20093895.785    20093895.2164   20093901.2934
        -0.000          -0.000
  -7288860.055 9  -5666845.53549  20301679.752    20301678.9104   20301685.2664
        -0.000          -0.000
  10787849.615 9   8351377.26046  23221584.523    23221584.0514   23221592.6044
        -0.000          -0.000
 -20265205.418 9 -15773089.85149  19459378.365    19459377.4934   19459383.8854
        -0.000          -0.000
 -17650774.088 9 -13729650.32147  21808322.533    21808322.4234   21808328.7924
        -0.000          -0.000
 -12456337.503 9  -9690495.53746  22732116.087    22732115.2254   22732122.2634
        -0.000          -0.000
 97  3 14 20 26 59.9970000  0  6 27  2 19  7 26 15                  -0.002850523
  -2059314.924 9  -1323575.23848  20101992.118    20101991.5114   20101997.5944
        -0.000          -0.000
  -7301865.173 9  -5676979.39849  20299205.013    20299204.0744   20299210.4774
        -0.000          -0.000
  10867052.261 9   8413093.52746  23236656.620    23236656.1074   23236664.3134
        -0.000          -0.000
 -20306934.275 9 -15805605.83149  19451437.648    19451436.7404   19451443.1624
        -0.000          -0.000
 -17677823.181 9 -13750727.54547  21803175.317    21803175.1264   21803181.4994
        -0.000          -0.000
 -12455875.958 9  -9690135.90846  22732204.061    22732203.0044   22732210.1104
        -0.000          -0.000
 97  3 14 20 27 29.9970000  0  6 27  2 19  7 26 15                  -0.002862811
  -2016325.253 9  -1290076.81948  20110172.684    20110172.1574   20110178.2734
        -0.000          -0.000
  -7314725.003 9  -5687000.04449  20296757.801    20296756.9384   20296763.3014
        -0.000          -0.000
  10946457.037 9   8474967.27246  23251767.274    23251766.5474   23251774.5714
        -0.000          -0.000
 -20348178.038 9 -15837743.81849  19443589.170    19443588.2744   19443594.7074
        -0.000          -0.000
 -17704322.638 9 -13771376.48847  21798132.669    21798132.5074   21798138.8574
        -0.000          -0.000
 -12454835.442 9  -9689325.12346  22732402.234    22732401.1064   22732407.9184
        -0.000          -0.000
 97  3 14 20 27 59.9970000  0  6 27  2 19  7 26 15                  -0.002875073
  -1972907.723 9  -1256244.99448  20118434.817    20118434.2884   20118440.4234
        -0.000          -0.000
  -7327438.408 9  -5696906.59349  20294338.517    20294337.6234   20294343.9534
        -0.000          -0.000
  11026070.575 9   8537003.71946  23266916.970    23266916.3894   23266924.7274
        -0.000          -0.000
 -20388927.494 9 -15869496.63249  19435834.822    19435833.9324   19435840.3594
        -0.000          -0.000
 -17730270.611 9 -13791595.70547  21793195.005    21793194.8554   21793201.1214
        -0.000          -0.000
 -12453218.402 9  -9688065.09546  22732709.643    22732708.7734   22732715.5674
        -0.000          -0.000
 97  3 14 20 28 29.9970000  0  6 27  2 19  7 26 15                  -0.002887316
  -1929050.033 9  -1222070.19148  20126780.732    20126780.1804   20126786.2904
        -0.000          -0.000
  -7339997.328 9  -5706692.76549  20291948.543    20291947.7374   20291954.0574
        -0.000          -0.000
  11105879.056 9   8599192.07546  23282103.580    23282103.3354   23282112.0494
        -0.000          -0.000
 -20429200.324 9 -15900878.04549  19428171.165    19428170.2974   19428176.6624
        -0.000          -0.000
 -17755669.727 9 -13811387.22747  21788361.723    21788361.5414   21788367.8464
        -0.000          -0.000
 -12451024.211 9  -9686355.34146  22733127.234    22733126.3244   22733133.3454
        -0.000          -0.000
 97  3 14 20 28 59.9970000  0  6 27  2 19  7 26 15                  -0.002899538
  -1884742.586 9  -1187544.92448  20135212.172    20135211.6334   20135217.7204
        -0.000          -0.000
  -7352387.443 9  -5716347.40149  20289590.859    20289590.0294   20289596.3194
        -0.000          -0.000
  11185867.524 8   8661520.65846  23297325.217    23297324.7674   23297333.4444
        -0.000          -0.000
 -20469009.286 9 -15931898.00049  19420595.767    19420594.8824   19420601.2844
        -0.000          -0.000
 -17780508.023 9 -13830741.75947  21783635.225    21783635.0534   21783641.2324
        -0.000          -0.000
 -12448254.580 9  -9684197.19446  22733654.378    22733653.4294   22733660.5754
        -0.000          -0.000
 97  3 14 20 29 29.9970000  0  6 27  2 19  7 26 15                  -0.002911752
  -1839986.884 9  -1152670.37448  20143728.851    20143728.3374   20143734.4664
        -0.000          -0.000
  -7364605.264 9  -5725867.78249  20287265.950    20287265.0794   20287271.3864
        -0.000          -0.000
  11266010.018 8   8723969.20845  23312576.190    23312575.5494   23312584.1044
        -0.000          -0.000
 -20508352.312 9 -15962554.88949  19413109.033    19413108.1954   19413114.5754
        -0.000          -0.000
 -17804786.479 9 -13849660.04847  21779015.252    21779015.0524   21779021.1934
        -0.000          -0.000
 -12444907.008 9  -9681588.70946  22734291.466    22734290.5384   22734297.5694
        -0.000          -0.000
 97  3 14 20 29 59.9970000  0  6 27  2 19  7 26 15                  -0.002923978
  -1794791.724 9  -1117453.38448  20152329.165    20152328.6934   20152334.8874
        -0.000          -0.000
  -7376669.677 9  -5735268.62849  20284970.156    20284969.2684   20284975.5974
        -0.000          -0.000
  11346271.280 8   8786510.34545  23327850.105    23327849.0474   23327857.3164
        -0.000          -0.000
 -20547243.779 9 -15992859.91349  19405708.237    19405707.3394   19405713.7344
        -0.000          -0.000
 -17828532.044 9 -13868163.07947  21774496.475    21774496.3504   21774502.5374
        -0.000          -0.000
 -12440991.566 9  -9678537.71546  22735036.667    22735035.6434   22735042.7044
        -0.000          -0.000
 97  3 14 20 30 29.9970000  0  6 27  2 19  7 26 15                  -0.002936228
  -1749139.863 9  -1081880.52148  20161016.478    20161016.0094   20161022.1744
        -0.000          -0.000
  -7388578.079 9  -5744547.90849  20282703.982    20282703.1674   20282709.4994
        -0.000          -0.000
  11426647.515 8   8849141.05845  23343144.928    23343144.0084   23343152.2894
        -0.000          -0.000
 -20585694.837 9 -16022821.76149  19398391.185    19398390.3344   19398396.7374
        -0.000          -0.000
 -17851757.972 9 -13886261.22047  21770076.767    21770076.6094   21770082.8534
        -0.000          -0.000
 -12436508.890 9  -9675044.73746  22735889.772    22735888.5324   22735895.6364
        -0.000          -0.000
 97  3 14 20 30 59.9970000  0  6 27  2 19  7 26 15                  -0.002948497
  -1703044.674 9  -1045962.21648  20169788.115    20169787.6474   20169793.8274
        -0.000          -0.000
  -7400342.514 9  -5753715.01049  20280465.290    20280464.4374   20280470.8074
        -0.000          -0.000
  11507157.158 8   8911875.75845  23358465.261    23358464.4214   23358472.8354
        -0.000          -0.000
 -20623680.850 9 -16052421.23549  19391162.728    19391161.8284   19391168.1874
        -0.000          -0.000
 -17874472.883 9 -13903961.16047  21765754.532    21765754.2624   21765760.3564
        -0.000          -0.000
 -12431460.730 9  -9671111.10346  22736850.067    22736849.1964   22736856.1394
        -0.000          -0.000
 97  3 14 20 31 29.9970000  0  6 27  2 19  7 26 15                  -0.002960775
  -1656503.320 9  -1009696.23748  20178644.684    20178644.1554   20178650.3594
        -0.000          -0.000
  -7411969.489 9  -5762774.99549  20278252.750    20278251.9184   20278258.2214
        -0.000          -0.000
  11587834.639 8   8974741.22845  23373817.313    23373816.6854   23373825.5134
        -0.000          -0.000
 -20661184.450 9 -16081644.80549  19384025.939    19384025.0794   19384031.4584
        -0.000          -0.000
 -17896680.747 9 -13921265.99847  21761528.329    21761528.1574   21761534.3104
        -0.000          -0.000
 -12425842.645 9  -9666733.37546  22737919.138    22737918.1974   22737925.1814
        -0.000          -0.000
 97  3 14 20 31 59.9970000  0  6 27  2 19  7 26 15                  -0.002973047
  -1609497.623 9   -973068.43848  20187589.542    20187589.0034   20187595.1464
        -0.000          -0.000
  -7423446.181 9  -5771717.87249  20276068.957    20276068.0804   20276074.3184
        -0.000          -0.000
  11668715.998 9   9037765.55345  23389208.809    23389208.2574   23389216.8634
        -0.000          -0.000
 -20698194.690 9 -16110483.94349  19376983.083    19376982.2644   19376988.5734
        -0.000          -0.000
 -17918375.071 9 -13938170.66247  21757400.044    21757399.8354   21757406.0534
        -0.000          -0.000
 -12419647.515 9  -9661906.02745  22739098.053    22739097.0014   22739103.9964
        -0.000          -0.000
 97  3 14 20 32 29.9970000  0  6 27  2 19  7 26 15                  -0.002985297
  -1562038.319 9   -936087.18048  20196620.783    20196620.2804   20196626.3804
        -0.000          -0.000
  -7434780.382 9  -5780549.71949  20273912.115    20273911.2334   20273917.5254
        -0.000          -0.000
  11749821.429 8   9100964.48945  23404643.108    23404642.2234   23404650.9684
        -0.000          -0.000
 -20734705.680 9 -16138934.04549  19370035.305    19370034.4444   19370040.7164
        -0.000          -0.000
 -17939541.613 9 -13954664.08147  21753372.281    21753372.1344   21753378.2784
        -0.000          -0.000
 -12412880.769 9  -9656633.25045  22740385.647    22740384.6994   22740391.6954
        -0.000          -0.000
 97  3 14 20 32 59.9970000  0  6 27  2 19  7 26 15                  -0.002997512
  -1514123.950 9   -898751.33448  20205738.813    20205738.1894   20205744.3174
        -0.000          -0.000
  -7445976.976 9  -5789274.33149  20271781.439    20271780.6084   20271786.8654
        -0.000          -0.000
  11831167.578 8   9164351.03445  23420122.582    23420121.9664   23420130.5484
        -0.000          -0.000
 -20770691.774 9 -16166975.14449  19363187.381    19363186.5154   19363192.8304
        -0.000          -0.000
 -17960156.253 9 -13970727.44247  21749449.469    21749449.2304   21749455.3654
        -0.000          -0.000
 -12405528.786 9  -9650904.44345  22741784.584    22741783.7104   22741790.9204
        -0.000          -0.000
 97  3 14 20 33 29.9970000  0  6 27  2 19  7 26 15                  -0.003009705
  -1465765.634 9   -861069.54448  20214940.928    20214940.3784   20214946.6614
        -0.000          -0.000
  -7457045.397 9  -5797899.07149  20269675.258    20269674.3864   20269680.6344
        -0.000          -0.000
  11912711.422 9   9227891.61145  23435639.715    23435639.0854   23435647.7904
        -0.000          -0.000
 -20806191.146 9 -16194636.97649  19356432.082    19356431.2024   19356437.4944
        -0.000          -0.000
 -17980234.479 9 -13986372.81547  21745628.639    21745628.4754   21745634.5754
        -0.000          -0.000
 -12397607.644 9  -9644732.12845  22743291.990    22743291.0184   22743298.2444
        -0.000          -0.000
 97  3 14 20 33 59.9960000  0  7 27  2 19  4  7 26 15               -0.003021839
  -1416966.674 9   -823044.40048  20224227.077    20224226.5194   20224232.8084
        -0.000          -0.000
  -7467969.230 9  -5806411.15149  20267596.555    20267595.6564   20267601.9144
        -0.000          -0.000
  11994423.168 9   9291563.02445  23451189.181    23451188.3494   23451197.1274
        -0.000          -0.000
  -4791818.49918  -2858566.06455  23661579.399    23661578.4905   23661587.3225
        -0.000          -0.000
 -20841209.617 9 -16221924.08349  19349768.204    19349767.3454   19349773.6154
        -0.000          -0.000
 -17999780.499 9 -14001603.49547  21741909.198    21741909.0404   21741915.0794
        -0.000          -0.000
 -12389115.308 8  -9638114.74845  22744908.097    22744906.8594   22744914.2454
        -0.000          -0.000
 97  3 14 20 34 29.9960000  0  7 27  2 19  4  7 26 15               -0.003034026
  -1367716.751 9   -784667.86548  20233599.100    20233598.4714   20233604.7644
        -0.000          -0.000
  -7478740.440 9  -5814804.30749  20265546.896    20265545.9354   20265552.1924
        -0.000          -0.000
  12076301.716 9   9355364.38445  23466770.710    23466769.8634   23466778.1214
        -0.000          -0.000
  -4913210.996 9  -2953157.50445  23638479.632    23638478.4514   23638487.0004
        -0.000          -0.000
 -20875734.894 9 -16248826.88349  19343198.370    19343197.4534   19343203.7164
        -0.000          -0.000
 -18018777.767 9 -14016406.55847  21738294.119    21738293.9524   21738300.0964
        -0.000          -0.000
 -12380035.845 9  -9631039.85945  22746635.735    22746634.4934   22746641.9074
        -0.000          -0.000
 97  3 14 20 34 59.9960000  0  7 27  2 19  4  7 26 15               -0.003046217
  -1318021.567 9   -745944.36048  20243055.677    20243055.1054   20243061.4374
        -0.000          -0.000
  -7489355.397 9  -5823075.70549  20263526.908    20263525.9634   20263532.1894
        -0.000          -0.000
  12158308.246 9   9419265.49645  23482376.056    23482375.1904   23482383.7234
        -0.000          -0.000
  -5034682.285 9  -3047810.39145  23615364.043    23615363.2144   23615371.7184
        -0.000          -0.000
 -20909791.584 9 -16275364.55349  19336717.570    19336716.6504   19336722.9744
        -0.000          -0.000
 -18037253.515 9 -14030803.24547  21734778.150    21734778.1664   21734784.2404
        -0.000          -0.000
 -12370384.780 9  -9623519.54445  22748472.362    22748471.2014   22748478.3924
        -0.000          -0.000
 97  3 14 20 35 29.9960000  0  7 27  2 19  4  7 26 15               -0.003058422
  -1267883.096 9   -706875.44148  20252596.735    20252596.2094   20252602.4744
        -0.000          -0.000
  -7499798.853 9  -5831213.45949  20261539.619    20261538.6794   20261544.8644
        -0.000          -0.000
  12240431.026 9   9483257.18046  23498003.343    23498002.5914   23498011.3944
        -0.000          -0.000
  -5156244.925 9  -3142534.45645  23592230.977    23592230.5494   23592238.9414
        -0.000          -0.000
 -20943394.845 9 -16301548.89849  19330323.042    19330322.1864   19330328.4564
        -0.000          -0.000
 -18055216.374 9 -14044800.29647  21731359.959    21731360.0124   21731365.9554
        -0.000          -0.000
 -12360172.038 9  -9615561.57345  22750415.616    22750414.6654   22750421.7014
        -0.000          -0.000
 97  3 14 20 35 59.9960000  0  7 27  2 19  4  7 26 15               -0.003070627
  -1217292.312 9   -667454.07448  20262224.087    20262223.4054   20262229.6304
        -0.000          -0.000
  -7510076.154 9  -5839221.74649  20259583.900    20259582.9634   20259589.1784
        -0.000          -0.000
  12322701.513 9   9547363.96346  23513658.863    23513658.1944   23513666.9764
        -0.000          -0.000
  -5277875.968 9  -3237311.79345  23569084.886    23569084.8424   23569093.3314
        -0.000          -0.000
 -20976521.946 9 -16327362.20949  19324019.267    19324018.3214   19324024.6094
        -0.000          -0.000
 -18072648.710 9 -14058383.92447  21728042.605    21728042.7004   21728048.7454
        -0.000          -0.000
 -12349390.489 9  -9607160.34745  22752467.338    22752466.4454   22752473.2954
        -0.000          -0.000
 97  3 14 20 36 29.9960000  0  7 27  2 19  4  7 26 15               -0.003082833
  -1166251.536 9   -627682.04948  20271936.710    20271936.0714   20271942.3764
        -0.000          -0.000
  -7520203.754 9  -5847113.38049  20257656.632    20257655.7274   20257662.0064
        -0.000          -0.000
  12405126.258 9   9611590.92946  23529343.820    23529343.1944   23529352.0124
        -0.000          -0.000
  -5399580.465 9  -3332146.38445  23545925.126    23545925.2354   23545933.6234
        -0.000          -0.000
 -21009171.284 9 -16352803.23849  19317806.270    19317805.3124   19317811.6104
        -0.000          -0.000
 -18089552.600 9 -14071555.78247  21724825.757    21724825.9364   21724832.0374
        -0.000          -0.000
 -12338047.327 9  -9598321.53145  22754626.168    22754625.0814   22754631.9074
        -0.000          -0.000
 97  3 14 20 36 59.9960000  0  7 27  2 19  4  7 26 15               -0.003095037
  -1114759.184 9   -587558.16648  20281735.470    20281734.7974   20281741.0214
        -0.000          -0.000
  -7530178.912 9  -5854886.23149  20255758.441    20255757.5414   20255763.8474
        -0.000          -0.000
  12487713.281 9   9675944.34146  23545060.129    23545059.2044   23545067.8474
        -0.000          -0.000
  -5521353.827 9  -3427034.66445  23522752.678    23522752.5474   23522761.0024
        -0.000          -0.000
 -21041348.362 9 -16377876.27349  19311683.111    19311682.2114   19311688.5044
        -0.000          -0.000
 -18105924.503 9 -14084313.13147  21721710.448    21721710.4934   21721716.4434
        -0.000          -0.000
 -12326142.278 9  -9589044.89345  22756891.685    22756890.5524   22756897.3414
        -0.000          -0.000
 97  3 14 20 37 29.9960000  0  7 27  2 19  4  7 26 15               -0.003107231
  -1062832.557 9   -547095.88348  20291616.764    20291616.0974   20291622.3484
        -0.000          -0.000
  -7540016.253 9  -5862551.69449  20253886.474    20253885.5274   20253891.9004
        -0.000          -0.000
  12570462.443 8   9740424.11746  23560806.924    23560805.9044   23560814.7544
        -0.000          -0.000
  -5643181.189 9  -3521965.01245  23499569.617    23499569.4874   23499577.8794
        -0.000          -0.000
 -21073054.813 9 -16402582.59249  19305649.585    19305648.6784   19305654.9904
        -0.000          -0.000
 -18121759.097 9 -14096651.78847  21718697.308    21718697.2694   21718703.2444
        -0.000          -0.000
 -12313675.742 9  -9579330.67745  22759264.057    22759262.7504   22759269.5904
        -0.000          -0.000
 97  3 14 20 37 59.9960000  0  7 27  2 19  4  7 26 15               -0.003119417
  -1010473.133 9   -506296.35148  20301580.227    20301579.7194   20301586.0034
        -0.000          -0.000
  -7549720.941 9  -5870113.79349  20252039.625    20252038.7854   20252045.0934
        -0.000          -0.000
  12653366.754 8   9805024.78345  23576582.921    23576581.8024   23576591.1724
        -0.000          -0.000
  -5765060.303 9  -3616935.65845  23476376.387    23476376.5834   23476384.8604
        -0.000          -0.000
 -21104297.929 9 -16426927.86649  19299704.213    19299703.3334   19299709.6394
        -0.000          -0.000
 -18137066.649 9 -14108579.74547  21715784.271    21715784.2454   21715790.4074
        -0.000          -0.000
 -12300647.064 9  -9569178.46645  22761743.268    22761741.9544   22761749.0094
        -0.000          -0.000
 97  3 14 20 38 29.9960000  0  7 27  2 19  4  7 26 15               -0.003131596
   -957697.979 9   -465172.87448  20311623.213    20311622.6264   20311628.8314
        -0.000          -0.000
  -7559278.798 9  -5877561.47149  20250220.895    20250220.0344   20250226.2264
        -0.000          -0.000
  12736408.232 8   9869732.27445  23592385.143    23592383.8124   23592393.6994
        -0.000          -0.000
  -5886996.661 9  -3711950.93845  23453172.632    23453172.7464   23453180.8724
        -0.000          -0.000
 -21135106.352 9 -16450934.42049  19293841.595    19293840.6624   19293846.9944
        -0.000          -0.000
 -18151856.255 9 -14120104.12847  21712970.022    21712969.9744   21712975.9834
        -0.000          -0.000
 -12287063.121 9  -9558593.59345  22764327.903    22764327.0434   22764334.0604
        -0.000          -0.000
 97  3 14 20 38 59.9960000  0  7 27  2 19  4  7 26 15               -0.003143762
   -904503.020 9   -423722.28748  20321745.959    20321745.3384   20321751.5344
        -0.000          -0.000
  -7568688.039 9  -5884893.35049  20248430.366    20248429.5344   20248435.7224
        -0.000          -0.000
  12819589.837 8   9934548.93645  23608213.949    23608212.7834   23608222.3024
        -0.000          -0.000
  -6008983.514 9  -3807005.54145  23429959.270    23429959.4574   23429967.3974
        -0.000          -0.000
 -21165488.962 9 -16474609.17249  19288059.900    19288059.0154   19288065.3694
        -0.000          -0.000
 -18166124.587 9 -14131222.32247  21710255.171    21710254.8334   21710260.7984
        -0.000          -0.000
 -12272920.900 9  -9547573.66945  22767019.101    22767018.4124   22767025.2214
        -0.000          -0.000
 97  3 14 20 39 29.9960000  0  6 27  2  4  7 26 15                  -0.003155940
   -850898.240 9   -381952.34048  20331946.546    20331945.9374   20331952.2264
        -0.000          -0.000
  -7577957.207 9  -5892116.08549  20246666.539    20246665.6854   20246671.9524
        -0.000          -0.000
  -6131015.002 8  -3902094.93345  23406737.279    23406737.4524   23406745.4724
        -0.000          -0.000
 -21195446.190 9 -16497952.45349  19282359.291    19282358.3714   19282364.6854
        -0.000          -0.000
 -18179890.499 9 -14141949.01247  21707635.624    21707635.3074   21707641.2864
        -0.000          -0.000
 -12258225.940 9  -9536123.05645  22769815.596    22769814.8554   22769821.6574
        -0.000          -0.000
 97  3 14 20 39 59.9960000  0  6 27  2  4  7 26 15                  -0.003168099
   -796874.948 9   -339856.29448  20342226.835    20342226.2404   20342232.5364
        -0.000          -0.000
  -7587082.603 9  -5899226.77949  20244930.020    20244929.1374   20244935.4704
        -0.000          -0.000
  -6253085.208 8  -3997214.46845  23383507.856    23383508.1144   23383516.1114
        -0.000          -0.000
 -21224964.989 9 -16520954.10649  19276742.016    19276741.0704   19276747.4004
        -0.000          -0.000
 -18193157.374 9 -14152286.84647  21705110.948    21705110.7154   21705116.8004
        -0.000          -0.000
 -12242978.587 9  -9524242.02545  22772717.168    22772716.4364   22772723.3424
        -0.000          -0.000
 97  3 14 20 40 29.9960000  0  6 27  2  4  7 26 15                  -0.003180251
   -742435.255 9   -297435.77748  20352586.528    20352585.8184   20352592.0554
        -0.000          -0.000
  -7596053.412 9  -5906217.02449  20243222.892    20243222.0494   20243228.3934
        -0.000          -0.000
  -6375188.236 8  -4092359.60445  23360272.563    23360272.8504   23360280.6054
        -0.000          -0.000
 -21254020.372 9 -16543594.65049  19271212.949    19271212.0374   19271218.3664
        -0.000          -0.000
 -18205912.867 9 -14162226.20347  21702683.636    21702683.4354   21702689.4994
        -0.000          -0.000
 -12227170.584 9  -9511924.11345  22775725.456    22775724.5444   22775731.5024
        -0.000          -0.000
 97  3 14 20 40 59.9960000  0  6 27  2  4  7 26 15                  -0.003192416
   -687590.798 9   -254699.85348  20363022.939    20363022.3734   20363028.6364
        -0.000          -0.000
  -7604896.373 9  -5913107.64349  20241540.229    20241539.3244   20241545.6274
        -0.000          -0.000
  -6497344.360 8  -4187546.07545  23337027.366    23337027.0424   23337034.8104
        -0.000          -0.000
 -21282601.644 9 -16565865.76449  19265774.105    19265773.1734   19265779.4834
        -0.000          -0.000
 -18218175.862 9 -14171781.80547  21700350.114    21700349.8604   21700355.8864
        -0.000          -0.000
 -12210817.873 9  -9499181.75746  22778837.479    22778836.3304   22778843.5084
        -0.000          -0.000
 97  3 14 20 41 29.9960000  0  6 27  2  4  7 26 15                  -0.003204595
   -632358.497 9   -211661.72248  20373533.367    20373532.7764   20373539.0344
        -0.000          -0.000
  -7613606.241 9  -5919894.54849  20239882.789    20239881.8814   20239888.1664
        -0.000          -0.000
  -6619553.116 8  -4282773.55045  23313772.006    23313771.3424   23313779.2574
        -0.000          -0.000
 -21310698.745 9 -16587759.59949  19260427.303    19260426.4244   19260432.6964
        -0.000          -0.000
 -18229944.490 9 -14180952.18047  21698110.605    21698110.3514   21698116.4514
        -0.000          -0.000
 -12193923.531 9  -9486017.36346  22782052.487    22782051.2644   22782058.4754
        -0.000          -0.000
 97  3 14 20 41 59.9960000  0  6 27  2  4  7 26 15                  -0.003216784
   -576731.726 9   -168316.20748  20384118.862    20384118.2194   20384124.4834
        -0.000          -0.000
  -7622166.300 9  -5926564.72349  20238253.869    20238252.9494   20238259.2484
        -0.000          -0.000
  -6741819.797 8  -4378046.16545  23290505.283    23290504.8484   23290512.7104
        -0.000          -0.000
 -21338304.913 9 -16609270.89549  19255173.991    19255173.1014   19255179.3924
        -0.000          -0.000
 -18241189.530 9 -14189714.56047  21695970.626    21695970.4624   21695976.6014
        -0.000          -0.000
 -12176477.580 9  -9472423.14545  22785371.774    22785370.8564   22785378.2594
        -0.000          -0.000
 97  3 14 20 42 29.9960000  0  6 27  2  4  7 26 15                  -0.003228972
   -520710.161 9   -124663.05948  20394779.314    20394778.7384   20394785.0114
        -0.000          -0.000
  -7630576.197 9  -5933117.89149  20236653.458    20236652.5674   20236658.8854
        -0.000          -0.000
  -6864144.974 8  -4473364.40345  23267227.516    23267227.1244   23267234.7894
        -0.000          -0.000
 -21365438.740 9 -16630414.12949  19250010.618    19250009.7364   19250016.0314
        -0.000          -0.000
 -18251901.923 9 -14198061.88847  21693931.991    21693931.9544   21693938.0414
        -0.000          -0.000
 -12158482.076 9  -9458400.68645  22788796.306    22788795.3954   22788802.6034
        -0.000          -0.000
 97  3 14 20 42 59.9960000  0  6 27  2  4  7 26 15                  -0.003241163
   -464277.300 9    -80689.43348  20405518.322    20405517.5744   20405523.8854
        -0.000          -0.000
  -7638838.625 9  -5939556.15049  20235081.176    20235080.3154   20235086.6084
        -0.000          -0.000
  -6986523.641 8  -4568724.27745  23243939.284    23243939.1374   23243946.9124
        -0.000          -0.000
 -21392107.205 9 -16651194.74049  19244935.837    19244934.9294   19244941.2134
        -0.000          -0.000
 -18262082.337 9 -14205994.70847  21691994.730    21691994.6644   21692000.7644
        -0.000          -0.000
 -12139939.489 9  -9443951.91845  22792325.093    22792323.9134   22792331.2064
        -0.000          -0.000
 97  3 14 20 43 29.9960000  0  6 27  2  4  7 26 15                  -0.003253352
   -407419.835 9    -36384.94848  20416337.919    20416337.2344   20416343.5854
        -0.000          -0.000
  -7646943.945 9  -5945871.98049  20233538.841    20233537.9334   20233544.1814
        -0.000          -0.000
  -7108955.602 9  -4664125.68345  23220641.005    23220640.9754   23220649.0474
        -0.000          -0.000
 -21418326.184 9 -16671625.10549  19239946.575    19239945.6134   19239951.9134
        -0.000          -0.000
 -18271731.334 9 -14213513.41447  21690158.736    21690158.5464   21690164.7674
        -0.000          -0.000
 -12120844.186 9  -9429072.49646  22795958.884    22795957.5674   22795964.7744
        -0.000          -0.000
 97  3 14 20 43 59.9960000  0  6 27  2  4  7 26 15                  -0.003265543
   -350123.651 9      8261.40948  20427240.982    20427240.3164   20427246.6884
        -0.000          -0.000
  -7654892.267 9  -5952065.48049  20232026.268    20232025.3504   20232031.6504
        -0.000          -0.000
  -7231437.863 9  -4759566.29646  23197333.442    23197333.4504   23197341.6304
        -0.000          -0.000
 -21444105.209 9 -16691712.65149  19235040.938    19235039.9994   19235046.3454
        -0.000          -0.000
 -18280856.284 9 -14220623.78547  21688422.318    21688422.1584   21688428.3164
        -0.000          -0.000
 -12101200.125 9  -9413765.41346  22799697.049    22799695.8294   22799702.8164
        -0.000          -0.000
 97  3 14 20 44 29.9960000  0  6 27  2  4  7 26 15                  -0.003277743
   -292384.477 9     53252.93548  20438228.307    20438227.7694   20438234.0984
        -0.000          -0.000
  -7662683.916 9  -5958136.89349  20230543.514    20230542.6374   20230548.9994
        -0.000          -0.000
  -7353948.829 9  -4855029.30546  23174020.463    23174020.4604   23174028.2684
        -0.000          -0.000
 -21469449.833 9 -16711461.69749  19230218.012    19230217.0484   19230223.3654
        -0.000          -0.000
 -18289488.648 9 -14227350.33047  21686779.615    21686779.4254   21686785.5884
        -0.000          -0.000
 -12081015.261 9  -9398036.97046  22803538.291    22803536.8894   22803544.1164
        -0.000          -0.000
 97  3 14 20 44 59.9960000  0  6 27  2  4  7 26 15                  -0.003289956
   -234207.203 9     98585.86048  20449299.229    20449298.5854   20449304.8494
        -0.000          -0.000
  -7670321.658 9  -5964088.39149  20229090.205    20229089.3034   20229095.6064
        -0.000          -0.000
  -7476481.281 9  -4950509.02646  23150703.419    23150703.1024   23150711.0314
        -0.000          -0.000
 -21494348.152 9 -16730862.97749  19225479.923    19225479.0084   19225485.3384
        -0.000          -0.000
 -18297642.477 9 -14233703.96247  21685227.862    21685227.7794   21685234.0674
        -0.000          -0.000
 -12060285.990 9  -9381884.30446  22807482.978    22807481.6394   22807488.8734
        -0.000          -0.000
 97  3 14 20 45 29.9960000  0  6 27  2  4  7 26 15                  -0.003302170
   -175608.975 9    144246.78948  20460449.987    20460449.3464   20460455.7064
        -0.000          -0.000
  -7677812.723 9  -5969925.59049  20227664.727    20227663.8104   20227670.0634
        -0.000          -0.000
  -7599021.188 9  -5045994.57346  23127384.834    23127384.4454   23127392.3554
        -0.000          -0.000
 -21518805.430 9 -16749920.58349  19220825.841    19220824.9204   19220831.2514
        -0.000          -0.000
 -18305310.817 9 -14239679.33447  21683768.724    21683768.6094   21683774.8434
        -0.000          -0.000
 -12039010.422 9  -9365305.93646  22811531.271    22811530.3264   22811537.3784
        -0.000          -0.000
 97  3 14 20 45 59.9960000  0  6 27  2  4  7 26 15                  -0.003314379
   -116615.951 9    190215.35348  20471675.903    20471675.3344   20471681.7224
        -0.000          -0.000
  -7685161.704 9  -5975652.06749  20226266.236    20226265.3084   20226271.5394
        -0.000          -0.000
  -7721553.779 9  -5141474.43546  23104067.616    23104067.1874   23104075.1064
        -0.000          -0.000
 -21542814.310 9 -16768628.78749  19216257.079    19216256.1934   19216262.5204
        -0.000          -0.000
 -18312488.756 9 -14245272.53347  21682402.971    21682402.7154   21682408.8694
        -0.000          -0.000
 -12017195.132 9  -9348307.02346  22815682.690    22815681.5824   22815688.7434
        -0.000          -0.000
 97  3 14 20 46 29.9960000  0  6 27  2  4  7 26 15                  -0.003326592
    -57246.427 9    236477.28748  20482973.567    20482972.9834   20482979.4334
        -0.000          -0.000
  -7692383.101 9  -5981279.14349  20224892.081    20224891.1494   20224897.3644
        -0.000          -0.000
  -7844099.527 9  -5236964.52646  23080748.187    23080747.4214   23080755.2664
        -0.000          -0.000
 -21566378.499 9 -16786990.48149  19211772.964    19211772.0374   19211778.3544
        -0.000          -0.000
 -18319181.106 9 -14250487.35347  21681129.163    21681129.1374   21681135.3244
        -0.000          -0.000
 -11994847.100 9  -9330892.98146  22819935.375    22819934.3184   22819941.5084
        -0.000          -0.000
 97  3 14 20 46 59.9960000  0  6 27  2  4  7 26 15                  -0.003338807
      2482.239 9    283019.08348  20494339.570    20494339.0344   20494345.4614
        -0.000          -0.000
  -7699497.211 9  -5986822.60949  20223538.362    20223537.3564   20223543.6244
        -0.000          -0.000
  -7966679.931 9  -5332481.62046  23057422.236    23057421.1504   23057428.8264
        -0.000          -0.000
 -21589500.699 9 -16805007.76649  19207372.961    19207372.0634   19207378.3564
        -0.000          -0.000
 -18325372.744 9 -14255312.02947  21679950.979    21679950.9924   21679957.2454
        -0.000          -0.000
 -11971970.315 9  -9313066.93646  22824288.479    22824287.6254   22824294.7424
        -0.000          -0.000
 97  3 14 20 47 29.9960000  0  6 27  2  4  7 26 15                  -0.003351023
     62562.156 9    329834.58148  20505772.415    20505771.8804   20505778.3674
        -0.000          -0.000
  -7706508.043 9  -5992285.59949  20222204.145    20222203.2304   20222209.5324
        -0.000          -0.000
  -8089293.050 9  -5428024.23646  23034089.554    23034088.5834   23034096.2274
        -0.000          -0.000
 -21612193.435 9 -16822690.40849  19203054.705    19203053.7834   19203060.1054
        -0.000          -0.000
 -18331059.953 9 -14259743.62847  21678868.677    21678868.7424   21678874.9284
        -0.000          -0.000
 -11948575.541 9  -9294837.25446  22828740.270    22828739.6124   22828746.6114
        -0.000          -0.000
 97  3 14 20 47 59.9960000  0  6 27  2  4  7 26 15                  -0.003363241
    123017.924 9    376942.93848  20517276.950    20517276.3354   20517282.7644
        -0.000          -0.000
  -7713388.003 9  -5997646.60749  20220894.955    20220894.0464   20220900.3474
        -0.000          -0.000
  -8211924.638 9  -5523581.22946  23010753.181    23010752.4284   23010760.3174
        -0.000          -0.000
 -21634436.775 9 -16840022.87349  19198821.870    19198820.9934   19198827.2964
        -0.000          -0.000
 -18336242.924 9 -14263782.32347  21677882.210    21677882.4244   21677888.5924
        -0.000          -0.000
 -11924647.734 9  -9276192.21746  22833293.704    22833292.9604   22833299.9404
        -0.000          -0.000
 97  3 14 20 48 29.9960000  0  6 27  2  4  7 26 15                  -0.003375460
    183869.899 9    424360.02648  20528856.690    20528856.1094   20528862.5194
        -0.000          -0.000
  -7720136.869 9  -6002905.47949  20219610.667    20219609.7954   20219616.0514
        -0.000          -0.000
  -8334570.272 8  -5619149.17545  22987414.181    22987413.6164   22987421.4684
        -0.000          -0.000
 -21656232.372 9 -16857006.45149  19194674.334    19194673.4444   19194679.7294
        -0.000          -0.000
 -18340928.633 9 -14267433.54747  21676990.951    21676990.9514   21676997.0974
        -0.000          -0.000
 -11900184.059 9  -9257129.64346  22837949.017    22837948.2574   22837955.1834
        -0.000          -0.000
 97  3 14 20 48 59.9960000  0  6 27  2  4  7 26 15                  -0.003387680
    245131.734 9    472096.49548  20540514.291    20540513.7884   20540520.1964
        -0.000          -0.000
  -7726738.921 9  -6008049.94449  20218354.370    20218353.4854   20218359.7174
        -0.000          -0.000
  -8457209.093 8  -5714711.83345  22964076.214    22964076.1414   22964083.8124
        -0.000          -0.000
 -21677577.871 9 -16873639.30449  19190612.394    19190611.5164   19190617.8054
        -0.000          -0.000
 -18345118.169 9 -14270698.13647  21676193.728    21676193.6744   21676199.8914
        -0.000          -0.000
 -11875181.454 9  -9237647.08346  22842706.884    22842706.1034   22842713.0674
        -0.000          -0.000
 97  3 14 20 49 29.9960000  0  6 27  2  4  7 26 15                  -0.003399905
    306803.084 9    520152.06448  20552250.113    20552249.5844   20552255.9644
        -0.000          -0.000
  -7733182.618 9  -6013071.01149  20217128.224    20217127.3244   20217133.5324
        -0.000          -0.000
  -8579840.057 9  -5810268.33445  22940739.852    22940740.1364   22940747.7954
        -0.000          -0.000
 -21698484.252 9 -16889929.98149  19186634.126    19186633.2204   19186639.4544
        -0.000          -0.000
 -18348826.160 9 -14273587.50547  21675488.234    21675488.1424   21675494.1854
        -0.000          -0.000
 -11849643.932 9  -9217747.72646  22847566.812    22847565.8494   22847572.7794
        -0.000          -0.000
 97  3 14 20 49 59.9960000  0  6 27  2  4  7 26 15                  -0.003412145
    368878.056 9    568522.14748  20564062.736    20564062.1264   20564068.4494
        -0.000          -0.000
  -7739469.106 9  -6017969.57149  20215931.920    20215931.0024   20215937.2764
        -0.000          -0.000
  -8702478.168 9  -5905830.42945  22917402.403    22917402.7734   22917410.6654
        -0.000          -0.000
 -21718956.799 9 -16905882.60949  19182738.395    19182737.4374   19182743.6774
        -0.000          -0.000
 -18352066.279 9 -14276112.28747  21674871.563    21674871.5684   21674877.7554
        -0.000          -0.000
 -11823576.807 9  -9197435.69446  22852527.098    22852526.1654   22852533.2574
        -0.000          -0.000
 97  3 14 20 50 29.9960000  0  6 27  2  4  7 26 15                  -0.003424397
    431356.847 9    617206.89548  20575952.050    20575951.4654   20575957.7924
        -0.000          -0.000
  -7745604.423 9  -6022750.34449  20214764.417    20214763.5204   20214769.8044
        -0.000          -0.000
  -8825123.796 8  -6001398.34045  22894063.015    22894063.7504   22894071.7964
        -0.000          -0.000
 -21738998.668 9 -16921499.64849  19178924.502    19178923.5874   19178929.8494
        -0.000          -0.000
 -18354829.069 9 -14278265.12647  21674345.922    21674345.8134   21674352.0334
        -0.000          -0.000
 -11796984.905 9  -9176714.74846  22857587.354    22857586.4824   22857593.5904
        -0.000          -0.000
 97  3 14 20 50 59.9960000  0  6 27  2  4  7 26 15                  -0.003436652
    494230.231 9    666199.11348  20587916.510    20587915.8724   20587922.2404
        -0.000          -0.000
  -7751579.576 9  -6027406.31949  20213627.432    20213626.5574   20213632.7764
        -0.000          -0.000
  -8947770.909 9  -6096967.48845  22870724.063    22870724.6784   22870732.7994
        -0.000          -0.000
 -21758613.769 9 -16936784.13549  19175191.897    19175190.9814   19175197.1844
        -0.000          -0.000
 -18357098.703 9 -14280033.68247  21673914.070    21673913.9114   21673920.0364
        -0.000          -0.000
 -11769868.234 9  -9155584.89546  22862747.840    22862746.5704   22862753.7934
        -0.000          -0.000
 97  3 14 20 51 29.9960000  0  6 27  2  4  7 26 15                  -0.003448907
    557485.669 9    715489.02548  20599953.523    20599952.9994   20599959.4014
        -0.000          -0.000
  -7757399.603 9  -6031941.40649  20212519.950    20212519.0244   20212525.2444
        -0.000          -0.000
  -9070416.735 9  -6192535.58945  22847385.383    22847385.9044   22847393.9694
        -0.000          -0.000
 -21777809.374 9 -16951741.74249  19171539.123    19171538.1504   19171544.3814
        -0.000          -0.000
 -18358868.623 9 -14281412.88047  21673577.578    21673577.2644   21673583.3814
        -0.000          -0.000
 -11742228.359 9  -9134047.37546  22868007.200    22868006.0494   22868013.5154
        -0.000          -0.000
 97  3 14 20 51 59.9960000  0  6 27  2  4  7 26 15                  -0.003461158
    621138.072 9    765088.26548  20612066.292    20612065.5944   20612072.0654
        -0.000          -0.000
  -7763067.048 9  -6036357.60449  20211441.428    20211440.5614   20211446.8114
        -0.000          -0.000
  -9193047.351 9  -6288091.84245  22824049.710    22824050.1194   22824057.9724
        -0.000          -0.000
 -21796572.028 9 -16966361.98649  19167968.673    19167967.7624   19167973.9694
        -0.000          -0.000
 -18360133.990 9 -14282398.89047  21673336.943    21673336.5014   21673342.6064
        -0.000          -0.000
 -11714063.167 9  -9112100.50546  22873366.354    22873365.6284   22873373.2114
        -0.000          -0.000
 97  3 14 20 52 29.9960000  0  6 27  2  4  7 26 15                  -0.003473405
    685177.529 9    814989.11048  20624252.472    20624251.8984   20624258.4184
        -0.000          -0.000
  -7768594.066 9  -6040664.37849  20210389.722    20210388.7894   20210395.0584
        -0.000          -0.000
  -9315659.603 9  -6383633.77546  22800717.703    22800717.7914   22800725.5204
        -0.000          -0.000
 -21814909.539 9 -16980650.94949  19164479.192    19164478.2384   19164484.4514
        -0.000          -0.000
 -18360896.670 9 -14282993.19347  21673191.248    21673191.1824   21673197.3874
        -0.000          -0.000
 -11685381.947 9  -9089751.53446  22878824.306    22878823.6004   22878830.9904
        -0.000          -0.000
 97  3 14 20 52 59.9960000  0  6 27  2  4  7 26 15                  -0.003485646
    749588.390 9    865179.36048  20636509.406    20636508.9124   20636515.3654
        -0.000          -0.000
  -7773981.209 9  -6044862.15749  20209364.497    20209363.6094   20209369.8554
        -0.000          -0.000
  -9438248.825 9  -6479157.78846  22777389.977    22777389.9514   22777397.4324
        -0.000          -0.000
 -21832823.769 9 -16994610.08549  19161070.209    19161069.2684   19161075.4784
        -0.000          -0.000
 -18361164.331 9 -14283201.77447  21673140.169    21673140.3074   21673146.5154
        -0.000          -0.000
 -11656183.885 9  -9066999.82246  22884380.877    22884379.9434   22884387.2204
        -0.000          -0.000
 97  3 14 20 53 29.9960000  0  6 27  2  4  7 26 15                  -0.003497890
    814375.301 9    915662.65247  20648838.030    20648837.4874   20648843.8224
        -0.000          -0.000
  -7779231.720 9  -6048953.46749  20208365.348    20208364.4504   20208370.6754
        -0.000          -0.000
  -9560804.250 9  -6574655.45746  22754068.523    22754068.3764   22754075.8424
        -0.000          -0.000
 -21850307.124 9 -17008233.47349  19157743.253    19157742.3014   19157748.4764
        -0.000          -0.000
 -18360962.389 9 -14283044.43547  21673178.562    21673178.6714   21673184.9284
        -0.000          -0.000
 -11626466.689 9  -9043843.55746  22890035.937    22890034.9384   22890042.3484
        -0.000          -0.000
 97  3 14 20 53 59.9960000  0  6 27  2  4  7 26 15                  -0.003510150
    879521.924 9    966426.22347  20661235.040    20661234.5254   20661240.9214
        -0.000          -0.000
  -7784355.853 9  -6052946.30049  20207390.196    20207389.3654   20207395.5944
        -0.000          -0.000
  -9683333.303 9  -6670132.57346  22730752.126    22730751.7684   22730759.2324
        -0.000          -0.000
 -21867362.066 9 -17021523.03249  19154497.780    19154496.8284   19154503.0514
        -0.000          -0.000
 -18360315.490 9 -14282540.38047  21673301.943    21673301.8354   21673307.9634
        -0.000          -0.000
 -11596246.311 9  -9020295.23046  22895786.648    22895785.7474   22895793.0224
        -0.000          -0.000
 97  3 14 20 54 29.9960000  0  6 27  2  4  7 26 15                  -0.003522423
    945016.726 9   1017461.08647  20673698.374    20673697.8274   20673704.1754
        -0.000          -0.000
  -7789332.789 9  -6056824.43649  20206443.123    20206442.2714   20206448.5514
        -0.000          -0.000
  -9805833.342 9  -6765587.07746  22707441.242    22707440.7654   22707448.1254
        -0.000          -0.000
 -21883996.530 9 -17034484.95349  19151332.339    19151331.4194   19151337.6564
        -0.000          -0.000
 -18359225.385 9 -14281690.98747  21673509.947    21673509.5124   21673515.5514
        -0.000          -0.000
 -11565517.370 9  -8996350.61345  22901634.505    22901633.3294   22901640.4444
        -0.000          -0.000
 97  3 14 20 54 59.9960000  0  7 27  2  4  9  7 26 15               -0.003534771
   1010873.035 9   1068777.65447  20686230.367    20686229.8414   20686236.2914
        -0.000          -0.000
  -7794142.315 9  -6060572.13549  20205527.859    20205527.0654   20205533.3944
        -0.000          -0.000
  -9928281.777 9  -6861001.36146  22684139.991    22684139.5874   22684147.0544
        -0.000          -0.000
  -2961948.47618  -2281035.88755  23563331.783    23563331.4655   23563338.4755
        -0.000          -0.000
 -21900198.793 9 -17047110.08549  19148249.145    19148248.2044   19148254.3914
        -0.000          -0.000
 -18357689.598 9 -14280494.27747  21673802.231    21673801.7004   21673807.9314
        -0.000          -0.000
 -11534271.281 9  -8972003.01245  22907580.494    22907579.3134   22907586.3094
        -0.000          -0.000
 97  3 14 20 55 29.9960000  0  7 27  2  4  9  7 26 15               -0.003547065
   1077096.113 9   1120380.01247  20698832.184    20698831.7174   20698838.1754
        -0.000          -0.000
  -7798778.070 9  -6064184.42249  20204645.754    20204644.9354   20204651.2004
        -0.000          -0.000
 -10050694.461 9  -6956387.79146  22660845.372    22660845.0944   22660852.5834
        -0.000          -0.000
  -3081222.743 8  -2373976.84245  23540634.413    23540634.4574   23540641.2154
        -0.000          -0.000
 -21915971.210 9 -17059400.28249  19145247.644    19145246.7124   19145252.9324
        -0.000          -0.000
 -18355716.275 9 -14278956.64147  21674177.458    21674177.1794   21674183.3234
        -0.000          -0.000
 -11502519.811 8  -8947261.64045  22913622.391    22913621.2514   22913628.5074
        -0.000          -0.000
 97  3 14 20 55 59.9960000  0  7 27  2  4  9  7 26 15               -0.003559368
   1143691.207 9   1172272.25347  20711505.104    20711504.4244   20711510.8024
        -0.000          -0.000
  -7803229.906 9  -6067653.39049  20203798.577    20203797.7924   20203804.0384
        -0.000          -0.000
 -10173076.715 9  -7051750.51946  22637556.644    22637556.4764   22637563.9224
        -0.000          -0.000
  -3200440.851 8  -2466874.06145  23517947.647    23517948.0044   23517954.7724
        -0.000          -0.000
 -21931308.474 9 -17071351.39549  19142329.019    19142328.1324   19142334.3594
        -0.000          -0.000
 -18353272.859 9 -14277052.69347  21674642.253    21674642.1284   21674648.3284
        -0.000          -0.000
 -11470260.354 8  -8922124.39745  22919760.847    22919759.9804   22919767.0284
        -0.000          -0.000
 97  3 14 20 56 29.9960000  0  7 27  2  4  9  7 26 15               -0.003571678
   1210663.232 9   1224458.22147  20724249.248    20724248.7514   20724255.1964
        -0.000          -0.000
  -7807511.468 9  -6070989.67849  20202983.875    20202983.0164   20202989.2814
        -0.000          -0.000
 -10295437.023 9  -7147096.12646  22614272.206    22614271.9964   22614279.5624
        -0.000          -0.000
  -3319598.586 8  -2559724.19545  23495272.414    23495272.9414   23495279.6264
        -0.000          -0.000
 -21946226.964 9 -17082976.19249  19139490.133    19139489.2174   19139495.4284
        -0.000          -0.000
 -18350348.673 9 -14274774.11447  21675198.460    21675198.5324   21675204.8854
        -0.000          -0.000
 -11437499.389 8  -8896596.38845  22925994.867    22925994.0464   22926001.1524
        -0.000          -0.000
 97  3 14 20 56 59.9960000  0  7 27  2  4  9  7 26 15               -0.003583987
   1278037.171 9   1276957.36447  20737070.050    20737069.5764   20737076.0254
        -0.000          -0.000
  -7811627.268 9  -6074196.80549  20202200.689    20202199.8584   20202206.1424
        -0.000          -0.000
 -10417766.208 9  -7242417.46546  22590993.494    22590993.3514   22591001.0494
        -0.000          -0.000
  -3438683.348 8  -2652517.43345  23472611.317    23472611.7694   23472618.6034
        -0.000          -0.000
 -21960708.291 9 -17094260.34349  19136734.415    19136733.5054   19136739.7444
        -0.000          -0.000
 -18346911.392 9 -14272095.73547  21675852.728    21675852.6894   21675858.9104
        -0.000          -0.000
 -11404229.451 8  -8870671.79345  22932325.749    22932325.0324   22932332.3134
        -0.000          -0.000
 97  3 14 20 57 29.9960000  0  7 27  2  4  9  7 26 15               -0.003596300
   1345811.811 9   1329768.73547  20749967.339    20749966.7074   20749973.1134
        -0.000          -0.000
  -7815600.798 9  -6077293.07149  20201444.460    20201443.6724   20201449.9684
        -0.000          -0.000
 -10540089.580 9  -7337734.31946  22567715.939    22567716.0354   22567723.6124
        -0.000          -0.000
  -3557704.453 8  -2745261.09245  23449962.594    23449962.6794   23449969.5714
        -0.000          -0.000
 -21974767.348 9 -17105215.45349  19134058.998    19134058.1374   19134064.4094
        -0.000          -0.000
 -18342954.683 9 -14269012.61347  21676605.736    21676605.6684   21676611.7464
        -0.000          -0.000
 -11370454.776 8  -8844353.89545  22938752.804    22938752.0024   22938759.4314
        -0.000          -0.000
 97  3 14 20 57 59.9960000  0  7 27  2  4  9  7 26 15               -0.003608619
   1413968.992 9   1382878.19247  20762937.217    20762936.6184   20762943.0264
        -0.000          -0.000
  -7819460.812 9  -6080300.88049  20200709.938    20200709.1304   20200715.3504
        -0.000          -0.000
 -10662407.310 9  -7433046.73346  22544439.442    22544439.5104   22544447.2904
        -0.000          -0.000
  -3676674.644 8  -2837965.03545  23427323.465    23427322.9834   23427330.4484
        -0.000          -0.000
 -21988422.887 9 -17115856.13749  19131460.444    19131459.5564   19131465.8364
        -0.000          -0.000
 -18338485.314 9 -14265530.00547  21677456.542    21677456.2094   21677462.2704
        -0.000          -0.000
 -11336183.330 8  -8817648.91945  22945274.379    22945273.6384   22945281.0454
        -0.000          -0.000
 97  3 14 20 58 29.9960000  0  7 27  2  4  9  7 26 15               -0.003620942
   1482501.729 9   1436280.28847  20775978.537    20775977.9604   20775984.4354
        -0.000          -0.000
  -7823205.065 9  -6083218.48349  20199997.510    20199996.6634   20200002.8594
        -0.000          -0.000
 -10784707.742 9  -7528345.67846  22521166.517    22521166.4114   22521174.1654
        -0.000          -0.000
  -3795593.780 8  -2930629.22345  23404693.823    23404693.1584   23404700.7334
        -0.000          -0.000
 -22001672.595 9 -17126180.58149  19128939.135    19128938.2914   19128944.5274
        -0.000          -0.000
 -18333524.416 9 -14261664.39447  21678400.795    21678400.2864   21678406.3624
        -0.000          -0.000
 -11301409.442 8  -8790552.38245  22951891.654    22951890.9084   22951898.3364
        -0.000          -0.000
 97  3 14 20 58 59.9960000  0  7 27  2  4  9  7 26 15               -0.003633276
   1551385.567 9   1489955.97147  20789086.595    20789086.1354   20789092.6174
        -0.000          -0.000
  -7826827.997 9  -6086041.55449  20199308.142    20199307.2214   20199313.5174
        -0.000          -0.000
 -10906986.223 9  -7623627.50946  22497897.504    22497897.4504   22497905.2374
        -0.000          -0.000
  -3914465.950 8  -3023256.83345  23382073.815    23382072.6674   23382080.2264
        -0.000          -0.000
 -22014512.846 9 -17136185.97049  19126495.728    19126494.8334   19126501.1194
        -0.000          -0.000
 -18328104.620 9 -14257441.18847  21679431.955    21679431.5824   21679437.7814
        -0.000          -0.000
 -11266137.229 8  -8763067.56045  22958603.402    22958603.0294   22958610.6344
        -0.000          -0.000
 97  3 14 20 59 29.9960000  0  7 27  2  4  9  7 26 15               -0.003645627
   1620588.636 9   1543880.40147  20802255.658    20802255.1484   20802261.6094
        -0.000          -0.000
  -7830320.924 9  -6088763.32049  20198643.419    20198642.5314   20198648.8694
        -0.000          -0.000
 -11029225.909 9  -7718879.14346  22474636.098    22474636.0534   22474643.6324
        -0.000          -0.000
  -4033295.712 9  -3115851.39645  23359461.248    23359460.3524   23359467.6314
        -0.000          -0.000
 -22026938.334 9 -17145868.16649  19124131.205    19124130.3304   19124136.6364
        -0.000          -0.000
 -18322263.559 9 -14252889.74247  21680543.731    21680543.2824   21680549.3404
        -0.000          -0.000
 -11230369.432 8  -8735196.58045  22965409.853    22965409.5084   22965417.0574
        -0.000          -0.000
 97  3 14 20 59 59.9960000  0  7 27  2  4  9  7 26 15               -0.003657995
   1690082.574 9   1598031.48047  20815479.958    20815479.4344   20815485.8834
        -0.000          -0.000
  -7833659.796 9  -6091365.03949  20198008.004    20198007.1314   20198013.4544
        -0.000          -0.000
 -11151392.925 9  -7814074.13446  22451388.403    22451388.3974   22451395.8794
        -0.000          -0.000
  -4152075.822 9  -3208407.28045  23336857.999    23336857.3604   23336864.4214
        -0.000          -0.000
 -22038940.703 9 -17155220.65349  19121847.255    19121846.3914   19121852.6174
        -0.000          -0.000
 -18316022.168 9 -14248026.32747  21681731.339    21681730.8714   21681737.1274
        -0.000          -0.000
 -11194109.243 8  -8706941.90945  22972310.361    22972309.6814   22972317.1394
        -0.000          -0.000
 97  3 14 21  0 29.9960000  0  7 27  2  4  9  7 26 15               -0.003670379
   1759861.821 9   1652404.88647  20828758.492    20828757.9714   20828764.4924
        -0.000          -0.000
  -7836830.886 9  -6093836.02949  20197404.530    20197403.6884   20197409.9934
        -0.000          -0.000
 -11273476.484 9  -7909204.08946  22428156.595    22428156.6904   22428164.0054
        -0.000          -0.000
  -4270801.234 9  -3300920.50945  23314264.950    23314264.6214   23314271.7594
        -0.000          -0.000
 -22050527.976 9 -17164249.68549  19119642.362    19119641.4384   19119647.6244
        -0.000          -0.000
 -18309376.341 9 -14242847.77847  21682995.783    21682995.4944   21683001.7454
        -0.000          -0.000
 -11157361.530 8  -8678307.35045  22979303.068    22979302.5104   22979309.9694
        -0.000          -0.000
 97  3 14 21  0 59.9960000  0  7 27  2  4  9  7 26 15               -0.003682775
   1829939.045 9   1707010.47847  20842093.610    20842093.1894   20842099.7644
        -0.000          -0.000
  -7839832.770 9  -6096175.16249  20196833.340    20196832.4344   20196838.7734
        -0.000          -0.000
 -11395471.297 9  -8004264.89546  22404941.811    22404941.8524   22404949.1434
        -0.000          -0.000
  -4389474.862 9  -3393393.40245  23291681.950    23291681.8944   23291688.9464
        -0.000          -0.000
 -22061703.002 9 -17172957.49449  19117515.774    19117514.8604   19117521.1494
        -0.000          -0.000
 -18302311.953 9 -14237343.08047  21684340.116    21684339.8244   21684346.0804
        -0.000          -0.000
 -11120126.388 8  -8649292.94845  22986388.957    22986388.1344   22986395.2594
        -0.000          -0.000
 97  3 14 21  1 29.9960000  0  7 27  2  4  9  7 26 15               -0.003695177
   1900329.211 9   1761859.92347  20855488.513    20855488.0264   20855494.6304
        -0.000          -0.000
  -7842675.257 9  -6098390.09049  20196292.447    20196291.5484   20196297.9114
        -0.000          -0.000
 -11517375.170 9  -8099254.81646  22381744.016    22381744.2014   22381751.6904
        -0.000          -0.000
  -4508090.196 9  -3485820.88845  23269109.753    23269110.0414   23269117.1094
        -0.000          -0.000
 -22072476.362 9 -17181352.31049  19115465.688    19115464.7794   19115471.0384
        -0.000          -0.000
 -18294800.518 9 -14231490.02647  21685769.332    21685769.1454   21685775.4004
        -0.000          -0.000
 -11082404.407 8  -8619899.21845  22993567.381    22993566.4354   22993573.6814
        -0.000          -0.000
 97  3 14 21  1 59.9960000  0  7 27  2  4  9  7 26 15               -0.003707574
   1971061.663 9   1816976.08447  20868948.620    20868948.0484   20868954.6334
        -0.000          -0.000
  -7845362.254 9  -6100483.85549  20195781.098    20195780.2724   20195786.5524
        -0.000          -0.000
 -11639194.590 9  -8194178.96546  22358562.573    22358562.6404   22358570.0594
        -0.000          -0.000
  -4626638.286 9  -3578195.95345  23246550.833    23246550.9084   23246558.1234
        -0.000          -0.000
 -22082867.327 9 -17189449.16449  19113488.313    19113487.3984   19113493.6474
        -0.000          -0.000
 -18286811.124 9 -14225264.54847  21687289.799    21687289.5024   21687295.7024
        -0.000          -0.000
 -11044193.581 8  -8590124.53845  23000838.589    23000837.7824   23000844.9304
        -0.000          -0.000
 97  3 14 21  2 29.9960000  0  7 27  2  4  9  7 26 15               -0.003719977
   2042153.208 9   1872372.06347  20882476.743    20882476.3024   20882482.9864
        -0.000          -0.000
  -7847919.721 9  -6102476.69049  20195294.437    20195293.6094   20195299.8614
        -0.000          -0.000
 -11760964.616 9  -8289064.60346  22335390.376    22335390.4214   22335397.8814
        -0.000          -0.000
  -4745136.191 9  -3670531.95645  23224001.438    23224001.4584   23224008.5364
        -0.000          -0.000
 -22092890.782 9 -17197259.64549  19111580.912    19111580.0184   19111586.2304
        -0.000          -0.000
 -18278347.208 9 -14218669.30347  21688900.501    21688900.1674   21688906.4504
        -0.000          -0.000
 -11005509.265 9  -8559980.92345  23008199.953    23008199.1354   23008206.2404
        -0.000          -0.000
 97  3 14 21  2 59.9960000  0  7 27  2  4  9  7 26 15               -0.003732384
   2113612.521 9   1928054.60147  20896075.068    20896074.6094   20896081.2724
        -0.000          -0.000
  -7850349.173 9  -6104369.77549  20194832.111    20194831.2894   20194837.5674
        -0.000          -0.000
 -11882671.896 9  -8383901.32746  22312230.206    22312230.3444   22312237.7134
        -0.000          -0.000
  -4863578.172 9  -3762824.36245  23201462.255    23201462.6224   23201469.7904
        -0.000          -0.000
 -22102522.578 9 -17204764.93849  19109748.049    19109747.1774   19109753.3884
        -0.000          -0.000
 -18269413.376 9 -14211707.89647  21690600.776    21690600.3004   21690606.5594
        -0.000          -0.000
 -10966346.224 9  -8529464.28245  23015652.516    23015651.6264   23015658.8424
        -0.000          -0.000
 97  3 14 21  3 29.9960000  0  7 27  2  4  9  7 26 15               -0.003744793
   2185432.286 9   1984018.01647  20909741.992    20909741.4774   20909748.2014
        -0.000          -0.000
  -7852640.552 9  -6106155.26849  20194396.103    20194395.3014   20194401.5884
        -0.000          -0.000
 -12004305.420 9  -8478680.60746  22289084.335    22289084.3084   22289091.5154
        -0.000          -0.000
  -4981950.239 9  -3855062.27345  23178936.517    23178937.1354   23178944.3604
        -0.000          -0.000
 -22111756.680 9 -17211960.33449  19107990.888    19107989.9844   19107996.1974
        -0.000          -0.000
 -18260005.595 9 -14204377.16947  21692391.020    21692390.5314   21692396.7284
        -0.000          -0.000
 -10926704.177 9  -8498574.40845  23023196.164    23023195.3234   23023202.5054
        -0.000          -0.000
 97  3 14 21  3 59.9960000  0  7 27  2  4  9  7 26 15               -0.003757216
   2257599.305 9   2040252.02347  20923475.007    20923474.3804   20923481.1234
        -0.000          -0.000
  -7854779.239 9  -6107821.78549  20193989.172    20193988.3234   20193994.5784
        -0.000          -0.000
 -12125873.171 9  -8573408.59846  22265950.960    22265950.6544   22265957.8404
        -0.000          -0.000
  -5100265.241 9  -3947255.73446  23156421.912    23156422.4924   23156429.7474
        -0.000          -0.000
 -22120594.599 9 -17218847.02349  19106309.003    19106308.1284   19106314.3244
        -0.000          -0.000
 -18250151.888 9 -14196698.97247  21694266.195    21694265.6924   21694271.8974
        -0.000          -0.000
 -10886592.204 9  -8467318.33645  23030829.371    23030828.4304   23030835.5914
        -0.000          -0.000
 97  3 14 21  4 29.9960000  0  7 27  2  4  9  7 26 15               -0.003769658
   2330099.126 9   2096745.34647  20937271.051    20937270.6594   20937277.4244
        -0.000          -0.000
  -7856763.077 9  -6109367.64048  20193611.694    20193610.8444   20193617.0404
        -0.000          -0.000
 -12247375.059 9  -8668085.31446  22242829.712    22242829.5404   22242836.6794
        -0.000          -0.000
  -5218514.969 9  -4039398.33146  23133919.909    23133920.2204   23133927.4334
        -0.000          -0.000
 -22129023.906 9 -17225415.31549  19104705.019    19104704.1284   19104710.3334
        -0.000          -0.000
 -18239863.413 9 -14188682.00947  21696224.174    21696223.5784   21696229.7384
        -0.000          -0.000
 -10846011.565 9  -8435697.09945  23038551.604    23038550.7634   23038558.0464
        -0.000          -0.000
 97  3 14 21  4 59.9960000  0  7 27  2  4  9  7 26 15               -0.003782113
   2402935.650 9   2153501.04447  20951131.690    20951131.1134   20951137.7454
        -0.000          -0.000
  -7858576.794 9  -6110780.93148  20193266.546    20193265.6834   20193271.9094
        -0.000          -0.000
 -12368800.004 9  -8762702.04946  22219722.848    22219722.9364   22219730.2474
        -0.000          -0.000
  -5336683.246 9  -4131477.43546  23111433.291    23111433.5184   23111440.7544
        -0.000          -0.000
 -22137033.556 9 -17231656.60149  19103180.895    19103179.9644   19103186.1414
        -0.000          -0.000
 -18229127.510 9 -14180316.38247  21698266.965    21698266.4024   21698272.6984
        -0.000          -0.000
 -10804948.279 9  -8403699.75245  23046365.689    23046364.7944   23046372.2894
        -0.000          -0.000
 97  3 14 21  5 29.9960000  0  7 27  2  4  9  7 26 15               -0.003794594
   2476098.871 9   2210511.30847  20965054.369    20965053.7064   20965060.2294
        -0.000          -0.000
  -7860221.900 9  -6112062.83849  20192953.600    20192952.6804   20192958.9344
        -0.000          -0.000
 -12490173.567 9  -8857278.76646  22196626.108    22196626.2664   22196633.5294
        -0.000          -0.000
  -5454790.807 9  -4223509.25646  23088958.281    23088958.3274   23088965.4334
        -0.000          -0.000
 -22144648.161 9 -17237590.05449  19101731.898    19101730.9774   19101737.1434
        -0.000          -0.000
 -18217956.386 9 -14171611.63747  21700392.885    21700392.2814   21700398.4654
        -0.000          -0.000
 -10763421.531 9  -8371341.29645  23054268.030    23054267.1534   23054274.7024
        -0.000          -0.000
 97  3 14 21  5 59.9960000  0  7 27  2  4  9  7 26 15               -0.003807100
   2549599.105 9   2267784.18947  20979040.859    20979040.2834   20979046.8704
        -0.000          -0.000
  -7861698.191 9  -6113213.20749  20192672.692    20192671.7244   20192678.0544
        -0.000          -0.000
 -12611494.641 9  -8951814.57346  22173539.571    22173539.5784   22173546.6844
        -0.000          -0.000
  -5572839.390 9  -4315495.10446  23066494.498    23066494.4084   23066501.3894
        -0.000          -0.000
 -22151868.436 9 -17243216.23649  19100357.959    19100357.0084   19100363.2054
        -0.000          -0.000
 -18206351.600 9 -14162568.96747  21702601.316    21702600.6434   21702606.8244
        -0.000          -0.000
 -10721429.204 9  -8338620.01645  23062258.700    23062258.0214   23062265.5264
        -0.000          -0.000
 97  3 14 21  6 29.9960000  0  7 27  2  4  9  7 26 15               -0.003819615
   2623443.999 9   2325325.62547  20993093.223    20993092.5144   20993099.1384
        -0.000          -0.000
  -7863023.473 9  -6114245.90648  20192420.441    20192419.4694   20192425.8624
        -0.000          -0.000
 -12732736.885 9  -9046288.95946  22150468.103    22150467.9804   22150475.0234
        -0.000          -0.000
  -5690811.447 9  -4407421.33545  23044045.433    23044045.1594   23044052.0254
        -0.000          -0.000
 -22158680.979 9 -17248524.71449  19099061.461    19099060.5564   19099066.7994
        -0.000          -0.000
 -18194297.902 9 -14153176.47747  21704894.722    21704894.3044   21704900.6764
        -0.000          -0.000
 -10678964.527 9  -8305530.68345  23070339.563    23070338.6984   23070346.2544
        -0.000          -0.000
 97  3 14 21  6 59.9960000  0  7 27  2  4  9  7 26 15               -0.003832139
   2697631.531 9   2383134.03947  21007210.706    21007209.9624   21007216.6074
        -0.000          -0.000
  -7864192.905 9  -6115157.15748  20192197.865    20192196.9634   20192203.3464
        -0.000          -0.000
 -12853870.957 9  -9140679.04946  22127417.139    22127416.7494   22127423.9614
        -0.000          -0.000
  -5808708.351 9  -4499289.00245  23021610.759    23021610.2814   23021616.7554
        -0.000          -0.000
 -22165081.385 9 -17253512.03749  19097843.561    19097842.6394   19097848.8214
        -0.000          -0.000
 -18181807.065 9 -14143443.38747  21707271.561    21707271.3484   21707277.5914
        -0.000          -0.000
 -10636030.302 9  -8272075.48046  23078509.879    23078508.9904   23078516.3394
        -0.000          -0.000
 97  3 14 21  7 29.9960000  0  7 27  2  4  9  7 26 15               -0.003844663
   2772145.228 9   2441196.61847  21021390.119    21021389.4454   21021396.1264
        -0.000          -0.000
  -7865222.846 9  -6115959.72048  20192001.891    20192000.9694   20192007.3784
        -0.000          -0.000
 -12974875.399 9  -9234968.15546  22104390.702    22104390.3304   22104397.4754
        -0.000          -0.000
  -5926514.708 9  -4591086.12245  22999193.459    22999192.5004   22999198.7594
        -0.000          -0.000
 -22171083.196 9 -17258188.76949  19096701.469    19096700.5094   19096706.6864
        -0.000          -0.000
 -18168895.420 9 -14133382.38047  21709728.486    21709728.2884   21709734.5504
        -0.000          -0.000
 -10592631.721 9  -8238258.41346  23086768.626    23086767.5234   23086774.8914
        -0.000          -0.000
 97  3 14 21  7 59.9960000  0  7 27  2  4  9  7 26 15               -0.003857175
   2846970.334 9   2499501.86647  21035628.735    21035628.1684   21035634.8514
        -0.000          -0.000
  -7866132.217 9  -6116668.33248  20191828.856    20191827.9084   20191834.3584
        -0.000          -0.000
 -13095741.795 9  -9329149.69746  22081390.464    22081390.0824   22081397.1834
        -0.000          -0.000
  -6044201.111 9  -4682789.75245  22976798.911    22976797.6344   22976803.7664
        -0.000          -0.000
 -22176696.894 9 -17262563.07849  19095633.203    19095632.2694   19095638.4964
        -0.000          -0.000
 -18155575.608 9 -14123003.31547  21712263.021    21712262.9634   21712269.2734
        -0.000          -0.000
 -10548768.049 9  -8204078.96145  23095115.670    23095114.6154   23095121.9154
        -0.000          -0.000
 97  3 14 21  8 29.9960000  0  7 27  2  4  9  7 26 15               -0.003869667
   2922109.013 9   2558051.44247  21049927.318    21049926.6494   21049933.3934
        -0.000          -0.000
  -7866907.726 9  -6117272.63348  20191681.292    20191680.3114   20191686.7634
        -0.000          -0.000
 -13216450.057 9  -9423208.02546  22058420.436    22058420.0244   22058426.9634
        -0.000          -0.000
  -6161738.674 9  -4774377.39846  22954432.282    22954430.8994   22954437.0874
        -0.000          -0.000
 -22181904.852 9 -17266621.22349  19094642.164    19094641.2054   19094647.4324
        -0.000          -0.000
 -18141840.430 9 -14112300.60047  21714877.172    21714876.8044   21714883.1204
        -0.000          -0.000
 -10504426.282 8  -8169526.96545  23103553.608    23103552.4644   23103559.8514
        -0.000          -0.000
 97  3 14 21  8 59.9960000  0  7 27  2  4  9  7 26 15               -0.003882146
   2997559.961 9   2616844.35247  21064285.314    21064284.5894   21064291.2294
        -0.000          -0.000
  -7867535.214 9  -6117761.59848  20191561.915    20191560.9234   20191567.3224
        -0.000          -0.000
 -13337018.906 9  -9517157.70346  22035476.872    22035476.5674   22035483.3784
        -0.000          -0.000
  -6279137.404 9  -4865856.86945  22932091.676    22932090.5644   22932096.8404
        -0.000          -0.000
 -22186729.275 9 -17270380.50849  19093724.054    19093723.1114   19093729.3194
        -0.000          -0.000
 -18127698.482 9 -14101280.92847  21717568.345    21717567.9214   21717574.1474
        -0.000          -0.000
 -10459615.891 9  -8134609.80545  23112080.927    23112079.6604   23112086.9474
        -0.000          -0.000
 97  3 14 21  9 29.9960000  0  7 27  2  4  9  7 26 15               -0.003894623
   3073310.435 9   2675870.65547  21078699.987    21078699.4204   21078706.1454
        -0.000          -0.000
  -7868029.593 9  -6118146.83848  20191467.854    20191466.8384   20191473.2444
        -0.000          -0.000
 -13457482.891 9  -9611025.70246  22012553.196    22012553.0074   22012559.7744
        -0.000          -0.000
  -6396414.480 9  -4957241.55345  22909774.431    22909773.3154   22909779.7234
        -0.000          -0.000
 -22191205.401 9 -17273868.39649  19092872.269    19092871.3404   19092877.5594
        -0.000          -0.000
 -18113155.082 9 -14089948.42647  21720335.825    21720335.4154   21720341.6404
        -0.000          -0.000
 -10414355.150 8  -8099341.71945  23120693.487    23120692.5484   23120699.8674
        -0.000          -0.000
 97  3 14 21  9 59.9960000  0  7 27  2  4  9  7 26 15               -0.003907107
   3149369.089 9   2735137.08947  21093173.508    21093172.9804   21093179.6904
        -0.000          -0.000
  -7868354.038 9  -6118399.66448  20191406.003    20191405.0614   20191411.5064
        -0.000          -0.000
 -13577835.930 9  -9704807.25046  21989650.619    21989650.5624   21989657.3804
        -0.000          -0.000
  -6513589.599 9  -5048546.76545  22887476.639    22887475.4114   22887482.0214
        -0.000          -0.000
 -22195314.322 9 -17277070.14849  19092090.429    19092089.4524   19092095.6654
        -0.000          -0.000
 -18098189.251 9 -14078286.75847  21723183.708    21723183.3534   21723189.7024
        -0.000          -0.000
 -10368638.661 8  -8063718.52145  23129392.358    23129391.9254   23129399.5394
        -0.000          -0.000
 97  3 14 21 10 29.9960000  0  7 27  2  4  9  7 26 15               -0.003919601
   3225749.774 9   2794654.46447  21107708.319    21107707.6984   21107714.4894
        -0.000          -0.000
  -7868490.601 9  -6118506.08148  20191380.083    20191379.1294   20191385.5154
        -0.000          -0.000
 -13698067.077 9  -9798493.80746  21966771.281    21966771.2114   21966778.1204
        -0.000          -0.000
  -6630688.525 9  -5139792.58145  22865193.268    22865191.9174   22865198.7724
        -0.000          -0.000
 -22199043.979 9 -17279976.37449  19091380.583    19091379.6334   19091385.8884
        -0.000          -0.000
 -18082785.174 9 -14066283.60947  21726115.159    21726114.7144   21726120.9714
        -0.000          -0.000
 -10322463.819 8  -8027738.17545  23138178.892    23138178.6124   23138186.2744
        -0.000          -0.000
 97  3 14 21 10 59.9960000  0  7 27  2  4  9  7 26 15               -0.003932103
   3302468.210 9   2854435.00447  21122307.373    21122306.7714   21122313.6814
        -0.000          -0.000
  -7868424.541 9  -6118454.61748  20191392.756    20191391.7204   20191398.0944
        -0.000          -0.000
 -13818173.822 9  -9892083.44846  21943915.893    21943915.6634   21943922.4374
        -0.000          -0.000
  -6747709.469 9  -5230977.68745  22842924.477    22842923.3944   22842930.3304
        -0.000          -0.000
 -22202395.157 9 -17282587.68249  19090742.910    19090741.9944   19090748.2184
        -0.000          -0.000
 -18066935.799 9 -14053933.45947  21729131.044    21729130.7064   21729137.0884
        -0.000          -0.000
 -10275826.123 8  -7991397.10045  23147054.065    23147053.4794   23147061.2524
        -0.000          -0.000
 97  3 14 21 11 29.9960000  0  7 27  2  4  9  7 26 15               -0.003944617
   3379506.831 9   2914465.06047  21136967.226    21136966.7734   21136973.6594
        -0.000          -0.000
  -7868162.291 9  -6118250.28148  20191442.612    20191441.5964   20191447.9684
        -0.000          -0.000
 -13938151.595 9  -9985572.57446  21921084.688    21921084.5894   21921091.3494
        -0.000          -0.000
  -6864646.482 9  -5322097.37146  22820671.567    22820670.7994   22820677.8564
        -0.000          -0.000
 -22205356.734 9 -17284895.40549  19090179.453    19090178.4744   19090184.6944
        -0.000          -0.000
 -18050656.025 9 -14041247.94547  21732229.091    21732228.6614   21732235.0614
        -0.000          -0.000
 -10228727.998 8  -7954697.31645  23156016.946    23156015.9434   23156023.6044
        -0.000          -0.000
 97  3 14 21 11 59.9960000  0  7 27  2  4  9  7 26 15               -0.003957158
   3456844.536 9   2974728.16447  21151684.236    21151683.7244   21151690.6004
        -0.000          -0.000
  -7867725.863 9  -6117910.22048  20191525.671    20191524.6984   20191531.0264
        -0.000          -0.000
 -14058019.951 9 -10078976.45746  21898274.446    21898274.3204   21898281.0514
        -0.000          -0.000
  -6981512.896 9  -5413162.07146  22798432.390    22798431.7944   22798438.8554
        -0.000          -0.000
 -22207929.726 9 -17286900.33949  19089689.764    19089688.8044   19089695.0574
        -0.000          -0.000
 -18033971.531 9 -14028247.07047  21735403.961    21735403.5644   21735410.0214
        -0.000          -0.000
 -10181188.370 8  -7917653.50345  23165063.778    23165062.7994   23165070.1564
        -0.000          -0.000
 97  3 14 21 12 29.9960000  0  7 27  2  4  9  7 26 15               -0.003969728
   3534481.471 9   3035224.42647  21166458.173    21166457.6464   21166464.4214
        -0.000          -0.000
  -7867129.325 9  -6117445.39148  20191639.216    20191638.2404   20191644.5454
        -0.000          -0.000
 -14177793.656 9 -10172306.56746  21875482.510    21875482.1494   21875488.7954
        -0.000          -0.000
  -7098282.646 9  -5504151.43746  22776211.963    22776211.2274   22776218.4274
        -0.000          -0.000
 -22210120.545 9 -17288607.46749  19089272.854    19089271.9024   19089278.1244
        -0.000          -0.000
 -18016909.077 9 -14014951.67347  21738650.544    21738650.2864   21738656.9134
        -0.000          -0.000
 -10133214.558 8  -7880271.32645  23174192.704    23174191.7414   23174199.3664
        -0.000          -0.000
 97  3 14 21 12 59.9960000  0  7 27  2  4  9  7 26 15               -0.003982320
   3612417.838 9   3095954.02947  21181288.909    21181288.3794   21181295.1404
        -0.000          -0.000
  -7866358.842 9  -6116845.02748  20191785.908    20191784.8884   20191791.1474
        -0.000          -0.000
 -14297468.320 9 -10265559.52746  21852709.042    21852708.7354   21852715.4404
        -0.000          -0.000
  -7214926.179 9  -5595042.44646  22754015.359    22754014.7034   22754022.0364
        -0.000          -0.000
 -22211914.944 9 -17290005.69849  19088931.430    19088930.4684   19088936.6744
        -0.000          -0.000
 -17999460.597 9 -14001355.47747  21741971.036    21741970.7864   21741977.1824
        -0.000          -0.000
 -10084798.149 8  -7842544.31245  23183405.516    23183405.0434   23183412.7294
        -0.000          -0.000
 97  3 14 21 13 29.9960000  0  7 27  2  4  9  7 26 15               -0.003994927
   3690641.641 9   3156907.60947  21196174.404    21196173.9344   21196180.6814
        -0.000          -0.000
  -7865409.794 9  -6116105.51948  20191966.512    20191965.4934   20191971.7504
        -0.000          -0.000
 -14417028.533 9 -10358723.28347  21829957.462    21829957.1654   21829964.1204
        -0.000          -0.000
  -7331434.041 9  -5685827.74446  22731844.533    22731844.0724   22731851.3444
        -0.000          -0.000
 -22213308.422 9 -17291091.52649  19088666.228    19088665.2824   19088671.5134
        -0.000          -0.000
 -17981615.031 9 -13987449.86247  21745366.849    21745366.6874   21745373.1284
        -0.000          -0.000
 -10035936.026 8  -7804469.95045  23192704.444    23192703.3264   23192710.8114
        -0.000          -0.000
 97  3 14 21 13 59.9960000  0  6 27  2  4  9  7 26                  -0.004007515
   3769151.430 9   3218084.01447  21211114.536    21211113.8814   21211120.5914
        -0.000          -0.000
  -7864284.123 9  -6115228.38448  20192180.702    20192179.7354   20192186.0004
        -0.000          -0.000
 -14536475.847 9 -10451799.08447  21807227.404    21807227.0714   21807234.0724
        -0.000          -0.000
  -7447810.361 9  -5776510.53346  22709698.988    22709698.4634   22709705.7644
        -0.000          -0.000
 -22214321.089 9 -17291880.61649  19088473.611    19088472.6354   19088478.8464
        -0.000          -0.000
 -17963359.358 9 -13973224.67747  21748840.752    21748840.6514   21748847.0364
        -0.000          -0.000
 97  3 14 21 14 29.9950000  0  6 27  2  4  9  7 26                  -0.004020115
   3847944.917 9   3279481.49047  21226108.503    21226107.8814   21226114.5094
        -0.000          -0.000
  -7862966.115 9  -6114201.37648  20192431.611    20192430.6014   20192436.8334
        -0.000          -0.000
 -14655773.051 9 -10544757.90947  21784525.676    21784525.4274   21784532.4434
        -0.000          -0.000
  -7564043.741 9  -5867081.93346  22687580.450    22687579.9854   22687587.3634
        -0.000          -0.000
 -22214960.593 9 -17292378.92949  19088351.956    19088350.9304   19088357.1274
        -0.000          -0.000
 -17944672.685 9 -13958663.67147  21752396.915    21752396.7094   21752403.0704
        -0.000          -0.000
 97  3 14 21 14 59.9950000  0  6 27  2  4  9  7 26                  -0.004032718
   3927016.729 9   3341095.85147  21241155.297    21241154.6954   21241161.4464
        -0.000          -0.000
  -7861466.565 9  -6113032.89748  20192716.959    20192715.9544   20192722.2324
        -0.000          -0.000
 -14774909.990 9 -10637591.85147  21761854.501    21761854.3914   21761861.5144
        -0.000          -0.000
  -7680151.156 9  -5957555.17246  22665486.033    22665485.4824   22665492.8834
        -0.000          -0.000
 -22215239.487 9 -17292596.25149  19088298.812    19088297.8164   19088304.0254
        -0.000          -0.000
 -17925539.697 9 -13943754.86347  21756037.685    21756037.4784   21756043.9814
        -0.000          -0.000
 97  3 14 21 15 29.9950000  0  6 27  2  4  9  7 26                  -0.004045329
   4006356.710 9   3402919.17047  21256253.236    21256252.5724   21256259.4354
        -0.000          -0.000
  -7859806.757 9  -6111739.54448  20193032.797    20193031.8154   20193038.1074
        -0.000          -0.000
 -14893874.593 9 -10730291.50747  21739216.352    21739216.1344   21739223.2324
        -0.000          -0.000
  -7796139.594 9  -6047935.73046  22643413.902    22643413.6014   22643421.1184
        -0.000          -0.000
 -22215173.891 9 -17292545.13449  19088311.294    19088310.3484   19088316.5294
        -0.000          -0.000
 -17905979.604 9 -13928513.25447  21759760.045    21759759.6924   21759766.0584
        -0.000          -0.000
 97  3 14 21 15 59.9950000  0  6 27  2  4  9  7 26                  -0.004057942
   4085995.376 9   3464975.21747  21271407.949    21271407.3414   21271414.3384
        -0.000          -0.000
  -7857990.499 9  -6110324.28548  20193378.345    20193377.4164   20193383.7434
        -0.000          -0.000
 -15012648.603 9 -10822842.64247  21716614.634    21716614.2014   21716621.3024
        -0.000          -0.000
  -7912008.186 9  -6138222.88846  22621364.636    22621364.6054   22621372.1124
        -0.000          -0.000
 -22214751.659 9 -17292216.12649  19088391.692    19088390.6824   19088396.9044
        -0.000          -0.000
 -17885992.232 9 -13912938.69447  21763563.658    21763563.2494   21763569.6464
        -0.000          -0.000
 97  3 14 21 16 29.9950000  0  6 27  2  4  9  7 26                  -0.004070562
   4165932.584 9   3527263.89947  21286619.627    21286618.9704   21286625.8974
        -0.000          -0.000
  -7856037.205 9  -6108802.24348  20193750.031    20193749.1684   20193755.4084
        -0.000          -0.000
 -15131235.123 9 -10915247.69547  21694048.139    21694047.8134   21694054.9954
        -0.000          -0.000
  -8027767.691 9  -6228425.06146  22599336.057    22599336.2554   22599343.8424
        -0.000          -0.000
 -22213977.723 9 -17291613.05449  19088538.864    19088537.9004   19088544.1174
        -0.000          -0.000
 -17865603.547 9 -13897051.42447  21767443.363    21767443.0434   21767449.5814
        -0.000          -0.000
 97  3 14 21 16 59.9950000  0  6 27  2  4  9  7 26                  -0.004083198
   4246177.130 9   3589792.06647  21301889.542    21301888.9594   21301895.9124
        -0.000          -0.000
  -7853966.231 9  -6107188.50748  20194144.258    20194143.2764   20194149.4614
        -0.000          -0.000
 -15249652.381 9 -11007520.84147  21671513.983    21671513.7434   21671520.9754
        -0.000          -0.000
  -8143414.740 9  -6318539.57746  22577329.015    22577329.2404   22577336.9744
        -0.000          -0.000
 -22212839.334 9 -17290725.99249  19088755.514    19088754.5604   19088760.7644
        -0.000          -0.000
 -17844830.045 9 -13880864.31447  21771396.687    21771396.2364   21771402.5464
        -0.000          -0.000
 97  3 14 21 17 29.9950000  0  6 27  2  4  9  7 26                  -0.004095848
   4326749.276 9   3652575.50947  21317221.882    21317221.3454   21317228.2894
        -0.000          -0.000
  -7851758.229 9  -6105467.99048  20194564.457    20194563.4254   20194569.6644
        -0.000          -0.000
 -15367900.586 9 -11099662.27647  21649012.180    21649011.9314   21649018.9214
        -0.000          -0.000
  -8258948.194 9  -6408565.58546  22555343.897    22555343.9004   22555351.7134
        -0.000          -0.000
 -22211322.233 9 -17289543.83349  19089044.273    19089043.2504   19089049.4704
        -0.000          -0.000
 -17823665.394 9 -13864372.39147  21775424.031    21775423.7184   21775430.0164
        -0.000          -0.000
 97  3 14 21 17 59.9950000  0  6 27  2  4  9  7 26                  -0.004108507
   4407653.462 9   3715617.68647  21332617.502    21332617.0364   21332623.9194
        -0.000          -0.000
  -7849390.760 9  -6103623.22448  20195015.008    20195013.9534   20195020.1884
        -0.000          -0.000
 -15485987.588 9 -11191678.08947  21626540.932    21626540.6784   21626547.6794
        -0.000          -0.000
  -8374356.496 9  -6498494.07246  22533382.487    22533382.3744   22533390.1654
        -0.000          -0.000
 -22209425.014 9 -17288065.48149  19089405.261    19089404.2704   19089410.5184
        -0.000          -0.000
 -17802112.060 9 -13847577.62047  21779525.593    21779525.2194   21779531.6214
        -0.000          -0.000
 97  3 14 21 18 29.9950000  0  6 27  2  4  9  7 26                  -0.004121163
   4488874.958 9   3778907.12447  21348073.567    21348073.0664   21348079.9014
        -0.000          -0.000
  -7846833.948 9  -6101630.90448  20195501.644    20195500.5464   20195506.7374
        -0.000          -0.000
 -15603910.639 9 -11283566.14747  21604100.851    21604100.6724   21604107.7754
        -0.000          -0.000
  -8489614.429 9  -6588305.39546  22511449.339    22511449.4284   22511457.1644
        -0.000          -0.000
 -22207144.005 9 -17286288.06949  19089839.353    19089838.3604   19089844.5954
        -0.000          -0.000
 -17780166.514 9 -13830477.20847  21783701.603    21783701.2784   21783707.7444
        -0.000          -0.000
 97  3 14 21 18 59.9950000  0  6 27  2  4  9  7 26                  -0.004133817
   4570392.643 9   3842427.35547  21363586.067    21363585.4384   21363592.2364
        -0.000          -0.000
  -7844061.004 9  -6099470.17448  20196029.244    20196028.2014   20196034.4464
        -0.000          -0.000
 -15721670.127 9 -11375326.74947  21581691.908    21581691.7264   21581698.7934
        -0.000          -0.000
  -8604714.397 9  -6677993.63446  22489546.355    22489546.6214   22489554.1934
        -0.000          -0.000
 -22204479.666 9 -17284211.95549  19090346.349    19090345.3394   19090351.6124
        -0.000          -0.000
 -17757830.547 9 -13813072.59647  21787951.890    21787951.8154   21787958.1664
        -0.000          -0.000
 97  3 14 21 19 29.9950000  0  6 27  2  4  9  7 26                  -0.004146450
   4652192.572 9   3906167.52147  21379152.177    21379151.5314   21379158.3684
        -0.000          -0.000
  -7841040.157 9  -6097116.27948  20196604.010    20196603.0634   20196609.3454
        -0.000          -0.000
 -15839250.986 9 -11466948.16047  21559317.079    21559316.9154   21559323.7864
        -0.000          -0.000
  -8719646.170 9  -6767550.80446  22467675.668    22467675.8614   22467683.2354
        -0.000          -0.000
 -22201448.457 9 -17281849.97049  19090923.165    19090922.1504   19090928.3884
        -0.000          -0.000
 -17735111.801 9 -13795369.68547  21792274.994    21792274.9224   21792281.3704
        -0.000          -0.000
 97  3 14 21 19 59.9950000  0  6 27  2  4  9  7 26                  -0.004159055
   4734255.473 9   3970112.58347  21394768.046    21394767.5914   21394774.5534
        -0.000          -0.000
  -7837786.462 9  -6094580.93848  20197223.184    20197222.2144   20197228.4964
        -0.000          -0.000
 -15956639.471 9 -11558419.68047  21536978.791    21536978.5904   21536985.4754
        -0.000          -0.000
  -8834393.519 9  -6856964.27746  22445840.088    22445840.1294   22445847.4914
        -0.000          -0.000
 -22198066.209 9 -17279214.44949  19091566.817    19091565.7744   19091571.9894
        -0.000          -0.000
 -17712012.832 9 -13777370.50147  21796670.535    21796670.4994   21796677.1304
        -0.000          -0.000
 97  3 14 21 20 29.9950000  0  6 27  2  4  9  7 26                  -0.004171649
   4816557.637 9   4034244.08447  21410429.603    21410429.1284   21410436.2104
        -0.000          -0.000
  -7834328.542 9  -6091886.45648  20197881.130    20197880.1894   20197886.4714
        -0.000          -0.000
 -16073835.906 9 -11649741.53847  21514676.967    21514676.8594   21514683.6004
        -0.000          -0.000
  -8948967.073 9  -6946242.32846  22424037.287    22424037.4514   22424044.6664
        -0.000          -0.000
 -22194345.175 9 -17276314.93849  19092274.831    19092273.8344   19092280.0494
        -0.000          -0.000
 -17688529.047 9 -13759071.48147  21801139.455    21801139.4454   21801145.9784
        -0.000          -0.000
 97  3 14 21 20 59.9950000  0  6 27  2  4  9  7 26                  -0.004184224
   4899129.662 9   4098585.86247  21426142.509    21426142.0404   21426149.2284
        -0.000          -0.000
  -7830672.802 9  -6089037.83948  20198576.727    20198575.8474   20198582.1484
        -0.000          -0.000
 -16190812.879 9 -11740892.36947  21492416.886    21492416.8594   21492423.4814
        -0.000          -0.000
  -9063353.333 9  -7035374.45746  22402270.469    22402270.5414   22402277.4294
        -0.000          -0.000
 -22190265.337 9 -17273135.84149  19093051.181    19093050.1864   19093056.3704
        -0.000          -0.000
 -17664633.082 9 -13740451.28047  21805686.807    21805686.6374   21805693.1824
        -0.000          -0.000
 97  3 14 21 21 29.9950000  0  6 27  2  4  9  7 26                  -0.004196803
   4981960.536 9   4163129.34047  21441904.880    21441904.1694   21441911.4794
        -0.000          -0.000
  -7826885.181 9  -6086086.45248  20199297.452    20199296.6284   20199302.9814
        -0.000          -0.000
 -16307588.297 9 -11831886.15047  21470195.288    21470195.1934   21470201.8004
        -0.000          -0.000
  -9177583.991 9  -7124385.29346  22380533.538    22380533.1984   22380539.9954
        -0.000          -0.000
 -22185851.437 9 -17269696.44049  19093891.201    19093890.1854   19093896.3434
        -0.000          -0.000
 -17640344.078 9 -13721524.80547  21810309.028    21810308.7474   21810315.2024
        -0.000          -0.000
 97  3 14 21 21 59.9950000  0  6 27  2  4  9  7 26                  -0.004209405
   5065049.621 9   4227874.01747  21457716.071    21457715.4834   21457722.8214
        -0.000          -0.000
  -7822983.523 9  -6083046.21248  20200039.878    20200039.0444   20200045.4354
        -0.000          -0.000
 -16424167.550 9 -11922727.07547  21448011.031    21448010.9114   21448017.4934
        -0.000          -0.000
  -9291669.545 9  -7213283.09346  22358824.094    22358823.4484   22358829.9744
        -0.000          -0.000
 -22181095.806 9 -17265990.74949  19094796.114    19094795.1284   19094801.3204
        -0.000          -0.000
 -17615658.885 9 -13702289.60747  21815006.448    21815006.2054   21815012.7444
        -0.000          -0.000
 97  3 14 21 22 29.9950000  0  6 27  2  4  9  7 26                  -0.004222038
   5148411.527 9   4292831.31146  21473579.529    21473578.8114   21473585.9254
        -0.000          -0.000
  -7818952.930 9  -6079905.49948  20200806.827    20200806.0034   20200812.4564
        -0.000          -0.000
 -16540554.293 9 -12013417.99847  21425863.353    21425863.1534   21425869.6654
        -0.000          -0.000
  -9405610.370 9  -7302068.09446  22337141.594    22337141.0394   22337147.5984
        -0.000          -0.000
 -22175975.875 9 -17262001.18949  19095770.377    19095769.3944   19095775.6074
        -0.000          -0.000
 -17590592.892 9 -13682757.69147  21819776.336    21819776.0844   21819782.5074
        -0.000          -0.000
 97  3 14 21 22 59.9950000  0  6 27  2  4  9  7 26                  -0.004234693
   5232055.957 9   4358008.74247  21489496.462    21489495.8014   21489503.0114
        -0.000          -0.000
  -7814782.313 9  -6076655.67948  20201600.476    20201599.6544   20201606.0694
        -0.000          -0.000
 -16656742.600 9 -12103954.27547  21403753.235    21403753.1804   21403759.7924
        -0.000          -0.000
  -9519406.715 9  -7390740.50946  22315486.393    22315486.2114   22315492.7644
        -0.000          -0.000
 -22170493.190 9 -17257728.96649  19096813.644    19096812.6824   19096818.8934
        -0.000          -0.000
 -17565162.338 9 -13662941.70047  21824615.631    21824615.3234   21824621.7834
        -0.000          -0.000
 97  3 14 21 23 29.9950000  0  6 27  2  4  9  7 26                  -0.004247357
   5315980.325 9   4423404.30846  21505466.971    21505466.2654   21505473.3764
        -0.000          -0.000
  -7810441.045 9  -6073272.88048  20202426.674    20202425.8024   20202432.1914
        -0.000          -0.000
 -16772730.371 9 -12194334.30847  21381681.302    21381681.3114   21381687.8784
        -0.000          -0.000
  -9633051.328 9  -7479294.70746  22293860.452    22293860.2824   22293866.8304
        -0.000          -0.000
 -22164652.534 9 -17253177.79749  19097925.111    19097924.1624   19097930.3384
        -0.000          -0.000
 -17539380.285 9 -13642851.81847  21829521.842    21829521.6274   21829528.0304
        -0.000          -0.000
 97  3 14 21 23 59.9950000  0  6 27  2  4  9  7 26                  -0.004260015
   5400178.077 9   4489012.87946  21521489.583    21521488.7134   21521495.7174
        -0.000          -0.000
  -7805891.870 9  -6069728.07348  20203292.374    20203291.4924   20203297.9324
        -0.000          -0.000
 -16888515.777 9 -12284556.63847  21359648.064    21359648.0544   21359654.5974
        -0.000          -0.000
  -9746527.040 9  -7567717.27946  22272266.969    22272266.5004   22272273.1344
        -0.000          -0.000
 -22158454.986 9 -17248348.54149  19099104.549    19099103.5764   19099109.7114
        -0.000          -0.000
 -17513253.085 9 -13622492.97047  21834493.507    21834493.3154   21834499.8634
        -0.000          -0.000
 97  3 14 21 24 29.9950000  0  6 27  2  4  9  7 26                  -0.004272668
   5484642.433 9   4554829.19846  21537562.656    21537561.7164   21537568.7284
        -0.000          -0.000
  -7801137.047 9  -6066023.03148  20204197.112    20204196.2764   20204202.7074
        -0.000          -0.000
 -17004098.441 9 -12374620.97747  21337653.466    21337653.3704   21337659.9974
        -0.000          -0.000
  -9859829.097 9  -7656004.54446  22250706.468    22250705.8474   22250712.5414
        -0.000          -0.000
 -22151908.096 9 -17243247.06649  19100350.322    19100349.3834   19100355.5554
        -0.000          -0.000
 -17486783.836 9 -13601867.62647  21839530.429    21839530.3374   21839536.9014
        -0.000          -0.000
 97  3 14 21 24 59.9950000  0  6 27  2  4  9  7 26                  -0.004285317
   5569362.224 9   4620844.56546  21553683.933    21553683.2954   21553690.4364
        -0.000          -0.000
  -7796171.246 9  -6062153.59448  20205142.142    20205141.2624   20205147.6374
        -0.000          -0.000
 -17119471.562 9 -12464522.05447  21315698.644    21315698.5194   21315705.0914
        -0.000          -0.000
  -9972959.207 9  -7744157.83146  22229178.417    22229177.9314   22229184.5714
        -0.000          -0.000
 -22145025.478 9 -17237883.98549  19101660.000    19101659.0974   19101665.2864
        -0.000          -0.000
 -17459958.304 9 -13580964.64347  21844635.172    21844634.9354   21844641.5234
        -0.000          -0.000
 97  3 14 21 25 29.9950000  0  6 27  2  4  9  7 26                  -0.004297963
   5654325.111 9   4687049.37346  21569851.985    21569851.2424   21569858.2514
        -0.000          -0.000
  -7790990.068 9  -6058116.31648  20206128.178    20206127.2494   20206133.5944
        -0.000          -0.000
 -17234639.794 9 -12554263.47747  21293782.634    21293782.6114   21293789.2544
        -0.000          -0.000
 -10085904.893 9  -7832167.40446  22207685.402    22207685.0204   22207691.5564
        -0.000          -0.000
 -22137802.251 9 -17232255.49749  19103034.528    19103033.6254   19103039.7944
        -0.000          -0.000
 -17432768.415 9 -13559777.74147  21849809.224    21849809.0814   21849815.5904
        -0.000          -0.000
 97  3 14 21 25 59.9950000  0  6 27  2  4  9  7 26                  -0.004310618
   5739523.319 9   4753437.53346  21586064.669    21586063.9394   21586070.9554
        -0.000          -0.000
  -7785610.326 9  -6053924.32348  20207151.987    20207151.0104   20207157.3474
        -0.000          -0.000
 -17349598.554 9 -12643841.67347  21271906.643    21271906.6854   21271913.2934
        -0.000          -0.000
 -10198661.084 9  -7920029.31246  22186228.467    22186228.1844   22186234.6404
        -0.000          -0.000
 -22130226.229 9 -17226352.10249  19104476.173    19104475.2874   19104481.4564
        -0.000          -0.000
 -17405210.995 9 -13538304.45147  21855053.504    21855053.1414   21855059.6844
        -0.000          -0.000
 97  3 14 21 26 29.9950000  0  6 27  2  4  9  7 26                  -0.004323285
   5824961.624 9   4820012.78346  21602323.063    21602322.4234   21602329.4934
        -0.000          -0.000
  -7780047.099 9  -6049589.35948  20208210.734    20208209.6974   20208215.9754
        -0.000          -0.000
 -17464339.981 9 -12733250.51647  21250072.172    21250072.0514   21250078.7254
        -0.000          -0.000
 -10311234.375 9  -8007748.71546  22164806.611    22164806.2034   22164812.5334
        -0.000          -0.000
 -22122302.534 9 -17220177.79149  19105984.002    19105983.0934   19105989.2824
        -0.000          -0.000
 -17377284.174 9 -13516543.32247  21860367.908    21860367.5424   21860373.9614
        -0.000          -0.000
 97  3 14 21 26 59.9950000  0  6 27  2  4  9  7 26                  -0.004335950
   5910648.269 9   4886781.55046  21618628.885    21618628.0954   21618635.1484
        -0.000          -0.000
  -7774294.808 9  -6045107.07048  20209305.421    20209304.2904   20209310.6104
        -0.000          -0.000
 -17578848.391 9 -12822477.78547  21228282.026    21228281.8564   21228288.4764
        -0.000          -0.000
 -10423609.215 9  -8095313.47146  22143422.457    22143421.8884   22143428.1514
        -0.000          -0.000
 -22114030.023 9 -17213731.67749  19107558.174    19107557.2834   19107563.5204
        -0.000          -0.000
 -17348992.423 9 -13494497.81947  21865751.715    21865751.3464   21865757.7644
        -0.000          -0.000
 97  3 14 21 27 29.9950000  0  6 27  2  4  9  7 26                  -0.004348622
   5996576.351 9   4953738.46346  21634980.401    21634979.7064   21634986.7584
        -0.000          -0.000
  -7768370.457 9  -6040490.70348  20210432.802    20210431.6594   20210437.9754
        -0.000          -0.000
 -17693132.775 9 -12911530.50947  21206534.387    21206534.2724   21206540.8434
        -0.000          -0.000
 -10535791.831 9  -8182728.44146  22122074.647    22122074.0974   22122080.4644
        -0.000          -0.000
 -22105410.626 9 -17207015.26249  19109198.345    19109197.4684   19109203.7104
        -0.000          -0.000
 -17320366.791 9 -13472192.16447  21871198.923    21871198.6344   21871205.1244
        -0.000          -0.000
 97  3 14 21 27 59.9950000  0  6 27  2  4  9  7 26                  -0.004361286
   6082765.077 9   5020898.46246  21651381.483    21651380.8814   21651388.0244
        -0.000          -0.000
  -7762265.040 9  -6035733.24448  20211594.690    20211593.5354   20211599.8164
        -0.000          -0.000
 -17807167.829 9 -13000388.94647  21184834.298    21184834.1244   21184840.7454
        -0.000          -0.000
 -10647774.236 9  -8269987.41446  22100764.969    22100764.4794   22100770.8204
        -0.000          -0.000
 -22096445.317 9 -17200029.30549  19110904.413    19110903.5174   19110909.7014
        -0.000          -0.000
 -17291403.650 9 -13449623.50847  21876710.313    21876710.1294   21876716.5214
        -0.000          -0.000
 97  3 14 21 28 29.9950000  0  6 27  2  4  9  7 26                  -0.004373931
   6169226.447 9   5088270.89646  21667834.567    21667833.9804   21667841.1754
        -0.000          -0.000
  -7755955.770 9  -6030816.94048  20212795.284    20212794.1644   20212800.4114
        -0.000          -0.000
 -17920928.350 9 -13089033.45347  21163186.469    21163186.2114   21163192.8324
        -0.000          -0.000
 -10759548.443 9  -8357084.14746  22079494.960    22079494.4454   22079500.9534
        -0.000          -0.000
 -22087134.516 9 -17192774.13349  19112676.309    19112675.3804   19112681.4934
        -0.000          -0.000
 -17262082.889 9 -13426776.18447  21882289.578    21882289.6064   21882296.1284
        -0.000          -0.000
 97  3 14 21 28 59.9950000  0  6 27  2  4  9  7 26                  -0.004386588
   6255906.353 9   5155813.61546  21684329.289    21684328.6614   21684335.8824
        -0.000          -0.000
  -7749479.463 9  -6025770.47848  20214027.675    20214026.5614   20214032.8104
        -0.000          -0.000
 -18034453.438 9 -13177494.53447  21141583.257    21141583.0864   21141589.7024
        -0.000          -0.000
 -10871145.882 9  -8444043.15746  22058258.508    22058257.9864   22058264.5384
        -0.000          -0.000
 -22077515.454 9 -17185278.75549  19114506.779    19114505.8234   19114511.9314
        -0.000          -0.000
 -17232439.479 9 -13403677.45747  21887930.760    21887930.6714   21887937.1304
        -0.000          -0.000
 97  3 14 21 29 29.9950000  0  6 27  2  4  9  7 26                  -0.004399257
   6342814.535 9   5223534.23446  21700867.547    21700866.9424   21700874.0964
        -0.000          -0.000
  -7742806.103 9  -6020570.47148  20215297.678    20215296.5114   20215302.7264
        -0.000          -0.000
 -18147725.812 9 -13265758.68247  21120028.245    21120028.0794   21120034.6844
        -0.000          -0.000
 -10982562.440 9  -8530861.20346  22037056.518    22037056.0544   22037062.6634
        -0.000          -0.000
 -22067573.355 9 -17177531.66349  19116398.734    19116397.7334   19116403.8864
        -0.000          -0.000
 -17202444.964 9 -13380305.12547  21893638.513    21893638.3704   21893644.8704
        -0.000          -0.000
 97  3 14 21 29 59.9950000  0  6 27  2  4  9  7 26                  -0.004411947
   6429939.775 9   5291423.97746  21717447.215    21717446.3854   21717453.5044
        -0.000          -0.000
  -7735939.893 9  -6015220.18648  20216604.358    20216603.1174   20216609.4164
        -0.000          -0.000
 -18260737.931 9 -13353820.02547  21098522.760    21098522.5674   21098529.1124
        -0.000          -0.000
 -11093806.716 9  -8617544.99146  22015887.395    22015886.8204   22015893.6904
        -0.000          -0.000
 -22057326.600 9 -17169547.17649  19118348.603    19118347.5934   19118353.8124
        -0.000          -0.000
 -17172081.161 9 -13356645.03447  21899416.642    21899416.4904   21899422.9614
        -0.000          -0.000
 97  3 14 21 30 29.9950000  0  6 27  2  4  9  7 26                  -0.004424672
   6517263.701 9   5359468.50446  21734064.304    21734063.6114   21734070.7244
        -0.000          -0.000
  -7728898.223 9  -6009733.17248  20217944.242    20217943.0594   20217949.4144
        -0.000          -0.000
 -18373510.016 9 -13441694.34747  21077062.945    21077062.6534   21077069.1724
        -0.000          -0.000
 -11204885.657 9  -8704099.96246  21994749.735    21994749.1824   21994756.2244
        -0.000          -0.000
 -22046779.486 9 -17161328.64449  19120355.628    19120354.6744   19120360.8644
        -0.000          -0.000
 -17141362.740 9 -13332708.64347  21905262.224    21905262.0234   21905268.5054
        -0.000          -0.000
 97  3 14 21 30 59.9950000  0  6 27  2  4  9  7 26                  -0.004437415
   6604810.315 9   5427686.58346  21750723.727    21750723.1284   21750730.4274
        -0.000          -0.000
  -7721654.452 9  -6004088.69148  20219322.716    20219321.4954   20219327.8584
        -0.000          -0.000
 -18486042.387 9 -13529381.87247  21055648.681    21055648.4584   21055654.9854
        -0.000          -0.000
 -11315770.911 9  -8790504.00546  21973648.874    21973648.4504   21973655.5174
        -0.000          -0.000
 -22035904.200 9 -17152854.39349  19122425.257    19122424.2114   19122430.3494
        -0.000          -0.000
 -17110288.658 9 -13308495.09647  21911175.564    21911175.2994   21911181.7554
        -0.000          -0.000
 97  3 14 21 31 29.9950000  0  6 27  2  4  9  7 26                  -0.004450168
   6692582.743 9   5496080.62546  21767426.311    21767425.6754   21767433.0534
        -0.000          -0.000
  -7714201.844 9  -5998281.46948  20220740.784    20220739.6634   20220746.0514
        -0.000          -0.000
 -18598328.019 9 -13616877.13747  21034281.251    21034281.0904   21034287.6204
        -0.000          -0.000
 -11426458.347 9  -8876753.91346  21952585.941    21952585.3414   21952592.2854
        -0.000          -0.000
 -22024697.388 9 -17144121.80649  19124557.843    19124556.7754   19124562.9114
        -0.000          -0.000
 -17078876.990 9 -13284018.50447  21917152.973    21917152.7514   21917159.3644
        -0.000          -0.000
 97  3 14 21 31 59.9950000  0  6 27  2  4  9  7 26                  -0.004462920
   6780580.671 9   5564650.36846  21784171.616    21784171.0924   21784178.5874
        -0.000          -0.000
  -7706558.327 9  -5992325.49648  20222195.255    20222194.2064   20222200.6474
        -0.000          -0.000
 -18710362.343 9 -13704176.57547  21012961.807    21012961.6204   21012968.1074
        -0.000          -0.000
 -11536926.662 9  -8962833.09246  21931564.273    21931563.9254   21931570.7124
        -0.000          -0.000
 -22013163.207 9 -17135134.13249  19126752.681    19126751.6454   19126757.7704
        -0.000          -0.000
 -17047141.538 9 -13259289.60247  21923192.026    21923191.7904   21923198.3744
        -0.000          -0.000
 97  3 14 21 32 29.9950000  0  6 27  2  4  9  7 26                  -0.004475667
   6868790.696 9   5633385.38046  21800957.495    21800956.9424   21800964.4124
        -0.000          -0.000
  -7698728.275 9  -5986224.16448  20223685.300    20223684.2354   20223690.6824
        -0.000          -0.000
 -18822161.858 9 -13791293.04247  20991687.061    20991686.8674   20991693.3804
        -0.000          -0.000
 -11647171.320 9  -9048737.99746  21910585.311    21910585.0574   21910591.7254
        -0.000          -0.000
 -22001308.444 9 -17125896.65549  19129008.546    19129007.5044   19129013.6564
        -0.000          -0.000
 -17015114.291 9 -13234333.33147  21929286.594    21929286.3914   21929292.9404
        -0.000          -0.000
 97  3 14 21 32 59.9950000  0  6 27  2  4  9  7 26                  -0.004488388
   6957241.063 9   5702307.66746  21817789.077    21817788.4394   21817795.9324
        -0.000          -0.000
  -7690672.880 9  -5979947.23848  20225218.262    20225217.1734   20225223.5434
        -0.000          -0.000
 -18933674.566 9 -13878186.02647  20970466.986    20970466.7284   20970473.1764
        -0.000          -0.000
 -11757163.546 9  -9134446.18747  21889654.928    21889654.3484   21889660.9064
        -0.000          -0.000
 -21989108.251 9 -17116390.01449  19131330.088    19131329.0374   19131335.2464
        -0.000          -0.000
 -16982762.600 9 -13209124.24147  21935442.861    21935442.7284   21935449.2844
        -0.000          -0.000
 97  3 14 21 33 29.9950000  0  6 27  2  4  9  7 26                  -0.004501109
   7045904.612 9   5771396.08346  21834661.355    21834660.8184   21834668.1014
        -0.000          -0.000
  -7682432.755 9  -5973526.38048  20226786.277    20226785.2284   20226791.6184
        -0.000          -0.000
 -19044903.026 9 -13964857.52247  20949300.851    20949300.5824   20949307.0544
        -0.000          -0.000
 -11866930.098 9  -9219978.52747  21868767.282    21868766.5884   21868773.0094
        -0.000          -0.000
 -21976596.163 9 -17106640.34149  19133711.045    19133709.9984   19133716.1924
        -0.000          -0.000
 -16950097.529 9 -13183670.96247  21941658.960    21941658.7364   21941665.2854
        -0.000          -0.000
 97  3 14 21 33 59.9950000  0  6 27  2  4  9  7 26                  -0.004513821
   7134811.241 9   5840673.90846  21851579.844    21851579.2164   21851586.6114
        -0.000          -0.000
  -7673984.478 9  -5966943.31248  20228393.885    20228392.8454   20228399.2604
        -0.000          -0.000
 -19155822.251 9 -14051288.05047  20928193.591    20928193.3734   20928199.7744
        -0.000          -0.000
 -11976453.647 9  -9305321.49547  21847925.871    21847925.0764   21847931.3564
        -0.000          -0.000
 -21963744.954 9 -17096626.41349  19136156.587    19136155.5354   19136161.7544
        -0.000          -0.000
 -16917085.811 9 -13157947.56747  21947940.989    21947940.7164   21947947.2774
        -0.000          -0.000
 97  3 14 21 34 29.9950000  0  6 27  2  4  9  7 26                  -0.004526551
   7223946.607 9   5910129.96946  21868541.471    21868541.1044   21868548.4764
        -0.000          -0.000
  -7665328.422 9  -5960198.34448  20230041.102    20230040.0354   20230046.3864
        -0.000          -0.000
 -19266444.514 9 -14137487.18347  20907142.860    20907142.6564   20907148.9424
        -0.000          -0.000
 -12085768.976 9  -9390502.23147  21827123.875    21827123.1074   21827129.2464
        -0.000          -0.000
 -21950562.102 9 -17086354.06749  19138665.144    19138664.1484   19138670.3734
        -0.000          -0.000
 -16883737.240 9 -13131961.70647  21954287.181    21954286.8444   21954293.2324
        -0.000          -0.000
 97  3 14 21 34 59.9950000  0  6 27  2  4  9  7 26                  -0.004539300
   7313309.190 9   5979763.11346  21885546.912    21885546.3014   21885553.7404
        -0.000          -0.000
  -7656473.495 9  -5953298.41948  20231726.141    20231725.0984   20231731.4164
        -0.000          -0.000
 -19376776.217 9 -14223459.91347  20886147.508    20886147.2614   20886153.6204
        -0.000          -0.000
 -12194886.620 9  -9475528.93047  21806359.487    21806358.6534   21806364.8024
        -0.000          -0.000
 -21937061.361 9 -17075834.00749  19141234.231    19141233.2304   19141239.4024
        -0.000          -0.000
 -16850051.087 9 -13105712.77647  21960697.186    21960696.9354   21960703.5374
        -0.000          -0.000
 97  3 14 21 35 29.9950000  0  6 27  2  4  9  7 26                  -0.004552047
   7402923.281 9   6049592.20246  21902600.281    21902599.3364   21902606.9194
        -0.000          -0.000
  -7647405.379 9  -5946232.35948  20233451.717    20233450.6944   20233457.0614
        -0.000          -0.000
 -19486807.449 9 -14309198.50047  20865209.176    20865208.9364   20865215.2844
        -0.000          -0.000
 -12303780.920 9  -9560381.58247  21785637.345    21785636.5384   21785642.8814
        -0.000          -0.000
 -21923227.523 9 -17065054.39649  19143866.750    19143865.7484   19143871.9524
        -0.000          -0.000
 -16816017.094 9 -13079192.81447  21967173.744    21967173.5824   21967180.0294
        -0.000          -0.000
 97  3 14 21 35 59.9950000  0  6 27  2  4  9  7 26                  -0.004564790
   7492774.824 9   6119606.32546  21919698.340    21919697.5994   21919705.1584
        -0.000          -0.000
  -7638127.749 9  -5939003.04748  20235217.183    20235216.1714   20235222.5574
        -0.000          -0.000
 -19596553.651 9 -14394714.98747  20844325.258    20844324.9244   20844331.2284
        -0.000          -0.000
 -12412456.646 9  -9645063.92247  21764956.609    21764956.1054   21764962.5494
        -0.000          -0.000
 -21909079.403 9 -17054029.88749  19146559.011    19146558.0444   19146564.2834
        -0.000          -0.000
 -16781655.622 9 -13052417.65747  21973712.495    21973712.3254   21973718.8374
        -0.000          -0.000
 97  3 14 21 36 29.9950000  0  6 27  2  4  9  7 26                  -0.004577497
   7582872.065 9   6189811.91846  21936843.437    21936842.6504   21936850.1474
        -0.000          -0.000
  -7628630.600 9  -5931602.68448  20237024.386    20237023.4004   20237029.8334
        -0.000          -0.000
 -19706006.617 9 -14480002.98147  20823496.874    20823496.6934   20823503.0084
        -0.000          -0.000
 -12520888.068 9  -9729555.89346  21744322.541    21744322.1594   21744328.6614
        -0.000          -0.000
 -21894630.156 9 -17042770.73649  19149308.616    19149307.6504   19149313.8854
        -0.000          -0.000
 -16746968.047 9 -13025388.41847  21980313.277    21980313.1454   21980319.6254
        -0.000          -0.000
 97  3 14 21 36 59.9950000  0  6 27  2  4  9  7 26                  -0.004590168
   7673196.905 9   6260194.82446  21954031.554    21954030.9114   21954038.4234
        -0.000          -0.000
  -7618934.868 9  -5924047.57948  20238869.454    20238868.4634   20238874.9324
        -0.000          -0.000
 -19815189.308 9 -14565080.36747  20802720.157    20802719.8974   20802726.1944
        -0.000          -0.000
 -12629072.296 9  -9813855.25247  21723736.065    21723735.4604   21723741.8274
        -0.000          -0.000
 -21879893.398 9 -17031287.54349  19152112.956    19152111.9894   19152118.1874
        -0.000          -0.000
 -16711977.154 9 -12998122.82647  21986972.060    21986971.6574   21986978.2404
        -0.000          -0.000
 97  3 14 21 37 29.9950000  0  7 27  2 24  4  9  7 26               -0.004602851
   7763728.850 9   6330739.15146  21971259.215    21971258.5744   21971266.1424
        -0.000          -0.000
  -7609043.394 9  -5916339.95048  20240751.781    20240750.7404   20240757.2734
        -0.000          -0.000
  -4193379.45119  -3245029.29455  23166483.147    23166481.7585   23166490.9985
        -0.000          -0.000
 -19924100.707 9 -14649946.36647  20781995.082    20781994.7444   20782001.0274
        -0.000          -0.000
 -12737011.390 9  -9897963.60347  21703196.104    21703195.3614   21703201.6954
        -0.000          -0.000
 -21864869.681 9 -17019580.75449  19154971.904    19154970.9004   19154977.1654
        -0.000          -0.000
 -16676696.077 9 -12970631.10647  21993685.888    21993685.4994   21993692.0334
        -0.000          -0.000
 97  3 14 21 37 59.9950000  0  7 27  2 24  4  9  7 26               -0.004615489
   7854469.685 9   6401446.20846  21988526.720    21988526.0504   21988533.5844
        -0.000          -0.000
  -7598931.033 9  -5908460.19548  20242676.029    20242675.0584   20242681.5434
        -0.000          -0.000
  -4321755.860 9  -3345062.75845  23142053.834    23142052.4714   23142061.7364
        -0.000          -0.000
 -20032719.565 9 -14734584.39847  20761325.396    20761325.1644   20761331.6004
        -0.000          -0.000
 -12844688.614 9  -9981867.89646  21682705.693    21682704.9964   21682711.3844
        -0.000          -0.000
 -21849533.986 9 -17007630.85349  19157890.237    19157889.2094   19157895.3904
        -0.000          -0.000
 -16641113.582 9 -12942904.50247  22000456.902    22000456.5514   22000463.2254
        -0.000          -0.000
 97  3 14 21 38 29.9950000  0  7 27  2 24  4  9  7 26               -0.004628113
   7945397.933 9   6472299.33146  22005829.812    22005829.0924   22005836.7464
        -0.000          -0.000
  -7588598.916 9  -5900409.20748  20244642.132    20244641.1774   20244647.7014
        -0.000          -0.000
  -4450147.251 9  -3445107.89146  23117621.436    23117620.1754   23117629.5684
        -0.000          -0.000
 -20141056.580 9 -14819002.81747  20740709.469    20740709.2564   20740715.6564
        -0.000          -0.000
 -12952114.712 9 -10065576.50246  21662262.906    21662262.3484   21662268.9124
        -0.000          -0.000
 -21833885.110 9 -16995436.92049  19160868.155    19160867.1084   19160873.2694
        -0.000          -0.000
 -16605247.804 9 -12914957.19047  22007282.117    22007281.7064   22007288.2774
        -0.000          -0.000
 97  3 14 21 38 59.9950000  0  7 27  2 24  4  9  7 26               -0.004640733
   8036512.142 9   6543297.34546  22023168.299    22023167.6084   22023175.2094
        -0.000          -0.000
  -7578037.906 9  -5892179.85748  20246651.722    20246650.8554   20246657.3954
        -0.000          -0.000
  -4578551.038 9  -3545162.69146  23093186.584    23093185.6504   23093195.0524
        -0.000          -0.000
 -20249097.485 9 -14903190.50247  20720150.029    20720149.7694   20720156.1404
        -0.000          -0.000
 -13059278.636 9 -10149080.83046  21641870.054    21641869.6554   21641876.1984
        -0.000          -0.000
 -21817891.875 9 -16982974.65349  19163911.541    19163910.5314   19163916.7354
        -0.000          -0.000
 -16569081.554 9 -12886775.72646  22014164.451    22014163.9314   22014170.5224
        -0.000          -0.000
